[[{"header":{"parameterUnit":"m.s-1","parameterCategory":1,"la1":30.6,"la2":28.766,"lo1":-90.7593,"lo2":-88.6598,"dy":0.0162,"dx":0.0183,"nx":116,"ny":114,"refTime":"2023-05-16T00:00:00:Z","depth":0,"parameterNumber":2,"parameterNumberName":"U-component_of_WINDS"},"data":[0.0,0.0,0.0,0.0,0.0,0.0,0.0,0.0,0.0,0.0,0.0,0.0,0.0,0.0,0.0,0.0,0.0,0.0,0.0,0.0,0.0,0.0,0.0,0.0,0.0,0.0,0.0,0.0,0.0,0.0,0.0,0.0,0.0,0.0,0.0,0.0,0.0,0.0,0.0,0.0,0.0,0.0,0.0,0.0,0.0,0.0,0.0,0.0,0.0,0.0,0.0,0.0,0.0,0.0,0.0,0.0,0.0,0.0,0.0,0.0,0.0,0.0,0.0,0.0,0.0,0.0,0.0,0.0,0.0,0.0,0.0,0.0,0.0,0.0,0.0,0.0,0.0,0.0,0.0,0.0,0.0,0.0,0.0,0.0,0.0,0.0,0.0,0.0,0.0,0.0,0.0,0.0,0.0,0.0,0.0,0.0,0.0,0.0,0.0,0.0,0.0,0.0,0.0,0.0,0.0,0.0,0.0,0.0,0.0,0.0,0.0,0.0,0.0,0.0,0.0,0.0,0.0,0.0,0.0,0.0,0.0,0.0,0.0,0.0,0.0,0.0,0.0,0.0,0.0,0.0,0.0,0.0,0.0,0.0,0.0,0.0,0.0,0.0,0.0,0.0,0.0,0.0,0.0,0.0,0.0,0.0,0.0,0.0,0.0,0.0,0.0,0.0,0.0,0.0,0.0,0.0,0.0,0.0,0.0,0.0,0.0,0.0,0.0,0.0,0.0,0.0,0.0,0.0,0.0,0.0,0.0,0.0,0.0,0.0,0.0,0.0,0.0,0.0,0.0,0.0,0.0,0.0,0.0,0.0,0.0,0.0,0.0,0.0,0.0,0.0,0.0,0.0,0.0,0.0,0.0,0.0,0.0,0.0,0.0,0.0,0.0,0.0,0.0,0.0,0.0,0.0,0.0,0.0,0.0,0.0,0.0,0.0,0.0,0.0,0.0,0.0,0.0,0.0,0.0,0.0,0.0,0.0,0.0,0.0,0.0,0.0,0.0,0.0,0.0,0.0,0.0,0.0,0.0,0.0,0.0,0.0,0.0,0.0,0.0,0.0,0.0,0.0,0.0,0.0,0.0,0.0,0.0,0.0,0.0,0.0,0.0,0.0,0.0,0.0,0.0,0.0,0.0,0.0,0.0,0.0,0.0,0.0,0.0,0.0,0.0,0.0,0.0,0.0,0.0,0.0,0.0,0.0,0.0,0.0,0.0,0.0,0.0,0.0,0.0,0.0,0.0,0.0,0.0,0.0,0.0,0.0,0.0,0.0,0.0,0.0,0.0,0.0,0.0,0.0,0.0,0.0,0.0,0.0,0.0,0.0,0.0,0.0,0.0,0.0,0.0,0.0,0.0,0.0,0.0,0.0,0.0,0.0,0.0,0.0,0.0,0.0,0.0,0.0,0.0,0.0,0.0,0.0,0.0,0.0,0.0,0.0,0.0,0.0,0.0,0.0,0.0,0.0,0.0,0.0,0.0,0.0,0.0,0.0,0.0,0.0,0.0,0.0,0.0,0.0,0.0,0.0,0.0,0.0,0.0,0.0,0.0,0.0,0.0,0.0,0.0,0.0,0.0,0.0,0.0,0.0,0.0,0.0,0.0,0.0,0.0,0.0,0.0,0.0,0.0,0.0,0.0,0.0,0.0,0.0,0.0,0.0,0.0,0.0,0.0,0.0,0.0,0.0,0.0,0.0,0.0,0.0,0.0,0.0,0.0,0.0,0.0,0.0,0.0,0.0,0.0,0.0,0.0,0.0,0.0,0.0,0.0,0.0,0.0,0.0,0.0,0.0,0.0,0.0,0.0,0.0,0.0,0.0,0.0,0.0,0.0,0.0,0.0,0.0,0.0,0.0,0.0,0.0,0.0,0.0,0.0,0.0,0.0,0.0,0.0,0.0,0.0,0.0,0.0,0.0,0.0,0.0,0.0,0.0,0.0,0.0,0.0,0.0,0.0,0.0,0.0,0.0,0.0,0.0,0.0,0.0,0.0,0.0,0.0,0.0,0.0,0.0,0.0,0.0,0.0,0.0,0.0,0.0,0.0,0.0,0.0,0.0,0.0,0.0,0.0,0.0,0.0,0.0,0.0,0.0,0.0,0.0,0.0,0.0,0.0,0.0,0.0,0.0,0.0,0.0,0.0,0.0,0.0,0.0,0.0,0.0,0.0,0.0,0.0,0.0,0.0,0.0,0.0,0.0,0.0,0.0,0.0,0.0,0.0,0.0,0.0,0.0,0.0,0.0,0.0,0.0,0.0,0.0,0.0,0.0,0.0,0.0,0.0,0.0,0.0,0.0,0.0,0.0,0.0,0.0,0.0,0.0,0.0,0.0,0.0,0.0,0.0,0.0,0.0,0.0,0.0,0.0,0.0,0.0,0.0,0.0,0.0,0.0,0.0,0.0,0.0,0.0,0.0,0.0,0.0,0.0,0.0,0.0,0.0,0.0,0.0,0.0,0.0,0.0,0.0,0.0,0.0,0.0,0.0,0.0,0.0,0.0,0.0,0.0,0.0,0.0,0.0,0.0,0.0,0.0,0.0,0.0,0.0,0.0,0.0,0.0,0.0,0.0,0.0,0.0,0.0,0.0,0.0,0.0,0.0,0.0,0.0,0.0,0.0,0.0,0.0,0.0,0.0,0.0,0.0,0.0,0.0,0.0,0.0,0.0,0.0,0.0,0.0,0.0,0.0,0.0,0.0,0.0,0.0,0.0,0.0,0.0,0.0,0.0,0.0,0.0,0.0,0.0,0.0,0.0,0.0,0.0,0.0,0.0,0.0,0.0,0.0,0.0,0.0,0.0,0.0,0.0,0.0,0.0,0.0,0.0,0.0,0.0,0.0,0.0,0.0,0.0,0.0,0.0,0.0,0.0,0.0,0.0,0.0,0.0,0.0,0.0,0.0,0.0,0.0,0.0,0.0,0.0,0.0,0.0,0.0,0.0,0.0,0.0,0.0,0.0,0.0,0.0,0.0,0.0,0.0,0.0,0.0,0.0,0.0,0.0,0.0,0.0,0.0,0.0,0.0,0.0,0.0,0.0,0.0,0.0,0.0,0.0,0.0,0.0,0.0,0.0,0.0,0.0,0.0,0.0,0.0,0.0,0.0,0.0,0.0,0.0,0.0,0.0,0.0,0.0,0.0,0.0,0.0,0.0,0.0,0.0,0.0,0.0,0.0,0.0,0.0,0.0,0.0,0.0,0.0,0.0,0.0,0.0,0.0,0.0,0.0,0.0,0.0,0.0,0.0,0.0,0.0,0.0,0.0,0.0,0.0,0.0,0.0,0.0,0.0,0.0,0.0,0.0,0.0,0.0,0.0,0.0,0.0,0.0,0.0,0.0,0.0,0.0,0.0,0.0,0.0,0.0,0.0,0.0,0.0,0.0,0.0,0.0,0.0,0.0,0.0,0.0,0.0,0.0,0.0,0.0,0.0,0.0,0.0,0.0,0.0,0.0,0.0,0.0,0.0,0.0,0.0,0.0,0.0,0.0,0.0,0.0,0.0,0.0,0.0,0.0,0.0,0.0,0.0,0.0,0.0,0.0,0.0,0.0,0.0,0.0,0.0,0.0,0.0,0.0,0.0,0.0,0.0,0.0,0.0,0.0,0.0,0.0,0.0,0.0,0.0,0.0,0.0,0.0,0.0,0.0,0.0,0.0,0.0,0.0,0.0,0.0,0.0,0.0,0.0,0.0,0.0,0.0,0.0,0.0,0.0,0.0,0.0,0.0,0.0,0.0,0.0,0.0,0.0,0.0,0.0,0.0,0.0,0.0,0.0,0.0,0.0,0.0,0.0,0.0,0.0,0.0,0.0,0.0,0.0,0.0,0.0,0.0,0.0,0.0,0.0,0.0,0.0,0.0,0.0,0.0,0.0,0.0,0.0,0.0,0.0,0.0,0.0,0.0,0.0,0.0,0.0,0.0,0.0,0.0,0.0,0.0,0.0,0.0,0.0,0.0,0.0,0.0,0.0,0.0,0.0,0.0,0.0,0.0,0.0,0.0,0.0,0.0,0.0,0.0,0.0,0.0,0.0,0.0,0.0,0.0,0.0,0.0,0.0,0.0,0.0,0.0,0.0,0.0,0.0,0.0,0.0,0.0,0.0,0.0,0.0,0.0,0.0,0.0,0.0,0.0,0.0,0.0,0.0,0.0,0.0,0.0,0.0,0.0,0.0,0.0,0.0,0.0,0.0,0.0,0.0,0.0,0.0,0.0,0.0,0.0,0.0,0.0,0.0,0.0,0.0,0.0,0.0,0.0,0.0,0.0,0.0,0.0,0.0,0.0,0.0,0.0,0.0,0.0,0.0,0.0,0.0,0.0,0.0,0.0,0.0,0.0,0.0,0.0,0.0,0.0,0.0,0.0,0.0,0.0,0.0,0.0,0.0,0.0,0.0,0.0,0.0,0.0,0.0,0.0,0.0,0.0,0.0,0.0,0.0,0.0,0.0,0.0,0.0,0.0,0.0,0.0,0.0,0.0,0.0,0.0,0.0,0.0,0.0,0.0,0.0,0.0,0.0,0.0,0.0,0.0,0.0,0.0,0.0,0.0,0.0,0.0,0.0,0.0,0.0,0.0,0.0,0.0,0.0,0.0,0.0,0.0,0.0,0.0,0.0,0.0,0.0,0.0,0.0,0.0,0.0,0.0,0.0,0.0,0.0,0.0,0.0,0.0,0.0,0.0,0.0,0.0,0.0,0.0,0.0,0.0,0.0,0.0,0.0,0.0,0.0,0.0,0.0,0.0,0.0,0.0,0.0,0.0,0.0,0.0,0.0,0.0,0.0,0.0,0.0,0.0,0.0,0.0,0.0,0.0,0.0,0.0,0.0,0.0,0.0,0.0,0.0,0.0,0.0,0.0,0.0,0.0,0.0,0.0,0.0,0.0,0.0,0.0,0.0,0.0,0.0,0.0,0.0,0.0,0.0,0.0,0.0,0.0,0.0,0.0,0.0,0.0,0.0,0.0,0.0,0.0,0.0,0.0,0.0,0.0,0.0,0.0,0.0,0.0,0.0,0.0,0.0,0.0,0.0,0.0,0.0,0.0,0.0,0.0,0.0,0.0,0.0,0.0,0.0,0.0,0.0,0.0,0.0,0.0,0.0,0.0,0.0,0.0,0.0,0.0,0.0,0.0,0.0,0.0,0.0,0.0,0.0,0.0,0.0,0.0,0.0,0.0,0.0,0.0,0.0,0.0,0.0,0.0,0.0,0.0,0.0,0.0,0.0,0.0,0.0,0.0,0.0,0.0,0.0,0.0,0.0,0.0,0.0,0.0,0.0,0.0,0.0,0.0,0.0,0.0,0.0,0.0,0.0,0.0,0.0,0.0,0.0,0.0,0.0,0.0,0.0,0.0,0.0,0.0,0.0,0.0,0.0,0.0,0.0,0.0,0.0,0.0,0.0,0.0,0.0,0.0,0.0,0.0,0.0,0.0,0.0,0.0,0.0,0.0,0.0,0.0,0.0,0.0,0.0,0.0,0.0,0.0,0.0,0.0,0.0,0.0,0.0,0.0,0.0,0.0,0.0,0.0,0.0,0.0,0.0,0.0,0.0,0.0,0.0,0.0,0.0,0.0,0.0,0.0,0.0,0.0,0.0,0.0,0.0,0.0,0.0,0.0,0.0,0.0,0.0,0.0,0.0,0.0,0.0,0.0,0.0,0.0,0.0,0.0,0.0,0.0,0.0,0.0,0.0,0.0,0.0,0.0,0.0,0.0,0.0,0.0,0.0,0.0,0.0,0.0,0.0,0.0,0.0,0.0,0.0,0.0,0.0,0.0,0.0,0.0,0.0,0.0,0.0,0.0,0.0,0.0,0.0,0.0,0.0,0.0,0.0,0.0,0.0,0.0,0.0,0.0,0.0,0.0,0.0,0.0,0.0,0.0,0.0,0.0,0.0,0.0,0.0,0.0,0.0,0.0,0.0,0.0,0.0,0.0,0.0,0.0,0.0,0.0,0.0,0.0,0.0,0.0,0.0,0.0,0.0,0.0,0.0,0.0,0.0,0.0,0.0,0.0,0.0,0.0,0.0,0.0,0.0,0.0,0.0,0.0,0.0,0.0,0.0,0.0,0.0,0.0,0.0,0.0,0.0,0.0,-3.3578,0.0,0.0,0.0,0.0,0.0,0.0,0.0,0.0,0.0,0.0,0.0,0.0,0.0,0.0,0.0,0.0,0.0,0.0,0.0,0.0,0.0,0.0,0.0,0.0,0.0,0.0,0.0,0.0,0.0,0.0,0.0,0.0,0.0,0.0,0.0,0.0,0.0,0.0,0.0,0.0,0.0,0.0,0.0,0.0,0.0,0.0,0.0,0.0,0.0,0.0,0.0,0.0,0.0,0.0,0.0,0.0,0.0,0.0,0.0,0.0,0.0,0.0,0.0,0.0,0.0,0.0,0.0,0.0,0.0,0.0,0.0,0.0,0.0,0.0,0.0,0.0,0.0,0.0,0.0,0.0,0.0,0.0,0.0,0.0,0.0,0.0,0.0,0.0,0.0,0.0,0.0,0.0,0.0,0.0,0.0,0.0,0.0,0.0,0.0,0.0,0.0,0.0,0.0,0.0,0.0,0.0,0.0,0.0,0.0,0.0,0.0,0.0,0.0,0.0,0.0,0.0,-3.4367,0.0,0.0,0.0,0.0,0.0,0.0,0.0,0.0,0.0,0.0,0.0,0.0,0.0,0.0,0.0,0.0,0.0,0.0,0.0,0.0,0.0,0.0,0.0,0.0,0.0,0.0,0.0,0.0,0.0,0.0,0.0,0.0,0.0,0.0,0.0,0.0,0.0,0.0,0.0,0.0,0.0,0.0,0.0,0.0,0.0,0.0,0.0,0.0,0.0,0.0,0.0,0.0,0.0,0.0,0.0,0.0,0.0,0.0,0.0,0.0,0.0,0.0,0.0,0.0,0.0,0.0,0.0,0.0,0.0,0.0,0.0,0.0,0.0,0.0,0.0,0.0,0.0,0.0,0.0,0.0,0.0,0.0,0.0,0.0,0.0,0.0,0.0,0.0,0.0,0.0,0.0,0.0,0.0,0.0,0.0,0.0,0.0,0.0,0.0,0.0,0.0,0.0,0.0,0.0,0.0,0.0,0.0,0.0,-3.7963,-3.8877,-3.933,-3.9715,-3.9944,-4.0031,-3.8406,-3.7386,-3.674,0.0,0.0,0.0,0.0,0.0,0.0,0.0,0.0,0.0,0.0,0.0,0.0,0.0,0.0,0.0,0.0,0.0,0.0,0.0,0.0,0.0,0.0,0.0,0.0,0.0,0.0,0.0,0.0,0.0,0.0,0.0,0.0,0.0,0.0,0.0,0.0,0.0,0.0,0.0,-1.4344,-1.6808,-1.7605,-1.7154,-1.761,0.0,0.0,0.0,0.0,0.0,0.0,0.0,0.0,0.0,0.0,0.0,0.0,0.0,0.0,0.0,0.0,0.0,0.0,0.0,0.0,0.0,0.0,0.0,0.0,0.0,0.0,0.0,0.0,0.0,0.0,0.0,0.0,0.0,0.0,0.0,0.0,0.0,0.0,0.0,0.0,0.0,0.0,0.0,-3.3727,-3.4239,0.0,0.0,0.0,0.0,0.0,0.0,0.0,0.0,0.0,0.0,0.0,0.0,0.0,0.0,-3.6014,-3.8341,-3.9093,-3.8256,-4.0679,-4.1535,-4.107,-4.116,-4.1505,-4.203,-4.1775,0.0,-3.7632,-3.5913,0.0,0.0,0.0,0.0,0.0,0.0,0.0,0.0,0.0,0.0,0.0,0.0,0.0,0.0,0.0,0.0,0.0,0.0,0.0,0.0,0.0,0.0,0.0,0.0,0.0,0.0,0.0,0.0,0.0,0.0,0.0,0.0,0.0,0.0,0.0,0.0,-1.2802,-1.4149,-1.5872,-1.7291,-1.8467,-1.9353,-1.9837,-1.9406,-1.8336,-1.7857,0.0,0.0,0.0,0.0,0.0,0.0,0.0,0.0,0.0,0.0,0.0,0.0,0.0,0.0,0.0,0.0,0.0,0.0,0.0,0.0,0.0,0.0,0.0,0.0,0.0,0.0,0.0,0.0,0.0,0.0,0.0,0.0,0.0,0.0,0.0,0.0,0.0,0.0,0.0,-3.0593,-3.3236,-3.3565,-3.3647,-3.2823,0.0,0.0,0.0,0.0,0.0,0.0,0.0,0.0,0.0,-3.6677,-3.721,-3.8004,-3.9173,-4.0643,-4.131,-4.1265,-4.2731,-4.3299,-4.303,-4.303,-4.318,-4.3434,-4.3075,-4.2175,-4.0753,-3.8102,-3.6137,-3.4514,0.0,0.0,0.0,0.0,0.0,-3.09,0.0,0.0,0.0,0.0,0.0,0.0,0.0,0.0,0.0,0.0,0.0,0.0,0.0,0.0,0.0,-1.4946,0.0,0.0,0.0,0.0,0.0,0.0,0.0,0.0,0.0,0.0,0.0,-1.3177,-1.3928,-1.537,-1.7416,-1.8594,-2.0005,-2.15,-2.2352,-2.1481,-1.9325,-1.9554,-1.957,0.0,0.0,0.0,0.0,0.0,0.0,0.0,0.0,0.0,0.0,0.0,0.0,0.0,0.0,0.0,0.0,0.0,0.0,0.0,0.0,0.0,0.0,0.0,0.0,0.0,0.0,0.0,0.0,0.0,0.0,0.0,0.0,0.0,0.0,0.0,0.0,0.0,0.0,-3.1999,-3.4429,-3.4137,-3.5234,-3.4709,0.0,0.0,0.0,0.0,0.0,0.0,-3.6971,-3.7635,-3.8417,-3.9504,-3.9696,-4.0546,-4.2117,-4.2791,-4.3434,-4.4107,-4.4421,-4.4571,-4.4556,-4.4212,-4.4062,-4.4032,-4.3539,-4.3329,-4.3021,-3.9584,-3.7591,-3.6311,-3.3357,-3.1889,-3.1345,-3.1203,-3.1434,-3.1959,0.0,0.0,0.0,0.0,0.0,0.0,0.0,0.0,0.0,0.0,0.0,0.0,0.0,0.0,-1.6315,-1.7864,-1.8329,-1.7822,0.0,0.0,0.0,0.0,0.0,0.0,0.0,0.0,0.0,-1.3287,-1.5132,-1.655,-1.759,-2.076,-2.2298,-2.2415,-2.4219,-2.4158,-2.2574,-2.1768,-2.1582,-2.185,0.0,0.0,0.0,0.0,0.0,0.0,0.0,0.0,0.0,0.0,0.0,0.0,0.0,0.0,0.0,0.0,0.0,0.0,0.0,0.0,0.0,0.0,0.0,0.0,0.0,0.0,0.0,0.0,0.0,0.0,0.0,0.0,0.0,0.0,0.0,0.0,0.0,0.0,0.0,-3.8539,-4.067,0.0,0.0,0.0,0.0,-3.6122,-3.7904,-3.9227,-3.9864,-4.1321,-4.2376,-4.2985,-4.3075,-4.3434,-4.4167,-4.4825,-4.5499,-4.6172,-4.5544,-4.5244,-4.5214,-4.3943,-4.3389,-4.3389,-4.3344,-4.3329,-4.3051,-3.9609,-3.8131,-3.78,-3.4347,-3.3016,-3.2928,-3.2374,-3.2172,-3.2097,0.0,0.0,0.0,0.0,0.0,0.0,0.0,0.0,0.0,0.0,0.0,0.0,0.0,-1.7347,-1.9084,-1.9672,-2.1237,-2.0814,-1.7541,0.0,0.0,0.0,0.0,0.0,0.0,0.0,-1.4638,-1.6434,-1.7775,-1.9439,-2.1293,-2.2363,-2.3709,-2.5222,-2.6932,-2.7558,-2.7357,-2.5698,-2.4987,-2.4882,-2.3745,-2.2129,0.0,0.0,0.0,0.0,0.0,0.0,0.0,0.0,0.0,0.0,0.0,0.0,0.0,0.0,0.0,0.0,0.0,0.0,0.0,0.0,0.0,0.0,0.0,0.0,0.0,0.0,0.0,0.0,0.0,0.0,0.0,0.0,0.0,0.0,0.0,0.0,0.0,-3.8312,-4.115,0.0,-3.8967,-3.8793,-3.8947,-3.9115,-4.077,-4.2092,-4.2801,-4.369,-4.4138,-4.3958,-4.4377,-4.4706,-4.4945,-4.5618,-4.6082,-4.6307,-4.5618,-4.5065,-4.4631,-4.3733,-4.3329,-4.3329,-4.3329,-4.3329,-4.3126,-4.0434,-3.9086,-3.8418,-3.5734,-3.4449,-3.4073,-3.3508,-3.3294,-3.3244,0.0,0.0,0.0,0.0,0.0,0.0,0.0,0.0,0.0,0.0,0.0,-1.3931,-1.621,-1.875,-2.0317,-2.0487,-2.2616,-2.2229,-1.8162,0.0,0.0,0.0,0.0,0.0,0.0,-1.5783,-1.7552,-1.9515,-2.1041,-2.2805,-2.4747,-2.4912,-2.6039,-2.7959,-2.9413,-3.0282,-3.0634,-2.9387,-2.8422,-2.7679,-2.5865,-2.3773,-2.151,0.0,0.0,0.0,0.0,0.0,0.0,0.0,0.0,0.0,0.0,0.0,0.0,0.0,0.0,0.0,0.0,0.0,0.0,0.0,0.0,0.0,0.0,0.0,0.0,0.0,0.0,0.0,0.0,0.0,0.0,0.0,0.0,0.0,0.0,0.0,-4.0706,-3.9074,-4.252,-4.3753,-4.0739,-4.1309,-4.1927,-4.2151,-4.3464,-4.4541,-4.496,-4.5618,-4.5678,-4.502,-4.5424,-4.5648,-4.5648,-4.6097,-4.6426,-4.6651,-4.5723,-4.5065,-4.4616,-4.3733,-4.3329,-4.3329,-4.3329,-4.3076,-4.2563,-4.0675,-3.9376,-3.8458,-3.6301,-3.5316,-3.4914,-3.4173,-3.3897,-3.3834,0.0,0.0,0.0,0.0,0.0,0.0,0.0,0.0,0.0,0.0,-1.2699,-1.4591,-1.6807,-1.8876,-2.0212,-2.0381,-2.2248,-2.1775,-1.7934,-1.9042,0.0,0.0,0.0,0.0,-1.7222,-1.8977,-2.0703,-2.2374,-2.4702,-2.6456,-2.7511,-2.8389,-2.9357,-3.0276,-3.1485,-3.2027,-3.2069,-3.2416,-3.1694,-3.0026,-2.6181,-2.4134,-2.2952,0.0,0.0,0.0,0.0,0.0,0.0,0.0,0.0,0.0,0.0,0.0,0.0,0.0,0.0,0.0,0.0,0.0,0.0,0.0,0.0,0.0,0.0,0.0,0.0,0.0,0.0,0.0,0.0,0.0,0.0,0.0,0.0,0.0,-3.4605,-3.9567,-4.2824,-4.1419,-4.5089,-4.6916,-4.4787,-4.5042,-4.5349,-4.5349,-4.5978,-4.6352,-4.6352,-4.6965,-4.6995,-4.6352,-4.6352,-4.6337,-4.6292,-4.6337,-4.6651,-4.7219,-4.5918,-4.5289,-4.5214,-4.3928,-4.3329,-4.3329,-4.3314,-4.2614,-4.1558,-4.0376,-3.9156,-3.7938,-3.6205,-3.5567,-3.5416,-3.4324,-3.3897,-3.3796,0.0,0.0,0.0,0.0,0.0,0.0,0.0,0.0,0.0,0.0,-1.3757,-1.5648,-1.8152,-1.9579,-2.0697,-2.155,-2.1406,-2.0718,-1.9376,0.0,0.0,0.0,0.0,0.0,-2.0058,-2.1729,-2.3519,-2.5466,-2.6913,-2.8282,-2.9583,-2.9342,-2.9863,-3.106,-3.0829,-3.0999,-3.1444,-3.1102,-3.0283,-2.9022,-2.726,-2.58,-2.4435,0.0,0.0,0.0,0.0,0.0,0.0,0.0,0.0,0.0,0.0,0.0,0.0,0.0,0.0,0.0,0.0,0.0,0.0,0.0,0.0,0.0,0.0,0.0,0.0,0.0,0.0,0.0,0.0,0.0,0.0,0.0,0.0,-3.8387,-3.8762,-4.2364,-4.488,-4.4864,-4.6418,-4.7196,-4.6569,-4.6701,-4.6756,-4.6756,-4.6935,-4.704,-4.704,-4.7204,-4.6995,-4.6352,-4.6785,-4.6561,-4.5589,-4.6546,-4.6636,-4.5843,-4.5469,-4.505,-4.4556,-4.3718,-4.3329,-4.3314,-4.2836,-4.2455,-4.2016,-3.9985,-3.8951,-3.8545,-3.6816,-3.5893,-3.5466,-3.4751,-3.3985,-3.3282,0.0,0.0,0.0,0.0,0.0,0.0,0.0,0.0,0.0,0.0,-1.4126,-1.5498,-1.7302,-1.8108,-1.8807,-1.9407,-1.8854,-1.8566,-1.8555,0.0,0.0,0.0,0.0,-2.1076,-2.295,-2.4731,-2.6328,-2.775,-2.867,-2.9714,-3.0729,-3.0087,-3.0206,-3.0986,-3.0431,-3.0221,-3.0143,-2.9861,-2.9073,-2.802,-2.6781,-2.5561,-2.4287,-2.2382,-2.0922,-1.978,-1.8976,-1.8696,-1.8469,-1.7041,0.0,0.0,0.0,0.0,0.0,0.0,0.0,0.0,0.0,0.0,0.0,0.0,0.0,0.0,0.0,0.0,0.0,0.0,0.0,0.0,0.0,0.0,0.0,0.0,-3.8486,-4.1322,-4.2794,-4.4633,-4.6076,-4.6691,-4.707,-4.7309,-4.7309,-4.7309,-4.7309,-4.7309,-4.7309,-4.7309,-4.7309,-4.7309,-4.713,-4.6741,-4.7115,-4.6935,-4.6142,-4.6636,-4.6501,-4.5723,-4.5155,-4.4691,-4.4287,-4.3629,-4.318,0.0,-4.2521,-4.2108,-4.1513,-4.0146,-3.9031,0.0,0.0,0.0,0.0,0.0,-3.3771,-3.3379,0.0,0.0,0.0,0.0,0.0,0.0,0.0,0.0,0.0,0.0,0.0,-1.4569,-1.5248,-1.5514,-1.5656,-1.5483,-1.5581,-1.5889,0.0,0.0,0.0,-2.146,-2.3435,-2.4963,-2.598,-2.7712,-2.8907,-2.946,-3.0091,-3.0658,-3.119,-3.0559,-3.0266,-3.0244,-3.0031,-2.9433,-2.8579,-2.8497,-2.791,-2.6874,-2.5402,-2.4377,-2.3472,-2.1858,-2.0662,-1.9668,-1.8414,-1.7744,-1.7306,-1.6301,0.0,0.0,0.0,0.0,0.0,0.0,0.0,0.0,0.0,0.0,0.0,0.0,0.0,0.0,0.0,0.0,0.0,0.0,0.0,0.0,0.0,0.0,0.0,0.0,-4.1882,-4.4146,-4.5973,-4.6156,-4.6465,-4.7046,-4.7106,-4.7019,-4.6916,-4.7019,-4.7106,-4.7106,-4.7207,-4.7309,-4.7309,0.0,0.0,0.0,0.0,-4.7189,-4.7189,-4.6531,-4.6172,-4.6082,-4.4885,-4.4272,-4.4182,-4.3599,-4.3015,-4.2476,-4.2387,-4.1765,-4.0813,-4.0651,-3.9326,-3.7253,-3.5925,-3.5115,-3.4512,-3.3533,-3.3429,0.0,0.0,0.0,0.0,0.0,0.0,0.0,0.0,0.0,0.0,-1.3261,-1.3673,-1.4086,-1.4621,-1.4998,-1.4695,-1.3556,-1.4261,-1.5333,0.0,0.0,-2.1408,-2.4169,-2.5553,-2.7434,-3.0061,-3.0074,-3.0334,-3.097,-3.1007,-3.1112,-3.119,-3.0559,-3.0024,-2.9477,-2.867,-2.7939,-2.7258,-2.7026,-2.6288,-2.5284,-2.4941,-2.4735,-2.4397,-2.3159,-2.2023,-2.0959,-2.0686,-2.0124,-1.9298,-1.7995,-1.8512,-1.939,-1.8218,0.0,0.0,0.0,0.0,0.0,0.0,0.0,0.0,0.0,0.0,0.0,0.0,0.0,0.0,0.0,0.0,0.0,0.0,0.0,0.0,-4.0165,-4.3126,-4.506,-4.549,-4.559,-4.5648,-4.5764,-4.5779,-4.5403,-4.4349,-4.5115,-4.5779,-4.5779,-4.6726,-4.7309,-4.7309,-4.7309,0.0,-4.7309,-4.68,-4.6516,-4.6516,-4.5843,-4.5229,-4.4706,0.0,0.0,-4.3524,-4.3389,-4.3269,-4.312,-4.2581,-4.2279,-4.2015,-4.0989,-3.9577,-3.7766,-3.5645,-3.455,-3.4035,-3.3822,-3.357,-3.3217,0.0,0.0,0.0,0.0,0.0,0.0,0.0,0.0,0.0,0.0,-1.4096,-1.4403,-1.4611,-1.5068,-1.4922,-1.3617,-1.4235,0.0,0.0,-1.9888,-2.2262,-2.4631,-2.6969,-2.8927,-3.044,-3.0773,-3.1032,-3.1364,-3.1247,-3.1055,-3.074,-3.0123,-2.9466,-2.8713,-2.7866,-2.6945,-2.6061,-2.5575,-2.4447,-2.2929,-2.2784,-2.2457,-2.1957,-2.2114,-2.148,-2.0331,-1.9879,-1.939,-1.8754,-1.7545,-1.8473,-2.0012,-1.9279,-2.0606,-2.2045,0.0,0.0,0.0,0.0,0.0,0.0,0.0,0.0,0.0,0.0,0.0,0.0,0.0,0.0,-3.1642,0.0,0.0,-3.8033,-4.1199,-4.2969,-4.4028,-4.4408,-4.4442,-4.4442,-4.4442,-4.4442,-4.4163,-4.3598,-4.4069,-4.4734,-4.5312,-4.5973,-4.6638,-4.7309,-4.6995,-4.6815,-4.6815,-4.6157,-4.5813,-4.5813,-4.514,-4.4646,-4.4317,-4.3988,-4.3643,-4.3329,-4.3329,-4.3165,-4.2821,-4.2506,-4.2357,-4.2264,-4.0488,-3.8954,-3.7503,-3.5467,-3.4726,-3.4625,-3.3796,-3.3483,-3.3445,0.0,0.0,0.0,0.0,0.0,0.0,0.0,0.0,0.0,0.0,0.0,-1.4664,-1.4562,-1.5098,-1.51,0.0,0.0,0.0,0.0,-2.043,-2.2711,-2.4641,-2.8127,-3.0233,-3.0812,-3.1351,-3.155,-3.1508,-3.1207,-3.0709,-3.0123,-2.9457,-2.8722,-2.7963,-2.7048,-2.6073,-2.5025,-2.4016,-2.2642,-2.1109,-2.0571,-1.9798,-1.8921,-2.0193,-2.0034,-1.908,-1.8259,-1.7683,-1.7188,-1.6821,-1.811,-2.0137,-2.0806,-2.2896,-2.474,-2.3034,-2.4062,0.0,0.0,0.0,0.0,0.0,0.0,0.0,0.0,0.0,-3.1448,-3.1927,-3.2988,-3.4546,-3.6564,-3.755,-3.8986,-4.1997,-4.2609,-4.2763,-4.3054,-4.3122,-4.3026,-4.2834,-4.3026,-4.3122,-4.3122,-4.3313,-4.4069,-4.5298,-4.5598,-4.6255,-4.7207,-4.6681,-4.6322,-4.6322,-4.5529,-4.517,-4.5289,-4.4511,-4.4182,-4.4302,-4.3643,-4.3329,-4.3329,-4.3329,-4.3045,-4.2551,-4.2551,-4.2551,-4.238,-4.0067,-3.8624,-3.7621,-3.5608,-3.509,-3.5203,-3.3771,-3.352,-3.3822,0.0,0.0,0.0,0.0,0.0,0.0,0.0,0.0,0.0,0.0,0.0,0.0,0.0,0.0,0.0,0.0,0.0,0.0,-1.5636,-1.9004,-2.2494,-2.6019,-2.9082,-3.2004,-3.4804,-3.3162,-3.23,-3.2383,-3.1131,-3.0151,-2.9451,-2.8698,-2.7965,-2.7178,-2.5988,-2.5049,-2.421,-2.2258,-2.145,-2.1351,-1.9904,-1.8709,-1.791,-1.8033,-1.8048,-1.7878,-1.7822,-1.6886,-1.5896,-1.7399,-1.8715,-2.0254,-2.3374,-2.5448,-2.6365,-2.5037,-2.5094,-2.497,-2.1982,-2.3016,-2.5667,-2.8385,-3.0347,-3.2774,0.0,0.0,-3.6713,-3.7872,-3.7771,-3.7642,-3.8463,-3.9598,-4.0895,-4.2271,-4.2954,-4.304,-4.1972,-4.1789,-4.1406,-4.0262,-4.1119,-4.1789,-4.1789,-4.2834,-4.4069,-4.5298,-4.6447,-4.7121,-4.7309,-4.6681,-4.6322,-4.6322,-4.508,-4.4706,-4.5289,-4.4062,-4.3733,-4.4302,-4.3643,-4.3329,-4.3329,-4.3329,-4.3284,-4.3225,-4.3225,-4.3225,-4.3051,-4.0732,-3.9702,-3.9297,-3.6534,-3.519,-3.4726,-3.406,-3.3847,-3.3822,0.0,0.0,0.0,0.0,0.0,0.0,0.0,0.0,0.0,0.0,0.0,0.0,0.0,0.0,0.0,0.0,0.0,0.0,-1.5258,-1.8731,-2.2052,-2.4842,-2.8726,-3.1627,-3.3472,-3.2768,-3.2416,-3.2441,-3.0629,-2.9588,-2.9265,-2.7496,-2.6436,-2.5981,-2.4921,-2.3525,-2.1935,-2.1281,-1.9951,-1.8246,-1.7166,-1.612,-1.5165,-1.4564,-1.4242,-1.4272,-1.4963,-1.4922,0.0,0.0,-1.728,-1.9436,-2.2744,-2.4895,-2.5935,-2.4809,-2.5413,-2.6363,-2.5701,-2.6371,-2.7904,0.0,-3.2621,-3.4615,-3.6544,-3.7169,-3.7505,-3.826,-3.8775,-3.9071,-3.9312,-3.9786,-4.0295,0.0,-4.1063,-4.1132,-4.0554,-4.0453,-4.0147,-3.9347,-4.0253,-4.1136,-4.1565,-4.207,-4.3067,-4.469,-4.5316,-4.5813,-4.6157,-4.5514,-4.5155,-4.5155,-4.4242,-4.3868,-4.4152,-4.3599,-4.3464,-4.3733,-4.3464,-4.3329,-4.3329,-4.3329,-4.3329,-4.3329,-4.3329,-4.29,-4.2208,-4.1253,-3.9923,-3.829,-3.7011,-3.5801,-3.4663,-3.411,-3.3696,-3.3382,0.0,0.0,0.0,0.0,0.0,0.0,0.0,0.0,0.0,0.0,0.0,0.0,0.0,0.0,0.0,0.0,0.0,0.0,0.0,-1.8309,-2.1532,-2.3994,-2.8164,-3.1165,-3.2594,-3.2357,-3.1856,-3.1264,-2.9574,-2.8269,-2.7342,-2.5482,-2.4443,-2.4091,-2.2905,-2.1523,-2.0048,-1.9362,-1.7746,-1.5568,-1.4546,-1.3689,-1.2947,-1.2102,-1.1672,-1.158,-1.2518,-1.3063,0.0,0.0,-1.5799,-1.7995,-2.1427,-2.354,-2.4577,-2.4008,-2.4745,-2.6075,-2.7105,-2.8279,0.0,-3.2093,-3.4776,-3.6754,-3.6909,-3.7766,-3.8501,-3.8479,-3.8943,-3.9298,-3.9272,-3.9358,-3.9471,-3.9471,-3.9597,-3.9697,-3.9697,-3.9854,-3.9791,-3.9384,-4.0213,-4.1285,-4.2247,-4.2248,-4.2813,-4.4501,-4.4647,-4.4892,-4.5505,-4.4766,-4.4392,-4.4586,-4.3778,-4.3329,-4.3329,-4.3329,-4.3329,-4.3329,-4.3329,-4.3329,-4.3329,-4.3329,-4.324,-4.306,-4.306,-4.2539,-4.1753,-4.1223,-3.9704,-3.7752,-3.7241,-3.5991,-3.4449,-3.4048,-3.3646,-3.3282,0.0,0.0,0.0,0.0,0.0,0.0,0.0,0.0,0.0,0.0,0.0,0.0,0.0,0.0,0.0,0.0,0.0,0.0,0.0,-1.7251,-2.109,-2.4195,-2.7678,-3.0937,-3.3873,-3.2414,-3.0556,-2.8384,-2.7815,-2.5843,-2.2674,-2.24,-2.1886,-2.1036,-1.962,-1.9073,-1.9029,-1.5793,-1.4475,-1.4513,-1.2423,-1.1733,-1.1915,-1.1798,-1.1333,-1.0761,-1.1394,0.0,0.0,0.0,-1.4654,-1.5939,-1.9937,-2.1865,-2.2637,-2.2762,-2.2698,-2.2767,-2.3971,-2.6788,-3.011,-3.3162,-3.6914,-3.9968,-4.0562,-4.108,-4.126,-4.0106,-3.8917,-3.8015,-3.8052,-3.8517,-3.8894,-3.8894,-3.9346,-3.9697,-3.9697,-4.0179,-4.0578,-4.0552,-4.114,-4.2203,0.0,-4.3729,-4.3892,-4.5153,-4.5236,-4.552,-4.6247,-4.5035,-4.4601,-4.5244,-4.4003,-4.3329,-4.3329,-4.3329,-4.3329,-4.3329,-4.3329,-4.3329,-4.3329,-4.3329,-4.2985,-4.2387,-4.2387,-4.2387,-4.2249,-4.043,-3.936,-3.8806,-3.7063,-3.5308,-3.3922,-3.3909,-3.3884,-3.3796,0.0,0.0,0.0,0.0,0.0,0.0,0.0,0.0,0.0,0.0,0.0,0.0,0.0,0.0,0.0,0.0,0.0,0.0,0.0,-1.7461,-2.0644,-2.2682,-2.708,-3.0252,-3.18,-3.1004,-2.9676,-2.7882,-2.5581,-2.316,-2.0679,-1.902,-1.7914,-1.734,-1.6177,-1.5752,-1.5746,-1.418,-1.274,-1.1538,-1.0712,-1.061,-1.0863,-0.9541,-0.8489,-0.7595,0.0,0.0,0.0,0.0,0.0,-1.4692,-1.8958,-2.0223,-2.0312,-2.1518,-2.2147,-2.3037,-2.5861,-2.8748,-3.1706,-3.4907,-3.7717,-3.9747,-3.9553,-3.9666,-3.9548,-3.8363,-3.6748,-3.5731,-3.6213,-3.6438,-3.6701,-3.7149,-3.9043,-4.0603,-4.088,-4.191,-4.2249,-4.1461,-4.253,0.0,0.0,0.0,0.0,-4.5206,-4.4885,-4.4556,-4.4347,-4.3913,-4.3763,-4.3988,-4.3569,-4.3329,-4.3329,-4.3329,-4.3329,-4.3329,-4.3329,-4.3329,-4.3329,-4.2895,-4.2806,-4.2955,-4.2087,-4.1953,-4.2312,-4.1225,-4.0008,-3.8762,-3.7799,-3.6209,-3.436,-3.4009,-3.3671,-3.3319,0.0,0.0,0.0,0.0,0.0,0.0,0.0,0.0,0.0,0.0,0.0,0.0,0.0,0.0,0.0,0.0,0.0,0.0,0.0,0.0,-1.9839,-2.1441,-2.5037,-2.7443,-2.832,-2.7566,-2.6372,-2.4557,-2.219,-1.982,-1.7527,-1.6087,-1.5015,-1.4369,-1.3461,-1.3189,-1.3263,-1.1609,-1.0731,-1.0295,-0.8934,-0.8878,-0.9325,-0.7385,-0.6057,0.0,0.0,0.0,0.0,0.0,-1.1384,-1.3674,-1.7314,-1.9234,-2.0272,-2.1001,-2.2505,-2.4548,-2.7382,-3.0027,-3.258,-3.5502,-3.7544,-3.8762,-3.8448,-3.8516,-3.8253,-3.6906,-3.5082,-3.3956,-3.4497,-3.4817,-3.5188,-3.5634,-3.8096,-4.0321,-4.1111,-4.2052,-4.2712,-4.2677,-4.3904,-4.4515,0.0,0.0,0.0,-4.4863,-4.4541,-4.4122,-4.3703,-4.3464,-4.3449,-4.3673,-4.3449,-4.3329,-4.3329,-4.3329,-4.3329,-4.3329,-4.3329,-4.3329,-4.3314,-4.2671,-4.2462,-4.2566,-4.1504,-4.1265,-4.1609,-4.095,-3.9917,-3.8701,-3.7735,-3.628,-3.4634,-3.3878,-3.3382,-3.3081,0.0,0.0,0.0,0.0,0.0,0.0,0.0,0.0,0.0,0.0,0.0,0.0,0.0,0.0,0.0,0.0,0.0,0.0,0.0,0.0,0.0,-2.0541,-2.1767,-2.2853,-2.3718,-2.2633,-2.0978,-1.8825,-1.7709,-1.5878,-1.3277,-1.3497,-1.3025,-1.2075,-1.1196,-1.1064,-1.1272,-0.8232,-0.8468,-1.0481,-0.706,-0.6403,-0.7153,-0.5276,0.0,0.0,0.0,0.0,0.0,0.0,-1.0031,-1.3074,-1.5347,-1.9022,-2.227,-2.1278,-2.3616,-2.6828,-2.8307,-3.0412,-3.2751,-3.4984,-3.6386,-3.7246,-3.7246,-3.7606,-3.7508,-3.5739,-3.3908,-3.2721,0.0,0.0,-3.4297,-3.4524,-3.6905,-3.928,-4.0625,-4.1354,-4.2437,0.0,0.0,0.0,0.0,0.0,0.0,-4.4362,0.0,-4.4272,-4.4317,-4.3688,-4.3614,-4.4242,-4.3658,-4.3329,-4.3329,-4.3329,-4.3329,-4.3329,-4.3329,-4.3314,-4.3254,-4.2611,-4.1968,-4.1339,-4.0651,-4.0367,-4.0352,-3.9694,-3.915,-3.8664,-3.6906,-3.5588,-3.4664,-3.3471,-3.3081,-3.3081,0.0,0.0,0.0,0.0,0.0,0.0,0.0,0.0,0.0,0.0,0.0,0.0,0.0,0.0,0.0,0.0,0.0,0.0,0.0,0.0,0.0,0.0,0.0,0.0,0.0,0.0,0.0,0.0,0.0,-1.2985,-0.9683,-0.9426,-0.8763,-0.7618,-0.7054,-0.6422,-0.5665,-0.6224,-0.6286,-0.5953,0.0,-0.4324,-0.4701,0.0,0.0,0.0,0.0,0.0,0.0,0.0,-1.3272,-1.6963,-1.8197,-1.9621,-2.1024,-2.1828,-2.37,-2.5919,-2.7731,-3.049,-3.3025,-3.4138,-3.5831,-3.7041,-3.6213,-3.6492,-3.6406,-3.4679,-3.2075,-3.0319,-3.1079,0.0,0.0,-3.502,-3.8605,0.0,-4.4894,-4.6211,0.0,-4.6961,0.0,-4.7485,-4.6421,-4.6007,0.0,0.0,-4.4137,-4.3793,-4.4287,-4.3688,-4.3404,-4.3584,-4.3419,-4.3329,-4.3329,-4.3329,-4.3329,-4.3329,-4.3329,-4.3075,-4.2581,-4.1923,-4.1534,-4.1309,-4.0172,-3.9948,-4.0352,-3.9694,-3.9354,-3.9018,-3.6986,-3.6053,-3.5588,-3.3784,-3.3081,-3.3018,0.0,0.0,0.0,0.0,0.0,0.0,0.0,0.0,0.0,0.0,0.0,0.0,0.0,0.0,0.0,0.0,0.0,0.0,0.0,0.0,0.0,0.0,0.0,0.0,0.0,0.0,0.0,0.0,0.0,0.0,0.0,-0.771,-0.6843,-0.6049,-0.5318,-0.4695,-0.4202,-0.5056,0.0,0.0,0.0,0.0,0.0,0.0,0.0,0.0,0.0,0.0,0.0,0.0,0.0,-1.9468,-1.9747,-2.1469,-2.3342,-2.3474,-2.5239,-2.7586,-2.93,-3.1344,-3.3079,-3.3961,-3.4886,-3.5346,-3.419,-3.4053,-3.3746,-3.2143,-2.9584,-2.8087,-2.9537,-3.0356,-3.1793,0.0,0.0,0.0,-4.5391,-4.6342,-4.6997,0.0,-4.7912,0.0,-4.6381,-4.6052,-4.5708,0.0,-4.4347,-4.3793,-4.3883,-4.3524,-4.3329,-4.3329,-4.3329,-4.3329,-4.3329,-4.3329,-4.3329,-4.3329,-4.3329,-4.2985,-4.2419,-4.1683,-4.122,-4.0891,0.0,-3.9634,-3.9948,-3.9574,-3.9013,-3.8209,-3.6535,-3.5576,-3.4914,-3.3046,-3.2491,-3.2616,0.0,0.0,0.0,0.0,0.0,0.0,0.0,0.0,0.0,0.0,-1.6705,0.0,0.0,0.0,0.0,0.0,0.0,0.0,0.0,0.0,0.0,0.0,0.0,0.0,0.0,0.0,0.0,0.0,0.0,0.0,0.0,0.0,0.0,0.0,0.0,0.0,0.0,0.0,0.0,0.0,0.0,0.0,0.0,0.0,0.0,0.0,0.0,0.0,0.0,0.0,-1.8399,-2.1131,-2.0977,-2.362,-2.6618,-2.5587,-2.7448,-3.0074,-3.147,-3.2458,-3.3181,-3.4046,-3.4076,-3.3556,-3.2069,-3.1419,-3.0753,-2.9201,-2.7115,-2.6184,-2.8127,-3.0058,-3.2124,-3.459,0.0,-4.2194,-4.4524,-4.4926,-4.5626,-4.7312,-4.7463,-4.7061,-4.6247,-4.5559,-4.517,-4.517,-4.4556,-4.3973,-4.3494,-4.3389,-4.3329,-4.3329,-4.3329,-4.3284,-4.321,-4.321,-4.321,-4.321,-4.312,-4.2776,-4.2207,-4.1549,-4.0891,-4.0232,0.0,0.0,-3.9424,-3.9424,-3.8458,-3.7022,-3.5927,-3.4787,-3.362,-3.2059,-3.175,-3.2026,0.0,0.0,0.0,0.0,0.0,0.0,0.0,0.0,0.0,0.0,-1.7197,-1.8202,0.0,0.0,0.0,0.0,0.0,0.0,0.0,0.0,0.0,0.0,0.0,0.0,0.0,0.0,0.0,0.0,0.0,0.0,0.0,0.0,0.0,0.0,0.0,0.0,0.0,0.0,0.0,0.0,0.0,0.0,0.0,0.0,0.0,0.0,0.0,0.0,0.0,0.0,-1.9797,-2.2473,-2.3647,-2.4556,-2.5467,-2.6921,-2.8451,-2.9808,-3.0843,-3.2603,-3.4067,-3.3795,-3.4362,-3.4362,-3.177,-3.1091,0.0,-2.7717,-2.6037,-2.5509,-2.7046,-2.8119,-3.0401,-3.553,-3.908,-4.2787,-4.7369,-4.8263,-4.8498,0.0,-4.8019,-4.7109,-4.5612,-4.487,0.0,0.0,0.0,-4.3688,-4.4122,-4.3629,-4.3329,-4.3329,-4.3329,-4.3075,-4.2536,-4.2536,-4.2536,-4.2521,-4.1983,-4.1654,-4.1534,-4.0876,-4.0217,-3.9589,0.0,0.0,-3.9424,-3.9424,-3.8708,-3.758,-3.6465,-3.5113,-3.3673,-3.2492,-3.1838,-3.1461,0.0,0.0,0.0,0.0,0.0,0.0,0.0,-1.4145,-1.4652,-1.4898,-1.6695,-1.8101,-1.8658,-1.9635,-2.0236,0.0,0.0,0.0,0.0,0.0,0.0,0.0,0.0,0.0,0.0,0.0,0.0,-1.3225,0.0,0.0,0.0,0.0,0.0,0.0,0.0,0.0,0.0,0.0,0.0,0.0,0.0,0.0,0.0,0.0,0.0,0.0,0.0,0.0,0.0,0.0,-2.0217,-2.3888,-2.5447,-2.6956,-2.8536,-3.0134,-3.168,-3.3354,-3.5404,-3.6541,-3.7183,-3.7301,-3.7097,-3.5999,-3.2593,0.0,0.0,-2.6289,-2.4925,-2.4657,-2.6357,-2.814,-3.0715,-3.4632,-3.8553,-4.2209,-4.551,-4.6985,-4.765,-4.7509,-4.7182,-4.644,-4.4967,-4.4496,-4.4167,0.0,0.0,-4.3464,-4.3778,-4.3509,-4.3329,-4.3329,-4.3015,-4.2671,-4.2357,-4.2013,-4.1848,-4.1848,-4.1534,-4.1205,-4.0861,-4.0546,-4.0038,-3.9424,-3.9424,0.0,-3.8916,-3.9275,-3.7872,-3.561,-3.5391,-3.4001,-3.2024,-3.1208,-3.0972,-3.0909,0.0,0.0,0.0,0.0,0.0,0.0,0.0,-1.3443,-1.395,-1.3974,-1.5912,-1.7574,-1.8293,-1.9374,-2.0102,0.0,0.0,0.0,0.0,0.0,0.0,0.0,0.0,0.0,0.0,0.0,0.0,-1.446,-1.344,0.0,0.0,0.0,0.0,0.0,0.0,0.0,0.0,0.0,0.0,0.0,0.0,0.0,0.0,0.0,0.0,0.0,0.0,0.0,0.0,0.0,-2.0627,-2.4448,-2.6457,-2.8816,-3.1245,-3.2919,-3.4644,-3.6694,-4.0203,-4.0911,-4.0871,-4.1637,-4.0461,-3.8144,-3.4105,-3.114,-2.8412,-2.5446,-2.4316,-2.4389,-2.6055,-2.8344,-3.0786,0.0,-3.7243,-4.074,-4.3,-4.4719,-4.5898,-4.6247,-4.6187,0.0,-4.4242,-4.4107,0.0,0.0,0.0,0.0,-4.3329,-4.3329,-4.3329,-4.3329,-4.2836,-4.2506,-4.2357,-4.1713,-4.1384,-4.1384,-4.11,-4.0771,-4.0397,-4.0247,-3.9903,-3.9424,-3.9424,0.0,0.0,-3.8975,-3.7041,-3.3813,-3.4325,-3.2965,-3.057,-3.0131,-3.0168,-3.0382,0.0,0.0,0.0,0.0,0.0,0.0,0.0,-1.2735,-1.3405,-1.4065,-1.5353,-1.6688,-1.7977,-1.901,-1.9806,0.0,0.0,0.0,0.0,0.0,0.0,0.0,0.0,0.0,0.0,0.0,0.0,-1.5913,-1.5155,0.0,0.0,0.0,0.0,0.0,0.0,-1.1903,0.0,0.0,0.0,0.0,0.0,0.0,0.0,0.0,0.0,0.0,0.0,0.0,0.0,0.0,0.0,-2.2813,-2.6592,-2.8609,-3.0199,-3.3285,0.0,0.0,-4.164,-4.3404,-4.4051,-4.4873,-4.3348,-4.0585,-3.67,0.0,-3.0234,-2.5948,-2.5027,-2.5205,-2.6076,-2.7165,-2.9063,-3.2302,-3.4805,-3.8,-4.2614,-4.3823,-4.4756,-4.6107,0.0,0.0,-4.3554,-4.3419,0.0,0.0,0.0,0.0,-4.3329,-4.3329,-4.3329,-4.3329,-4.3284,-4.2955,-4.2372,-4.1713,-4.1384,-4.1369,-4.0172,-3.9888,-4.0382,-3.9783,-3.9484,-3.9424,0.0,0.0,0.0,-3.8467,-3.6866,-3.4319,-3.4375,-3.2861,-3.0608,-3.0557,-3.0256,-2.9867,0.0,0.0,0.0,0.0,0.0,0.0,-1.0982,-1.1914,-1.2755,-1.3437,-1.5397,-1.6921,-1.7533,-1.8517,-1.9455,-2.0366,0.0,0.0,0.0,0.0,0.0,0.0,0.0,0.0,0.0,0.0,0.0,-1.6064,-1.5211,0.0,0.0,0.0,0.0,0.0,0.0,-1.2673,-1.2077,0.0,0.0,0.0,0.0,0.0,0.0,0.0,0.0,0.0,0.0,0.0,-1.7445,-2.0546,0.0,0.0,-2.5633,-2.7683,0.0,0.0,-3.7199,-3.9789,-4.5122,-4.6851,-4.7272,-4.7947,-4.5669,-4.228,-3.8116,0.0,-3.0735,-2.6921,-2.6235,-2.6488,-2.698,-2.7936,-2.9226,-3.1094,-3.3357,0.0,-3.8877,-4.0527,-4.2028,-4.3753,-4.3703,0.0,0.0,0.0,0.0,0.0,0.0,0.0,-4.2776,-4.312,-4.3329,-4.3329,-4.2955,-4.2432,-4.1773,-4.1115,-4.0591,-4.0187,-3.9664,-3.9559,-3.9798,-3.9544,-3.9185,-3.8796,0.0,0.0,0.0,-3.7407,-3.5683,-3.2556,-3.3564,-3.2342,-3.0118,-3.0118,-2.998,-2.9792,0.0,0.0,0.0,0.0,0.0,-0.9328,-1.0223,-1.1199,-1.2202,-1.3291,-1.5341,-1.6967,-1.7621,-1.8456,-1.9298,-2.0293,-1.9697,0.0,0.0,0.0,0.0,0.0,0.0,0.0,0.0,0.0,0.0,-1.5718,-1.4664,-1.4037,0.0,0.0,-1.3269,-1.2826,0.0,0.0,0.0,0.0,0.0,0.0,0.0,0.0,0.0,0.0,0.0,0.0,0.0,0.0,0.0,0.0,0.0,0.0,0.0,0.0,0.0,0.0,-3.7936,-4.123,-4.6639,-4.8692,-4.9485,-5.0093,-4.6962,-4.2845,-3.9361,0.0,-3.1019,-2.7989,-2.7575,-2.7732,-2.7985,-2.8691,-2.9546,-3.0343,0.0,-3.4345,-3.634,-3.8084,-3.9832,-4.1701,0.0,-4.1878,0.0,0.0,0.0,0.0,0.0,0.0,0.0,-4.2791,-4.2955,-4.2761,-4.2312,-4.1848,-4.1384,-4.0726,-4.0172,-3.9709,-3.9514,-3.932,-3.911,-3.911,-3.8751,-3.8093,0.0,0.0,0.0,-3.6335,-3.4696,-3.1723,-3.2568,-3.1625,-2.9792,-2.9792,-2.9792,-2.9792,0.0,0.0,0.0,0.0,0.0,0.0,-0.985,-1.0773,-1.1947,-1.3882,-1.5118,-1.6501,-1.8352,-1.9002,-1.9505,-1.9981,-1.858,0.0,0.0,0.0,0.0,0.0,0.0,0.0,0.0,0.0,0.0,-1.4699,-1.3576,-1.2969,-1.2844,-1.2641,-1.2359,-1.2003,0.0,0.0,0.0,0.0,0.0,0.0,0.0,0.0,0.0,0.0,0.0,0.0,0.0,0.0,0.0,0.0,0.0,0.0,0.0,0.0,0.0,0.0,-3.6257,-4.0038,-4.523,-4.834,-5.027,-5.1031,-4.6855,-4.2201,-4.0722,-3.5905,-3.117,-2.9154,-2.8776,-2.8789,-2.8789,-2.9044,-2.9498,-3.019,-3.1408,0.0,-3.6139,-3.7352,-3.8652,0.0,0.0,-4.0249,0.0,0.0,0.0,0.0,0.0,0.0,0.0,-4.2372,-4.2073,-4.1414,-4.1384,-4.1384,-4.1384,-4.0726,-4.0397,-4.0382,-3.9723,-3.9065,-3.8407,-3.8407,-3.8033,0.0,0.0,0.0,0.0,-3.5423,-3.4086,-3.2464,-3.1609,-3.0633,-2.9792,-2.9792,-2.9792,-2.9792,0.0,0.0,0.0,0.0,0.0,0.0,0.0,-1.0773,-1.2174,-1.3639,-1.5116,-1.6264,-1.6838,-1.7189,-1.7216,-1.6758,-1.7815,0.0,0.0,0.0,0.0,0.0,0.0,0.0,0.0,0.0,-1.3977,-1.4062,-1.2933,-1.2587,-1.2826,-1.242,-1.2152,-1.2056,-1.2094,0.0,0.0,0.0,0.0,0.0,0.0,0.0,0.0,0.0,0.0,0.0,0.0,0.0,0.0,0.0,0.0,0.0,0.0,0.0,0.0,-3.1914,-3.4239,-3.6756,-4.0768,-4.3132,-4.461,-4.5338,-4.2469,-3.9044,-3.7494,-3.4303,-3.1112,-2.9275,-2.9293,-2.9713,-2.9713,-2.9822,-3.0319,-3.1498,-3.1474,-3.2188,0.0,0.0,0.0,-4.0142,-4.1978,-4.2663,0.0,0.0,0.0,0.0,0.0,0.0,0.0,-4.1265,-4.113,-4.1369,-4.1384,-4.116,-4.0711,-4.0502,-4.0172,-3.9723,-3.9035,-3.8601,-3.8377,-3.7928,0.0,0.0,0.0,0.0,0.0,-3.4466,-3.3269,-3.1609,-3.1315,-3.062,-2.9792,-2.9792,-2.9792,-2.9792,0.0,0.0,0.0,0.0,0.0,0.0,0.0,-1.108,-1.232,-1.3657,-1.4643,-1.5317,-1.5377,-1.5047,-1.4647,-1.4148,-1.5205,0.0,0.0,0.0,0.0,0.0,0.0,0.0,0.0,-1.33,-1.2875,-1.296,-1.2188,-1.2141,-1.2548,-1.2263,-1.2214,-1.2201,-1.2254,0.0,0.0,0.0,0.0,0.0,0.0,0.0,-1.5261,0.0,0.0,0.0,0.0,0.0,0.0,0.0,0.0,0.0,0.0,0.0,0.0,0.0,-3.2494,-3.4314,-3.7942,-4.0132,-4.1537,-4.1978,-3.9542,0.0,-3.5745,-3.3216,-3.0715,-2.9611,-2.9765,-3.0111,-3.0111,-3.0219,-3.0502,-3.1258,-3.1401,-3.2097,0.0,0.0,0.0,-3.9156,0.0,0.0,0.0,0.0,0.0,0.0,0.0,0.0,0.0,-4.0621,-4.0472,-4.0636,-4.0651,-4.0442,-4.0038,-4.0023,-3.9828,-3.9409,-3.899,-3.8512,-3.8003,-3.7599,0.0,0.0,0.0,0.0,0.0,-3.3602,-3.2593,-3.118,-3.0833,-3.0279,-2.9792,-2.9792,-2.9792,-2.9792,0.0,0.0,0.0,0.0,0.0,0.0,0.0,-1.1553,-1.2466,-1.3726,-1.3691,-1.3656,-1.3928,-1.2687,-1.193,-1.2026,0.0,0.0,0.0,0.0,0.0,0.0,0.0,0.0,0.0,-1.2186,-1.1843,-1.1671,-1.1365,-1.1505,-1.2005,-1.2158,-1.2283,-1.2277,-1.2797,0.0,0.0,0.0,0.0,0.0,0.0,0.0,0.0,0.0,0.0,0.0,0.0,0.0,0.0,0.0,0.0,0.0,0.0,0.0,0.0,0.0,0.0,0.0,0.0,-3.8792,-4.0295,-4.018,-3.7762,-3.5315,-3.5189,-3.2652,0.0,-3.0165,-3.0111,-3.0111,-3.0111,-3.0219,-3.0205,-2.9927,-3.1265,-3.2666,0.0,-3.5349,0.0,0.0,0.0,0.0,0.0,0.0,0.0,0.0,0.0,0.0,0.0,-4.0352,-4.0053,-3.9439,-3.9424,-3.9424,-3.9424,-3.9424,-3.9424,-3.9424,-3.9364,-3.8661,-3.7404,-3.736,0.0,0.0,0.0,0.0,0.0,-3.2961,-3.2033,-3.1106,-3.0139,-2.9792,-2.9792,-2.9792,-2.9792,-2.9792,0.0,0.0,0.0,0.0,0.0,0.0,0.0,0.0,0.0,0.0,-1.2289,-1.1847,-1.1351,-1.0331,-0.9526,0.0,0.0,0.0,0.0,0.0,0.0,0.0,0.0,0.0,0.0,-1.1322,-1.1154,-1.1671,-1.1101,-1.1246,-1.2008,-1.1927,-1.1817,-1.1805,-1.1607,0.0,0.0,0.0,0.0,0.0,0.0,0.0,0.0,0.0,0.0,0.0,-2.6569,-2.7811,0.0,0.0,0.0,0.0,0.0,0.0,0.0,0.0,-3.2682,-3.3002,-3.3899,0.0,-3.4747,-3.4747,-3.3912,-3.3073,0.0,-3.1992,-3.107,-3.0598,0.0,0.0,-3.0326,-3.0387,-3.0606,-3.0883,-3.1135,-3.2118,-3.4297,0.0,0.0,-3.94,0.0,0.0,0.0,0.0,0.0,0.0,0.0,0.0,0.0,-3.9918,-3.9574,-3.9424,-3.9424,-3.9424,-3.9424,-3.9424,-3.9424,-3.9409,-3.8886,-3.8197,-3.7389,-3.6926,0.0,0.0,0.0,0.0,-3.3945,-3.2961,-3.2033,-3.1106,-3.0139,-2.9792,-2.9792,-2.9792,-2.9792,-2.9792,0.0,0.0,0.0,0.0,0.0,0.0,0.0,0.0,0.0,0.0,0.0,-1.0321,-0.9405,-0.8231,0.0,0.0,0.0,0.0,0.0,0.0,0.0,0.0,0.0,0.0,-1.1241,-1.0809,-1.0722,-1.1068,-1.0982,-1.1241,-1.1843,-1.1968,-1.1989,-1.1977,-1.1316,0.0,0.0,0.0,0.0,0.0,-1.6426,0.0,0.0,0.0,0.0,0.0,-2.6967,-2.8197,0.0,-3.0499,-3.1452,-3.1966,0.0,0.0,0.0,0.0,-3.315,-3.3203,-3.3203,-3.3096,-3.3005,-3.2912,-3.2773,-3.2539,-3.2109,-3.1868,-3.1509,-3.0821,0.0,0.0,0.0,-3.0893,-3.1141,-3.0849,-3.1946,0.0,0.0,0.0,0.0,0.0,0.0,0.0,0.0,0.0,0.0,0.0,0.0,0.0,0.0,-3.9619,-3.9424,-3.9424,-3.9424,-3.9424,-3.9424,-3.9424,-3.9424,-3.9409,-3.8721,-3.8048,-3.7389,-3.6776,0.0,0.0,0.0,0.0,-3.3945,-3.2961,-3.2033,-3.1106,-3.0139,-2.9792,-2.9792,-2.9792,-2.9792,-2.9792,0.0,0.0,0.0,0.0,0.0,0.0,0.0,0.0,0.0,0.0,0.0,0.0,0.0,0.0,0.0,0.0,0.0,0.0,0.0,0.0,0.0,0.0,0.0,-1.1,-1.0196,-1.0312,-1.0331,-1.0245,-1.088,-1.1413,-1.1671,-1.2106,-1.226,-1.2122,-1.1199,-1.1249,0.0,0.0,0.0,0.0,-1.7755,0.0,0.0,0.0,0.0,0.0,0.0,0.0,0.0,-3.0761,-3.1682,-3.2247,-3.2398,0.0,0.0,0.0,0.0,0.0,-3.3309,-3.353,-3.3597,-3.3083,-3.2951,-3.2827,-3.2206,-3.2053,-3.1811,-3.0999,0.0,0.0,0.0,-3.1302,0.0,0.0,0.0,0.0,-3.6691,-3.7076,0.0,0.0,0.0,0.0,0.0,0.0,0.0,0.0,0.0,0.0,0.0,-3.9364,-3.9424,-3.9424,-3.9424,-3.9424,-3.9424,-3.9424,-3.9364,-3.926,-3.8781,-3.8093,-3.7255,-3.6821,-3.6207,0.0,0.0,0.0,-3.3739,-3.2749,-3.1815,-3.0895,-3.0139,-2.9792,-2.9792,-2.9792,-2.9792,-2.9792,0.0,0.0,0.0,0.0,0.0,0.0,0.0,0.0,0.0,0.0,0.0,0.0,0.0,0.0,0.0,0.0,0.0,0.0,0.0,0.0,0.0,0.0,-0.9611,-0.9611,-0.9422,-0.9517,-0.9696,-1.003,-1.055,-1.1073,-1.1671,-1.1757,-1.1481,-1.0947,-1.0208,-1.0668,-1.1992,-1.256,-1.4371,-1.706,-1.8813,0.0,0.0,0.0,0.0,0.0,0.0,0.0,0.0,-3.0851,-3.1682,-3.2247,-3.2492,0.0,0.0,0.0,0.0,0.0,-3.3309,-3.4883,-3.6011,-3.3789,-3.3293,-3.324,-3.2508,-3.2247,-3.1981,-3.119,0.0,0.0,0.0,-3.1128,-3.0906,0.0,0.0,0.0,0.0,0.0,0.0,0.0,0.0,0.0,0.0,0.0,0.0,0.0,0.0,0.0,0.0,0.0,-3.9424,-3.9424,-3.9424,-3.9424,-3.9424,-3.9424,-3.9125,-3.8556,-3.9035,-3.8332,-3.6641,-3.7075,-3.6626,0.0,0.0,-3.3671,-3.2749,-3.1815,-3.0833,-2.9998,-2.9869,-2.9792,-2.9792,-2.9792,-2.9792,-2.9792,0.0,0.0,0.0,0.0,0.0,0.0,0.0,0.0,0.0,0.0,0.0,0.0,0.0,0.0,0.0,0.0,0.0,0.0,0.0,0.0,0.0,0.0,-0.8487,-0.8574,-0.8832,-0.9029,-0.9052,-0.9052,-0.9847,-1.0467,-1.0722,-1.1165,-1.1064,-1.0465,-1.0508,-1.1178,-1.237,-1.3715,-1.5745,-1.8202,0.0,0.0,0.0,0.0,0.0,0.0,0.0,0.0,0.0,0.0,-3.1781,-3.2247,-3.2633,0.0,0.0,0.0,0.0,0.0,-3.3309,-3.4255,-3.5112,-3.4738,-3.5733,-3.6611,-3.5615,0.0,0.0,0.0,0.0,0.0,0.0,0.0,-3.2901,-3.5362,0.0,0.0,0.0,0.0,0.0,0.0,0.0,0.0,0.0,0.0,0.0,0.0,0.0,0.0,0.0,0.0,-3.8856,-3.8856,-3.8512,-3.8332,-3.8332,-3.8332,-3.8542,-3.8945,-3.8527,-3.7853,-3.6971,-3.6567,-3.6058,-3.5424,0.0,-3.3739,-3.3241,-3.1815,-3.097,-3.0482,-2.9998,-2.9792,-2.9792,-2.9792,-2.9792,-2.9792,0.0,0.0,0.0,0.0,0.0,0.0,0.0,0.0,0.0,0.0,0.0,0.0,0.0,0.0,0.0,0.0,0.0,0.0,0.0,0.0,-0.826,-0.7668,-0.7701,-0.7849,-0.8028,-0.8455,-0.8514,-0.8349,-0.9309,-1.0041,-1.0436,-1.0958,-1.1122,-1.0871,-1.1272,-1.2106,-1.3331,-1.5155,-1.7265,-1.9469,0.0,0.0,0.0,0.0,0.0,0.0,0.0,0.0,0.0,0.0,0.0,0.0,0.0,0.0,0.0,-3.3256,-3.3309,-3.3309,-3.3309,-3.3763,-3.4539,-3.5661,-3.7134,-3.8308,0.0,0.0,0.0,0.0,0.0,0.0,0.0,-3.3074,0.0,-3.7341,0.0,0.0,0.0,0.0,0.0,0.0,0.0,0.0,0.0,0.0,0.0,0.0,0.0,0.0,0.0,0.0,-3.8471,-3.8094,-3.7604,-3.7193,-3.7099,-3.7099,-3.763,-3.8721,-3.7838,-3.7255,-3.6941,-3.6103,-3.5654,-3.5424,-3.4461,-3.3876,-3.3518,-3.1888,-3.1031,-3.0833,-3.0075,-2.9792,-2.9792,-2.9792,-2.9792,-2.9792,0.0,0.0,0.0,0.0,0.0,0.0,0.0,0.0,0.0,0.0,0.0,0.0,0.0,0.0,0.0,0.0,0.0,0.0,0.0,0.0,-0.7849,-0.7266,-0.733,-0.7349,-0.7129,-0.7539,-0.803,-0.8524,-0.9148,-1.0324,-1.1962,-1.197,-1.212,-1.2499,-1.2289,-1.3362,-1.5246,-1.6581,-1.8536,-2.0882,-2.2232,0.0,0.0,0.0,0.0,0.0,0.0,0.0,0.0,0.0,0.0,0.0,0.0,0.0,-3.2951,-3.3203,-3.3309,-3.3309,-3.3309,-3.4918,-3.6499,-3.6368,-3.5372,0.0,-3.812,-3.7246,0.0,-3.757,0.0,0.0,0.0,-3.4254,-3.4248,-3.454,0.0,0.0,0.0,0.0,0.0,0.0,0.0,0.0,0.0,0.0,0.0,0.0,0.0,0.0,0.0,0.0,0.0,-3.7142,-3.707,-3.6751,-3.6128,-3.6128,-3.6347,-3.6701,-3.718,-3.6791,-3.5654,-3.6178,-3.6088,-3.5424,-3.4461,-3.3518,-3.2593,-3.1609,-3.0696,-2.9856,-2.9869,-2.9792,-2.9792,-2.9792,-2.9792,-2.9792,0.0,0.0,0.0,0.0,0.0,0.0,0.0,0.0,0.0,0.0,0.0,0.0,0.0,0.0,0.0,0.0,0.0,0.0,0.0,0.0,-0.6304,-0.5855,-0.6231,-0.6163,-0.5794,-0.6505,-0.7018,-0.7224,-0.9547,-1.1246,-1.2294,-1.3045,-1.3452,-1.3546,-1.4251,-1.5434,-1.7015,-1.8873,-2.0705,-2.2421,-2.3641,-2.4246,0.0,0.0,0.0,0.0,0.0,0.0,0.0,0.0,-3.1058,-3.1652,-3.2563,-3.292,-3.3096,-3.345,-3.3201,-3.2748,-3.2593,-3.3738,-3.5039,-3.5385,-3.5324,0.0,0.0,-3.9508,-3.8355,-3.7361,-3.6561,0.0,0.0,0.0,-3.5631,0.0,0.0,0.0,0.0,0.0,0.0,0.0,0.0,0.0,0.0,0.0,0.0,0.0,0.0,0.0,0.0,0.0,0.0,-3.636,-3.4995,-3.4112,-3.3859,-3.3859,-3.4255,-3.4976,-3.6223,-3.6582,-3.6118,-3.5953,-3.5744,-3.5424,-3.3822,-3.2961,-3.2464,-3.0983,-3.0139,-2.9792,-2.9792,-2.9792,-2.9792,-2.9792,-2.9792,-2.9792,0.0,0.0,0.0,0.0,0.0,0.0,0.0,0.0,0.0,0.0,0.0,0.0,0.0,0.0,0.0,0.0,0.0,0.0,0.0,-0.5699,-0.5392,-0.5082,-0.5518,-0.5552,-0.4984,-0.5806,-0.6405,-0.6585,-0.9854,-1.1958,-1.2946,-1.3911,-1.4608,-1.5102,-1.611,-1.7418,-1.8872,-2.1079,-2.2617,-2.3758,-2.4881,-2.5322,0.0,0.0,0.0,0.0,0.0,0.0,0.0,0.0,-3.0689,-3.1349,-3.2312,-3.285,-3.3102,-3.3232,-3.3137,-3.2902,-3.2473,-3.2952,-3.3829,-3.4957,0.0,0.0,-3.9787,-3.9978,-3.9325,-3.8572,-3.7105,-3.5398,-3.3602,0.0,0.0,0.0,0.0,0.0,0.0,0.0,0.0,0.0,0.0,0.0,0.0,0.0,0.0,0.0,0.0,0.0,0.0,0.0,0.0,0.0,-3.347,-3.2368,-3.2177,-3.2177,-3.2593,-3.3602,-3.4996,-3.5867,-3.6163,-3.5714,-3.5504,-3.5439,-3.3754,-3.289,-3.2464,-3.0921,-3.0075,-2.9792,-2.9792,-2.9792,-2.9792,-2.9792,-2.9792,-2.9792,0.0,0.0,0.0,0.0,0.0,0.0,0.0,0.0,0.0,0.0,0.0,0.0,0.0,0.0,0.0,0.0,0.0,0.0,0.0,-0.5321,-0.5321,-0.5321,-0.5598,-0.5508,-0.4869,-0.5507,-0.6189,-0.6728,-0.9966,-1.2494,-1.4065,-1.4494,-1.5643,-1.735,-1.77,-1.8947,-2.0864,-2.3087,-2.4208,-2.474,-2.5928,-2.6082,-2.5676,0.0,0.0,0.0,0.0,0.0,0.0,0.0,-3.0404,-3.1291,-3.2007,-3.2594,-3.3024,-3.2558,-3.3145,-3.3842,-3.313,-3.2962,-3.3469,-3.5379,0.0,0.0,-3.8092,-3.8107,-3.8644,-4.1861,-3.8116,-3.4071,-3.3224,0.0,0.0,0.0,0.0,0.0,0.0,0.0,0.0,0.0,0.0,0.0,0.0,0.0,0.0,0.0,0.0,0.0,0.0,0.0,0.0,0.0,-3.2643,0.0,-3.118,-3.118,-3.1669,-3.2593,-3.3518,-3.4543,-3.5504,-3.5504,-3.5504,-3.5424,-3.4394,-3.3449,-3.2522,-3.1609,-3.062,-2.9792,-2.9792,-2.9792,-2.9792,-2.9792,-2.9792,-2.9792,0.0,0.0,0.0,0.0,0.0,0.0,0.0,0.0,0.0,0.0,0.0,0.0,0.0,0.0,0.0,0.0,0.0,0.0,0.0,-0.5547,-0.5625,-0.5935,-0.6152,-0.6151,-0.591,-0.6843,-0.7606,-0.8251,-1.0756,-1.2672,-1.413,-1.5205,-1.648,-1.7839,-1.9184,-2.0487,-2.1743,-2.3999,-2.4998,-2.5165,-2.6227,-2.644,-2.6245,0.0,0.0,0.0,0.0,0.0,0.0,0.0,0.0,0.0,-3.1807,-3.2563,-3.2971,-3.2388,-3.2069,-3.1643,-3.051,-3.1555,0.0,-3.3412,0.0,0.0,0.0,-3.8275,0.0,0.0,-3.5253,-3.2656,-3.2793,0.0,0.0,0.0,0.0,0.0,0.0,0.0,0.0,0.0,0.0,0.0,0.0,0.0,0.0,0.0,0.0,0.0,0.0,0.0,0.0,0.0,-3.2226,0.0,-3.0203,-3.0216,-3.0696,-3.1609,-3.2593,-3.3533,-3.4461,-3.5213,-3.5504,-3.5439,-3.3754,-3.289,-3.2464,-3.0846,-3.0075,-2.9792,-2.9792,-2.9792,-2.9792,-2.9792,-2.9792,-2.9767,0.0,0.0,0.0,0.0,0.0,0.0,0.0,0.0,0.0,0.0,0.0,0.0,0.0,0.0,0.0,0.0,0.0,0.0,0.0,0.0,-0.6468,-0.7084,-0.6954,-0.6911,-0.72,-0.8061,-0.8963,-1.0005,-1.1679,-1.3169,-1.4559,-1.6095,-1.7449,-1.8683,-2.0315,-2.1745,-2.2967,-2.4876,-2.5716,-2.5804,-2.6564,-2.6714,-2.6533,0.0,0.0,0.0,0.0,0.0,0.0,0.0,0.0,0.0,-3.1334,-3.2033,-3.2555,-3.2282,-3.2198,-3.1983,-3.1219,-3.2428,0.0,-3.4322,-3.6447,-3.8275,-3.7839,0.0,0.0,0.0,-3.3876,-3.2142,-3.2865,0.0,0.0,0.0,0.0,0.0,0.0,0.0,0.0,0.0,0.0,0.0,0.0,0.0,0.0,0.0,0.0,0.0,0.0,0.0,0.0,0.0,-3.193,0.0,-2.9792,-2.9792,-3.0075,-3.062,-3.1609,-3.2522,-3.3518,-3.4854,-3.5504,-3.5359,-3.3463,-3.2177,-3.1415,-3.0292,-2.9792,-2.9792,-2.9792,-2.9792,-2.9767,-2.9528,-2.9451,-2.9397,0.0,0.0,0.0,0.0,0.0,0.0,0.0,0.0,0.0,0.0,0.0,0.0,0.0,0.0,0.0,0.0,0.0,0.0,0.0,0.0,-0.7698,-0.8533,-0.8012,-0.7952,-0.8466,-0.9232,-1.0347,-1.1809,-1.2583,-1.3698,-1.5137,-1.687,-1.8407,-1.9678,-2.1125,-2.2627,-2.4192,-2.5475,-2.622,-2.6465,-2.6973,-2.6863,-2.6527,-2.6477,0.0,0.0,0.0,0.0,0.0,0.0,0.0,0.0,-3.0584,-3.1291,-3.1921,-3.2028,-3.2856,-3.3682,-3.3727,-3.4542,-3.5699,-3.6775,-3.7649,0.0,-3.6758,-3.6784,-3.6791,-3.5587,0.0,-3.217,0.0,0.0,0.0,0.0,0.0,0.0,0.0,0.0,0.0,0.0,0.0,0.0,0.0,0.0,0.0,0.0,0.0,0.0,0.0,0.0,0.0,0.0,0.0,0.0,-2.9792,-2.9792,-2.9792,0.0,-3.0758,-3.1669,-3.2522,-3.4476,-3.5294,-3.5133,-3.3255,-3.1476,-2.9792,-2.9792,-2.9792,-2.9792,-2.9792,-2.9767,-2.9654,-2.9114,-2.8886,-2.8892,0.0,0.0,0.0,0.0,0.0,0.0,0.0,0.0,0.0,0.0,0.0,0.0,0.0,0.0,0.0,0.0,0.0,0.0,0.0,0.0,-0.9069,-0.9981,-0.9463,-0.9207,-0.9454,-1.0754,-1.1972,-1.3029,-1.2993,-1.3776,-1.5394,-1.6935,-1.847,-1.9904,-2.1497,-2.2798,-2.4032,-2.5241,-2.5816,-2.605,-2.6452,-2.6621,-2.6535,-2.635,-2.6449,0.0,0.0,0.0,0.0,0.0,0.0,0.0,-3.0404,-3.1058,-3.1432,-3.0753,-3.1342,-3.1983,-3.1185,-3.2765,0.0,-3.4665,-3.5703,-3.6791,-3.7056,-3.648,-3.5552,-3.4424,-3.2828,-3.1762,0.0,0.0,0.0,0.0,0.0,0.0,0.0,0.0,0.0,0.0,0.0,0.0,0.0,0.0,0.0,0.0,0.0,0.0,0.0,0.0,0.0,-3.2593,0.0,-3.0758,-2.9792,-2.9792,-2.9792,0.0,-3.0758,-3.1315,-3.1536,-3.3463,-3.3891,-3.3185,-3.2033,-3.0833,-2.9792,-2.9792,-2.9792,-2.9792,-2.9792,-2.9515,-2.9101,-2.8976,-2.8925,-2.8812,0.0,0.0,0.0,0.0,0.0,0.0,0.0,0.0,0.0,0.0,0.0,0.0,0.0,0.0,0.0,0.0,0.0,0.0,0.0,0.0,0.0,-1.1286,-1.149,-1.16,-1.1597,-1.2715,-1.375,-1.4618,-1.4864,-1.5365,-1.6214,-1.798,-1.9335,-2.0372,-2.1973,-2.3249,-2.4459,-2.5336,-2.6069,-2.6672,-2.6887,-2.6976,-2.698,-2.6638,-2.6832,-2.7307,-2.7729,0.0,0.0,0.0,0.0,0.0,0.0,0.0,-3.0703,-3.0703,-3.1057,-3.1379,-3.1337,0.0,0.0,-3.5232,0.0,-3.6184,-3.5889,-3.5441,-3.453,-3.3028,-3.2114,0.0,0.0,0.0,0.0,0.0,0.0,0.0,0.0,0.0,0.0,0.0,0.0,0.0,0.0,0.0,0.0,0.0,0.0,0.0,0.0,-3.1462,-3.1389,-3.1888,-3.1462,-3.0758,-2.9792,-2.9792,-2.9792,-2.9792,-3.0279,-3.0771,-3.1254,-3.2664,-3.282,-3.1888,-3.1389,-3.0696,-2.9792,-2.9792,-2.9792,-2.9767,-2.949,-2.9202,-2.8875,-2.8312,-2.8099,-2.8034,0.0,0.0,0.0,0.0,0.0,0.0,0.0,0.0,0.0,0.0,0.0,0.0,0.0,0.0,0.0,0.0,0.0,0.0,0.0,0.0,0.0,0.0,-1.3395,-1.3929,-1.404,-1.4706,-1.5471,-1.6448,-1.7122,-1.7491,-1.7713,-1.9412,-2.0488,-2.1033,-2.2507,-2.3838,-2.505,-2.5585,-2.6428,-2.736,-2.7372,-2.7421,-2.7344,-2.6935,-2.7247,-2.7977,-2.8388,-2.8711,-2.901,-2.9443,0.0,0.0,0.0,0.0,-2.986,-3.062,-3.0925,-3.1155,-3.1984,0.0,-3.4297,-3.5925,-3.6008,0.0,-3.4161,-3.3982,-3.3569,-3.1828,0.0,0.0,0.0,0.0,0.0,0.0,0.0,0.0,0.0,0.0,0.0,0.0,0.0,0.0,0.0,0.0,0.0,0.0,0.0,0.0,-3.1328,-3.1315,-3.1241,-3.1462,-3.1106,-3.0558,-2.9792,-2.9792,-2.9792,-2.9792,-2.9792,-3.0216,-3.097,-3.1756,-3.1756,-3.118,-3.1044,-3.0482,-2.9792,-2.9792,-2.9792,-2.9729,-2.9151,-2.8825,-2.865,-2.7686,-2.7297,-2.7268,0.0,0.0,0.0,0.0,0.0,0.0,0.0,0.0,0.0,0.0,0.0,0.0,0.0,0.0,0.0,0.0,0.0,0.0,0.0,0.0,0.0,0.0,-1.4392,-1.496,-1.5427,-1.6,-1.6959,-1.822,-1.875,-1.9431,-2.043,-2.0895,-2.1362,-2.1837,-2.3345,-2.4503,-2.5258,-2.5501,-2.5995,-2.6661,-2.6824,-2.6947,-2.7007,-2.6712,-2.7112,-2.7742,-2.8014,-2.86,-2.925,-2.9241,-2.9361,0.0,0.0,0.0,-2.9162,-2.9154,-2.9734,-3.0499,-3.0784,0.0,-3.3067,0.0,-3.3318,-3.2981,0.0,0.0,-3.224,0.0,0.0,0.0,0.0,0.0,0.0,0.0,0.0,0.0,0.0,0.0,0.0,0.0,0.0,0.0,0.0,0.0,0.0,0.0,0.0,0.0,-3.2307,-3.1683,-3.1609,-3.2393,-3.0846,-2.9934,-2.9792,-2.9792,-2.9792,-2.9792,-2.9792,-2.9869,-3.0011,-3.0152,-3.0558,-3.118,-3.0343,-2.9934,-2.9792,-2.9792,-2.9792,-2.9729,-2.9151,-2.8612,-2.8114,-2.7523,-2.7328,-2.7258,0.0,0.0,0.0,0.0,0.0,0.0,0.0,0.0,0.0,0.0,0.0,0.0,0.0,0.0,0.0,0.0,0.0,0.0,0.0,0.0,0.0,-1.5814,-1.6455,-1.7033,-1.7342,-1.7749,-1.8434,-1.957,-1.9761,-2.0292,-2.1265,-2.2152,-2.2524,-2.2442,-2.3801,-2.4766,-2.5395,-2.5791,-2.6334,-2.7073,-2.7164,-2.7463,-2.7731,-2.7191,-2.7542,-2.8324,-2.8402,-2.8637,-2.8915,-2.9106,-2.895,-2.8778,-2.8641,0.0,0.0,0.0,-2.8746,-2.8983,-2.8852,-2.9757,-3.0659,0.0,-3.098,-3.0901,-3.0603,0.0,-3.0342,0.0,0.0,0.0,0.0,0.0,0.0,0.0,0.0,0.0,0.0,0.0,0.0,0.0,0.0,0.0,0.0,0.0,0.0,0.0,0.0,-3.015,-3.1742,-3.1389,-3.1256,-3.1357,-3.034,-2.9641,-2.9315,-2.9628,-2.9792,-2.9792,-2.9792,-2.9792,-2.9792,-2.9792,-2.9998,-3.0419,-3.0011,-2.9792,-2.9792,-2.9792,-2.9603,-2.9252,-2.8687,-2.8124,-2.7576,-2.7067,-2.6867,-2.6797,0.0,0.0,0.0,0.0,0.0,0.0,0.0,0.0,0.0,0.0,0.0,0.0,0.0,0.0,0.0,0.0,0.0,0.0,0.0,0.0,0.0,-1.7483,-1.8312,-1.8834,-1.8984,-1.9252,-1.9829,-2.0573,-2.0686,-2.1189,-2.1916,-2.3092,-2.3492,-2.331,-2.4341,-2.5048,-2.5418,-2.58,-2.6336,-2.7001,-2.7244,-2.7728,-2.8179,-2.7708,-2.8099,-2.8949,-2.8882,-2.8836,-2.8912,-2.8838,-2.8599,-2.8308,-2.829,-2.8409,0.0,0.0,0.0,-2.7322,0.0,0.0,-2.8292,-2.8453,-2.8588,-2.868,0.0,0.0,0.0,0.0,0.0,0.0,0.0,0.0,0.0,0.0,0.0,0.0,0.0,0.0,0.0,0.0,0.0,0.0,0.0,0.0,0.0,0.0,0.0,-3.0628,-3.1523,-3.1536,-3.1349,-3.1007,-3.0226,-2.9578,-2.9151,-2.9578,-2.9792,-2.9792,-2.9792,-2.9792,-2.9792,-2.9792,-2.9792,-2.9792,-2.9792,-2.9792,-2.9779,-2.9628,-2.9315,-2.8863,-2.816,-2.7657,-2.7256,-2.6678,-2.6533,-2.6533,0.0,0.0,0.0,0.0,0.0,0.0,0.0,0.0,0.0,0.0,0.0,0.0,0.0,0.0,-1.2526,-1.3119,0.0,0.0,0.0,0.0,0.0,-1.8321,-1.91,0.0,-1.9863,-2.025,-2.0818,0.0,0.0,0.0,-2.2989,-2.3531,-2.4039,-2.4426,-2.5389,-2.559,-2.5256,-2.5418,-2.5591,-2.5694,-2.6473,-2.716,-2.7603,-2.8179,-2.8803,-2.9341,-2.8961,-2.9238,-2.9757,-2.862,-2.8334,-2.8362,-2.7841,-2.784,-2.7886,0.0,0.0,0.0,0.0,-2.6023,0.0,-2.5516,-2.5879,0.0,0.0,0.0,0.0,0.0,0.0,0.0,0.0,0.0,0.0,0.0,0.0,0.0,0.0,0.0,0.0,0.0,0.0,0.0,0.0,0.0,0.0,0.0,0.0,-3.2451,-3.2522,-3.2522,-3.2508,-3.2494,-3.0771,-2.9779,-2.9741,-2.9779,-2.9792,-2.9792,-2.9792,-2.9792,-2.9792,-2.9792,-2.9792,-2.9792,-2.9792,-2.9792,-2.9754,-2.9202,-2.895,-2.8825,-2.7745,-2.7297,-2.7201,-2.6703,-2.6533,-2.6533,0.0,0.0,0.0,0.0,0.0,0.0,0.0,0.0,0.0,0.0,0.0,0.0,0.0,-1.3397,-1.4015,-1.4789,-1.5599,0.0,0.0,0.0,0.0,-1.9012,-1.9474,-1.9951,-2.0177,-2.0589,0.0,0.0,0.0,-2.2639,-2.3135,-2.358,-2.3927,-2.409,-2.5031,-2.5368,-2.5206,-2.529,-2.5206,-2.5123,-2.5435,-2.5937,-2.6494,-2.7151,-2.7718,-2.8199,0.0,0.0,0.0,-2.827,0.0,-2.7822,-2.7644,-2.7753,-2.7747,-2.6736,-2.5877,-2.5153,0.0,0.0,0.0,-2.3614,-2.328,-2.3114,-2.3329,-2.33,0.0,0.0,0.0,0.0,0.0,0.0,0.0,0.0,0.0,0.0,0.0,0.0,0.0,0.0,0.0,0.0,0.0,0.0,0.0,0.0,0.0,0.0,-3.3449,-3.2961,-3.2414,-3.2111,-3.0589,-2.9792,-2.9792,-2.9792,-2.9792,-2.9792,-2.9792,-2.9792,-2.9792,-2.9792,-2.9792,-2.9792,-2.9792,-2.9792,-2.9741,-2.9164,-2.8711,-2.8341,-2.7591,-2.7306,-2.7306,-2.708,-2.7205,-2.7519,0.0,0.0,0.0,0.0,0.0,0.0,0.0,0.0,0.0,0.0,0.0,0.0,0.0,0.0,-1.5025,-1.6167,-1.6979,-1.7644,-1.8011,-1.886,-1.948,-1.9714,-2.0198,-2.0528,-2.0617,0.0,0.0,0.0,0.0,0.0,0.0,-2.3406,-2.3667,-2.3841,-2.4433,-2.4777,-2.4714,0.0,0.0,-2.4545,0.0,0.0,-2.583,-2.6565,0.0,0.0,0.0,0.0,0.0,0.0,0.0,0.0,-2.7255,-2.6989,-2.6632,-2.6039,-2.5181,-2.4219,-2.3276,0.0,0.0,0.0,0.0,-2.097,-2.1527,0.0,0.0,0.0,0.0,0.0,0.0,0.0,0.0,0.0,0.0,0.0,0.0,0.0,0.0,0.0,0.0,0.0,0.0,0.0,0.0,0.0,0.0,0.0,-3.3959,-3.338,-3.2625,-3.1591,-3.0439,-2.9792,-2.9792,-2.9792,-2.9792,-2.9792,-2.9792,-2.9792,-2.9792,-2.9792,-2.9792,-2.9792,-2.9792,-2.9664,-2.9462,-2.8862,-2.8335,-2.7776,-2.7452,-2.7281,-2.7281,-2.7281,-2.7632,-2.8109,0.0,0.0,0.0,0.0,0.0,0.0,0.0,0.0,0.0,0.0,0.0,0.0,0.0,0.0,0.0,-1.7108,-1.77,-1.8318,-1.8946,-1.9733,-2.0277,-2.0521,0.0,0.0,0.0,0.0,0.0,0.0,0.0,0.0,0.0,0.0,-2.3309,-2.3754,-2.3754,-2.377,-2.3784,0.0,-2.3784,-2.3867,0.0,-2.4992,-2.5568,0.0,0.0,0.0,-2.6835,-2.758,0.0,-2.7313,0.0,0.0,-2.673,-2.5667,-2.4477,-2.4641,-2.3924,-2.3,0.0,0.0,0.0,0.0,0.0,0.0,-1.9233,0.0,0.0,0.0,0.0,0.0,0.0,0.0,0.0,0.0,0.0,0.0,0.0,0.0,0.0,0.0,0.0,0.0,0.0,0.0,0.0,0.0,0.0,-3.4027,-3.4027,-3.4027,-3.3171,-3.1315,-3.0355,-2.9869,-2.9869,-2.9869,-2.9869,-2.9792,-2.9792,-2.9792,-2.9792,-2.9792,-2.9792,-2.9792,-2.9767,-2.9397,-2.8827,-2.8337,-2.7815,-2.7335,-2.7318,-2.7293,-2.7306,-2.7318,-2.7682,-2.8086,0.0,0.0,0.0,0.0,0.0,0.0,-1.4522,-1.4329,-1.4329,0.0,0.0,0.0,0.0,0.0,-1.8171,-1.8616,-1.8802,-1.9074,-1.9525,-1.9969,-2.0361,-2.068,-2.1117,-2.122,0.0,0.0,0.0,0.0,0.0,0.0,0.0,0.0,0.0,0.0,-2.3144,-2.3163,-2.3305,-2.366,0.0,-2.3142,-2.3458,-2.3527,0.0,0.0,0.0,0.0,0.0,-2.7151,-2.7718,0.0,-2.64,-2.6648,-2.5924,-2.5083,-2.4471,-2.4556,-2.3834,-2.2808,-2.2158,0.0,0.0,0.0,0.0,0.0,0.0,0.0,0.0,0.0,0.0,0.0,0.0,0.0,0.0,0.0,0.0,0.0,0.0,0.0,0.0,0.0,0.0,0.0,0.0,0.0,0.0,0.0,-3.3143,-3.4312,-3.5052,-3.4394,-3.3449,-3.2249,-3.1974,-3.1476,-3.0833,-3.0833,-3.0482,-2.9792,-2.9792,-2.9792,-2.9792,-2.9792,-2.9792,-2.9767,-2.9353,-2.881,-2.8297,-2.8176,-2.778,-2.7284,-2.7281,-2.7523,-2.7921,-2.8323,-2.8837,-2.9327,0.0,0.0,0.0,0.0,0.0,0.0,-1.4963,-1.4816,-1.477,0.0,0.0,0.0,0.0,0.0,-1.9239,-1.9401,-1.941,-1.9644,-2.0236,-2.0419,-2.0766,-2.1188,-2.1465,-2.1474,-2.1388,0.0,0.0,0.0,0.0,0.0,0.0,0.0,0.0,0.0,0.0,0.0,0.0,0.0,0.0,0.0,-2.2969,0.0,0.0,-2.3973,-2.4553,0.0,0.0,0.0,-2.6894,-2.5808,-2.5641,0.0,0.0,-2.4079,-2.3734,-2.3541,-2.2939,-2.2198,-2.1404,-2.0839,-2.0278,-1.9615,0.0,0.0,-1.8047,-1.7507,0.0,0.0,0.0,0.0,0.0,0.0,0.0,0.0,0.0,0.0,0.0,0.0,0.0,0.0,0.0,0.0,0.0,0.0,0.0,-3.3017,-3.4109,-3.4905,-3.5439,-3.4192,-3.331,-3.3171,-3.2046,-3.1328,-3.118,-3.0833,-3.0343,-2.9792,-2.9792,-2.9792,-2.9792,-2.9792,-2.9792,-2.9754,-2.9152,-2.8612,-2.8114,-2.7833,-2.7487,-2.6967,-2.724,-2.7607,-2.8138,-2.8424,-2.9101,-2.9754,0.0,0.0,0.0,-1.5444,-1.5231,-1.5064,-1.5064,-1.5064,-1.5064,0.0,0.0,0.0,0.0,0.0,0.0,0.0,-1.9872,-2.026,-2.0979,-2.1032,-2.132,-2.1651,-2.1919,-2.1919,-2.1741,-2.1919,0.0,0.0,0.0,0.0,0.0,0.0,0.0,0.0,0.0,0.0,0.0,0.0,0.0,-2.2938,-2.2938,-2.2909,0.0,0.0,-2.411,-2.4542,-2.3907,-2.4829,-2.6141,-2.5126,-2.4702,0.0,0.0,0.0,0.0,0.0,-2.1784,-2.1346,-2.0474,-2.0105,-1.9851,-1.9185,-1.858,0.0,-1.7379,-1.7007,-1.6707,0.0,0.0,0.0,0.0,0.0,0.0,0.0,0.0,0.0,0.0,0.0,0.0,0.0,0.0,0.0,0.0,-3.1094,-3.2318,-3.4077,-3.5053,-3.5544,-3.5463,-3.3713,-3.3101,-3.3808,-3.1415,-3.0495,-3.118,-3.0343,-2.9934,-2.9792,-2.9792,-2.9792,-2.9792,-2.9792,-2.9754,-2.9666,-2.9063,-2.852,-2.8071,-2.75,-2.7023,-2.6653,-2.7156,-2.7728,-2.8188,-2.8237,-2.8925,-2.9716,-1.5832,0.0,-1.5745,-1.5745,-1.5698,-1.5658,-1.5658,-1.5658,-1.5658,0.0,0.0,0.0,0.0,0.0,0.0,0.0,-2.0836,-2.1133,-2.1015,-2.149,-2.1798,-2.166,-2.1731,-2.1731,-2.1741,-2.1731,0.0,0.0,0.0,0.0,0.0,0.0,0.0,0.0,0.0,0.0,0.0,0.0,0.0,-2.3528,-2.3702,0.0,-2.3304,-2.3662,-2.3614,-2.3387,-2.3309,-2.4059,-2.5126,-2.4872,-2.4211,-2.3387,0.0,0.0,0.0,-2.1784,0.0,0.0,-2.0073,-1.9966,-1.9768,0.0,0.0,0.0,-1.8264,-1.7995,-1.7845,0.0,0.0,0.0,0.0,0.0,0.0,0.0,0.0,0.0,0.0,0.0,0.0,0.0,0.0,0.0,0.0,-3.3268,-3.5211,-3.561,-3.6049,-3.5986,-3.515,-3.4232,-3.3449,-3.289,-3.2321,-3.1756,-3.118,-3.1044,-3.0558,-2.9792,-2.9792,-2.9792,-2.9792,-2.9792,-2.9541,-2.9063,-2.8486,-2.8199,-2.8088,-2.75,-2.725,-2.7169,-2.7743,-2.8287,-2.8807,-2.9314,-2.9603,-2.9779,-1.5832,-1.5832,-1.5832,-1.5832,-1.5832,-1.5832,-1.5832,-1.5952,0.0,0.0,0.0,0.0,0.0,0.0,0.0,0.0,0.0,0.0,-2.1508,-2.1769,-2.1889,-2.167,-2.1741,-2.1741,-2.1741,-2.1741,-2.1653,0.0,0.0,0.0,0.0,0.0,0.0,0.0,0.0,0.0,0.0,0.0,-2.345,-2.4068,-2.3937,0.0,-2.3707,-2.3777,-2.3652,-2.3437,-2.3213,-2.3464,-2.3993,-2.4226,-2.3879,0.0,0.0,-2.2756,-2.1823,0.0,-2.1055,-1.9709,0.0,0.0,0.0,-1.8783,0.0,0.0,0.0,-1.8009,-1.786,0.0,0.0,0.0,0.0,0.0,0.0,0.0,0.0,0.0,0.0,0.0,0.0,0.0,0.0,0.0,0.0,-3.4976,-3.5985,-3.5928,-3.5802,-3.5285,-3.4228,-3.3211,-3.2593,-3.2593,-3.1696,-3.1193,-3.118,-3.0771,-3.0279,-2.9792,-2.9792,-2.9792,-2.9792,-2.9792,-2.9478,-2.8913,-2.8637,-2.8349,-2.81,-2.7795,-2.7826,-2.8096,-2.8094,-2.8245,-2.8556,-2.9125,-2.9555,-2.9792,-1.5985,-1.5905,-1.5845,-1.5905,-1.5865,-1.5832,-1.5832,-1.6079,0.0,0.0,0.0,0.0,0.0,0.0,-2.0418,0.0,0.0,0.0,-2.1946,-2.2167,-2.2181,-2.1869,-2.1777,-2.1741,-2.1741,-2.1741,-2.1563,-2.1212,0.0,0.0,0.0,0.0,0.0,0.0,0.0,0.0,0.0,0.0,0.0,-2.4375,0.0,-2.3862,-2.414,-2.389,-2.3767,-2.3641,-2.3291,-2.3135,-2.3203,-2.3643,-2.3789,-2.3857,-2.4195,-2.3383,0.0,0.0,0.0,0.0,0.0,0.0,0.0,0.0,0.0,-1.8522,0.0,0.0,0.0,0.0,0.0,0.0,0.0,0.0,0.0,0.0,0.0,0.0,0.0,0.0,0.0,0.0,0.0,0.0,0.0,-3.6145,-3.6187,-3.6129,-3.5253,-3.4299,-3.3211,-3.1931,-3.1462,-3.2046,-3.0393,-2.9871,-3.0631,-2.9639,-2.9238,-2.9294,-2.9294,-2.9462,-2.9628,-2.9628,-2.9365,-2.8925,-2.8925,-2.8674,-2.8273,-2.8226,-2.8525,-2.8838,-2.842,-2.8313,-2.85,-2.89,-2.9391,-2.9792,-1.6553,-1.6186,-1.5912,-1.6179,0.0,-1.5832,-1.5832,-1.6079,0.0,0.0,0.0,0.0,0.0,0.0,-1.9613,-2.0422,-2.1676,0.0,-2.1812,-2.2661,-2.2954,-2.2646,-2.2014,-2.183,-2.2008,-2.183,-2.1654,-2.149,0.0,0.0,0.0,0.0,0.0,0.0,-2.0549,0.0,0.0,0.0,-2.196,0.0,-2.3601,-2.3758,0.0,-2.4047,-2.3736,-2.3461,-2.3203,-2.3135,-2.3203,0.0,-2.3789,-2.3867,0.0,-2.3383,-2.2519,-2.2641,0.0,0.0,0.0,0.0,0.0,0.0,-1.8982,0.0,0.0,0.0,-1.8714,-1.8613,0.0,-1.8651,-1.869,0.0,0.0,0.0,0.0,0.0,0.0,0.0,0.0,0.0,0.0,0.0,0.0,0.0,-3.6851,-3.6865,-3.4905,-3.3358,-3.2368,-3.1646,-3.0833,-3.0152,-2.8912,-2.8335,-2.8481,-2.7371,-2.7151,-2.7562,-2.7562,-2.805,-2.9026,-2.9026,-2.8988,-2.8925,-2.8925,-2.89,-2.8837,-2.8837,-2.8837,-2.8907,-2.8799,-2.9151,-2.9626,-2.9654,-2.9704,-2.9792,-1.678,-1.6506,-1.6326,-1.6279,0.0,-1.6279,-1.6112,-1.6627,0.0,0.0,0.0,0.0,0.0,0.0,-2.036,-2.256,-2.3029,-2.326,-2.3655,-2.392,-2.3849,-2.3439,-2.275,-2.2547,-2.287,-2.2557,-2.2258,-2.1979,-2.1787,0.0,0.0,0.0,0.0,0.0,-1.9721,0.0,-2.0166,0.0,-2.1048,0.0,0.0,0.0,0.0,-2.4677,-2.419,-2.3551,-2.3203,-2.3135,-2.3203,0.0,-2.3789,0.0,0.0,0.0,0.0,0.0,0.0,0.0,0.0,0.0,0.0,0.0,0.0,0.0,-1.8731,0.0,-1.8842,0.0,0.0,0.0,0.0,0.0,0.0,0.0,-2.0179,0.0,0.0,0.0,0.0,0.0,0.0,0.0,0.0,0.0,0.0,0.0,0.0,-3.0737,-3.0311,-2.9132,-2.8548,-2.8767,-2.7775,-2.7059,-2.676,-2.6278,-2.612,-2.6089,-2.6629,-2.7164,-2.7566,-2.8139,-2.8285,-2.7996,-2.831,-2.8448,-2.8473,-2.875,-2.9101,-2.9449,-2.9403,-2.9365,-2.9282,-2.9664,-2.9792,-2.9792,-1.715,-1.6814,-1.6667,-1.6533,0.0,0.0,0.0,0.0,0.0,0.0,0.0,0.0,-1.9306,-1.9625,0.0,-2.3855,-2.3776,-2.3921,0.0,-2.4899,-2.4654,-2.4143,-2.3446,-2.3174,-2.3555,-2.3098,-2.2667,-2.2175,0.0,0.0,0.0,0.0,0.0,0.0,0.0,-1.8996,-1.894,0.0,-2.0221,-2.2327,-2.2123,-2.3116,-2.4746,-2.482,-2.4341,-2.373,-2.3291,-2.3135,-2.3203,-2.3643,-2.3789,0.0,-2.4287,0.0,0.0,0.0,0.0,0.0,-2.1961,0.0,0.0,0.0,0.0,0.0,0.0,0.0,0.0,0.0,0.0,0.0,0.0,0.0,-1.9442,0.0,0.0,-2.0695,0.0,0.0,0.0,0.0,0.0,0.0,0.0,0.0,0.0,0.0,0.0,0.0,-2.8234,-2.7158,-2.6814,-2.7472,-2.6422,-2.5628,-2.5132,-2.4891,-2.4661,-2.4493,-2.5241,-2.5849,-2.6387,-2.7164,-2.7503,-2.7532,-2.7934,-2.8185,-2.836,-2.8762,-2.9277,-2.9792,-2.9792,-2.9524,-2.9232,-2.9651,-2.9792,-2.9792,-1.7765,-1.7094,-1.6794,0.0,0.0,0.0,0.0,0.0,0.0,0.0,0.0,0.0,0.0,0.0,0.0,0.0,0.0,-2.3863,-2.5436,0.0,-2.514,-2.4737,-2.3815,-2.3392,-2.3691,-2.3139,-2.2572,-2.188,-2.188,0.0,0.0,0.0,0.0,-1.9242,-1.8928,-1.8957,-1.9228,-1.8394,-1.9544,-2.182,-2.1303,-2.2364,-2.4361,0.0,-2.3977,-2.373,-2.3291,0.0,0.0,-2.3643,-2.3789,0.0,0.0,0.0,0.0,0.0,0.0,0.0,0.0,0.0,0.0,-2.1067,0.0,0.0,0.0,0.0,-1.9175,0.0,0.0,0.0,-1.947,-1.9933,-2.0295,-2.0414,0.0,0.0,0.0,0.0,0.0,0.0,0.0,0.0,0.0,0.0,0.0,0.0,0.0,0.0,-2.6588,-2.6565,-2.6341,-2.5846,-2.4865,-2.408,-2.3604,-2.2523,-2.2301,-2.2751,-2.2829,-2.3885,-2.5838,-2.5838,-2.6651,-2.8084,-2.8097,-2.8411,-2.89,-2.8925,-2.9277,-2.9792,-2.9792,-2.9792,-2.9779,-2.9792,-2.9792,-2.9792,-1.9125,-1.8441,-1.7729,0.0,0.0,0.0,0.0,-1.8056,0.0,0.0,0.0,0.0,0.0,-2.1156,-2.2466,0.0,0.0,-2.6367,-2.7323,-2.7209,-2.6804,-2.6381,-2.5657,-2.5261,-2.5441,-2.4818,-2.4126,-2.3607,-2.2687,0.0,0.0,0.0,-2.0,-1.9881,0.0,-1.8434,0.0,0.0,0.0,0.0,0.0,-2.3135,-2.4708,0.0,0.0,-2.373,-2.3291,-2.3135,0.0,-2.331,-2.3359,-2.3389,-2.3525,-2.359,-2.3799,-2.414,-2.3692,0.0,0.0,0.0,-2.1463,-2.1383,0.0,0.0,0.0,0.0,0.0,0.0,0.0,0.0,0.0,0.0,-2.1449,-2.1793,-2.2224,0.0,0.0,0.0,0.0,0.0,0.0,0.0,0.0,0.0,0.0,0.0,0.0,0.0,0.0,-2.4638,-2.4118,-2.3978,-2.2709,-2.1786,-2.1189,-2.0623,-2.07,-2.1308,-2.1973,-2.2638,-2.3304,-2.4653,-2.5577,-2.6057,-2.6723,-2.7544,-2.8386,-2.8386,-2.8938,-2.9792,-2.9792,-2.9792,-2.9792,-2.9792,-2.9792,-2.9792,-1.9498,-1.8809,0.0,0.0,0.0,0.0,0.0,0.0,0.0,0.0,-1.9891,0.0,-2.1392,0.0,-2.3889,0.0,-2.6893,-2.7483,-2.8242,-2.8038,0.0,-2.712,-2.6624,-2.6126,-2.55,-2.5461,-2.4706,-2.3241,-2.2893,-2.2336,0.0,0.0,0.0,-2.0052,0.0,-1.8382,-1.7767,0.0,-1.7597,0.0,0.0,-2.2425,0.0,0.0,-2.3376,-2.3876,0.0,-2.3135,-2.3135,-2.3135,-2.3135,-2.3135,-2.3135,-2.3153,-2.3364,-2.3789,-2.3534,-2.3148,-2.3589,-2.3003,0.0,-2.2162,-2.1472,0.0,-2.095,0.0,0.0,0.0,0.0,0.0,0.0,0.0,0.0,-2.2771,-2.2982,-2.317,0.0,-2.3477,0.0,0.0,0.0,0.0,0.0,0.0,0.0,-2.3811,-2.3315,0.0,0.0,0.0,-2.2387,-2.2187,-2.0775,-1.9968,-1.9829,-1.9525,-1.9771,-2.0644,-2.1221,-2.1669,-2.2027,-2.3745,-2.4492,-2.4492,-2.5511,-2.6448,-2.7262,-2.6882,-2.784,-2.949,-2.908,-2.9282,-2.9792,-2.9792,-2.9792,-2.9792,-1.8861,0.0,0.0,0.0,-1.8497,0.0,0.0,0.0,-1.9479,0.0,-2.0441,-2.1463,-2.3108,-2.3631,-2.4873,-2.7555,-2.7509,-2.751,-2.8272,-2.7949,0.0,0.0,-2.6753,-2.5713,-2.395,-2.5076,-2.4149,-2.1074,-2.2429,0.0,0.0,0.0,0.0,-1.9798,-1.9469,0.0,-1.7967,-1.7967,-1.8168,-1.8603,-1.9526,-2.0499,-2.1374,-2.1427,0.0,-2.4117,-2.3326,-2.3135,-2.3135,-2.3135,-2.3135,-2.3135,-2.3135,-2.3135,-2.3223,-2.3662,-2.3496,-2.3437,-2.4668,-2.3849,-2.2787,-2.3358,0.0,0.0,0.0,0.0,-2.2466,0.0,0.0,0.0,0.0,0.0,0.0,0.0,-2.3634,-2.3717,0.0,0.0,0.0,0.0,0.0,0.0,0.0,-2.377,-2.3511,-2.3105,-2.2853,-2.2862,0.0,0.0,-2.1219,-2.0752,-1.9299,-1.8761,-1.9406,-1.9164,-1.952,-2.0566,-2.0566,-2.1088,-2.1952,-2.2999,-2.3441,-2.3514,-2.4492,-2.523,-2.5704,-2.4739,-2.6106,-2.8648,-2.777,-2.8329,-2.9624,-2.9714,-2.9702,-2.9702,-1.9395,-1.9138,-1.9138,0.0,-1.8597,-1.833,0.0,0.0,0.0,0.0,-2.2491,-2.3435,-2.5109,-2.6396,-2.7393,-2.7723,-2.8744,0.0,0.0,0.0,0.0,-2.6421,-2.6295,-2.537,-2.3519,-2.3578,-2.3043,-2.2126,-2.1923,0.0,-2.1391,0.0,0.0,0.0,0.0,0.0,-1.7674,-1.7674,-1.7853,-1.8304,-1.979,-2.1016,0.0,0.0,-2.3376,-2.3729,-2.322,-2.3135,-2.3135,-2.3135,-2.3135,-2.3135,-2.3135,-2.3135,-2.3223,-2.3662,-2.3711,-2.3691,-2.4023,-2.3997,-2.3852,-2.348,-2.3122,-2.284,0.0,0.0,0.0,0.0,0.0,0.0,0.0,0.0,0.0,-2.3373,-2.3324,-2.3128,0.0,0.0,0.0,-2.2274,0.0,0.0,0.0,-2.2827,-2.2752,-2.2676,-2.259,-2.2726,0.0,0.0,0.0,-2.1148,-2.0214,-1.9729,-1.9883,-1.93,-1.952,-2.0566,-2.0566,-2.0712,-2.1011,-2.1962,-2.2403,-2.2403,-2.3441,-2.4391,-2.5188,-2.4957,-2.5701,-2.7105,-2.6852,-2.7024,-2.7464,-2.8267,-2.8518,-2.8426,-1.9502,0.0,0.0,-1.9366,0.0,0.0,-1.9426,0.0,0.0,-2.2602,-2.3848,0.0,-2.6611,-2.7984,-2.8692,-2.8834,-2.9718,0.0,-2.821,0.0,0.0,-2.5553,-2.5535,-2.4595,-2.2717,-2.3007,-2.2607,-2.1294,-2.162,0.0,-2.1425,0.0,0.0,0.0,0.0,-1.8996,0.0,-1.7784,-1.767,-1.8021,-1.9059,0.0,0.0,-2.2557,-2.3176,-2.3376,-2.3436,-2.3301,-2.3135,-2.3135,-2.3135,-2.3135,-2.3135,-2.3135,-2.3184,-2.3437,-2.3506,-2.3545,-2.374,-2.3965,-2.4082,-2.3667,-2.3779,-2.3843,-2.371,-2.3607,-2.3635,0.0,0.0,0.0,0.0,0.0,0.0,-2.3776,-2.339,-2.2941,0.0,0.0,0.0,0.0,-2.2417,0.0,0.0,-2.2366,-2.2213,-2.2764,-2.2532,-2.2619,0.0,0.0,0.0,-2.1471,-2.035,-1.9945,-2.0287,-1.9597,-1.9789,-2.0859,-2.0859,-2.0859,-2.0859,-2.2019,-2.2335,-2.2043,-2.3022,-2.3698,-2.4208,-2.3833,-2.4584,-2.6169,-2.6393,-2.6483,-2.6472,-2.6614,-2.6942,-2.7279,-1.9519,0.0,0.0,0.0,0.0,0.0,0.0,-2.1441,0.0,-2.3665,0.0,-2.7056,-2.831,-2.9039,-2.9573,-2.9872,0.0,-2.8955,-2.692,-2.6778,-2.6054,-2.4371,-2.4363,-2.3362,-2.138,-2.2544,-2.2078,-1.9871,-2.1149,0.0,0.0,0.0,0.0,0.0,0.0,0.0,0.0,-1.7943,-1.7586,0.0,-1.8272,-1.9184,-2.0268,-2.179,-2.2762,-2.335,-2.373,-2.3555,-2.3135,-2.3135,-2.3135,-2.3135,-2.3135,-2.3135,-2.3135,-2.3135,-2.3184,-2.3301,-2.3691,-2.3828,-2.3867,-2.3867,-2.4473,-2.4971,-2.459,-2.5146,-2.5742,-2.5742,-2.5538,-2.5189,0.0,0.0,0.0,0.0,0.0,0.0,0.0,0.0,0.0,0.0,0.0,0.0,0.0,0.0,-2.2032,-2.2999,-2.2582,-2.2619,0.0,0.0,0.0,-2.1845,-2.0395,0.0,-2.0898,0.0,-2.0379,-2.1318,-2.1318,-2.1318,-2.1328,-2.2534,-2.2635,-2.1967,-2.2798,-2.3132,-2.3103,-2.2347,-2.3238,-2.5289,-2.5892,-2.6058,-2.5891,-2.4957,-2.5253,-2.6146,0.0,0.0,0.0,0.0,0.0,-2.0334,-2.0875,-2.2591,-2.4945,-2.8227,-2.9128,-3.011,-3.1712,-3.1474,-3.0439,-2.8838,-2.8381,0.0,0.0,0.0,0.0,-2.2511,-2.2496,-2.1641,-1.9822,-2.0088,-2.0183,-2.0193,-2.0242,0.0,0.0,0.0,0.0,0.0,0.0,0.0,-1.7846,-1.7991,0.0,-1.7116,-1.9892,-2.0982,-2.1112,-2.3567,-2.4384,-2.4199,-2.4277,-2.3799,-2.3135,-2.3135,-2.3135,-2.3135,-2.3135,-2.3135,-2.3135,-2.3135,-2.3389,-2.3691,-2.3769,-2.4043,-2.4307,-2.4307,-2.4687,-2.5049,-2.4971,-2.5361,-2.5742,-2.5742,-2.5635,-2.5479,-2.4755,0.0,0.0,0.0,0.0,0.0,0.0,0.0,0.0,0.0,0.0,-2.2515,0.0,0.0,0.0,0.0,0.0,0.0,0.0,0.0,0.0,0.0,0.0,0.0,0.0,0.0,0.0,-2.1777,-2.1777,-2.1777,-2.1777,-2.2001,-2.204,-2.1885,-2.203,-2.231,-2.2636,-2.2477,-2.2808,-2.3527,-2.3694,-2.3724,-2.3637,-2.3464,-2.3789,-2.4225,0.0,0.0,0.0,0.0,0.0,0.0,0.0,-2.3976,0.0,-2.7991,-2.8381,-2.9054,-3.0624,-2.9998,-2.8889,-2.7539,-2.7202,-2.6215,-2.4306,-2.4162,-2.3376,-2.1661,-2.1533,-2.1043,-2.0054,-1.9893,-2.005,-2.0517,0.0,0.0,0.0,0.0,0.0,0.0,0.0,-1.9112,0.0,0.0,0.0,-1.7791,-1.9396,-2.0404,-2.1205,-2.3281,-2.4202,-2.4443,-2.4668,-2.4346,-2.3769,-2.3545,-2.333,-2.3135,-2.3135,-2.3135,-2.3184,-2.3408,-2.3623,-2.3838,-2.4053,-2.4424,-2.4697,-2.4473,-2.4746,-2.5068,-2.5068,-2.5234,-2.5459,-2.5684,-2.5742,-2.5577,-2.5257,-2.4323,0.0,0.0,0.0,0.0,0.0,0.0,-2.2618,0.0,0.0,0.0,0.0,0.0,0.0,0.0,0.0,0.0,0.0,0.0,0.0,0.0,0.0,0.0,0.0,0.0,0.0,-2.2207,-2.2207,-2.2207,-2.2217,-2.2441,-2.2539,-2.2539,-2.2539,-2.2646,-2.2832,-2.2832,-2.2959,-2.3135,-2.3135,-2.3135,-2.3164,-2.3389,-2.3613,-2.376,0.0,-2.0461,0.0,0.0,-2.1296,0.0,-2.3861,-2.4569,-2.5486,-2.7117,-2.7243,-2.7621,-2.879,-2.801,-2.7098,-2.606,-2.5939,-2.514,-2.3223,-2.3084,-2.2438,-2.1022,-2.1015,-2.0882,-2.0588,-2.0294,-2.0227,0.0,0.0,0.0,0.0,0.0,0.0,0.0,0.0,0.0,0.0,0.0,-1.7962,-1.8222,-1.8557,-1.9499,-2.0923,-2.2521,-2.361,-2.4352,-2.4983,-2.4932,-2.4502,-2.417,-2.3769,-2.3408,-2.3408,-2.3408,-2.3477,-2.3818,-2.3984,-2.4131,-2.4463,-2.4805,-2.501,-2.4756,-2.4883,-2.5068,-2.5068,-2.5137,-2.5283,-2.5537,-2.5674,-2.5742,-2.5742,-2.482,0.0,0.0,0.0,0.0,0.0,0.0,0.0,0.0,0.0,0.0,-2.3633,0.0,0.0,0.0,0.0,0.0,0.0,0.0,0.0,0.0,0.0,-2.4125,-2.3464,0.0,-2.3614,0.0,-2.2722,-2.2646,-2.2656,-2.2988,-2.3135,-2.3135,-2.3135,-2.3135,-2.3135,-2.3135,-2.3193,-2.3271,-2.3271,-2.333,-2.3457,-2.3799,-2.3984,-2.4062,0.0,0.0,0.0,0.0,0.0,0.0,0.0,-2.2748,-2.4402,-2.8109,-2.8271,-2.8312,-2.8735,-2.7974,-2.6818,-2.4895,-2.4471,-2.3413,-2.1502,-2.1355,-2.1115,-2.0728,-2.0715,-2.0581,-2.0281,-1.9987,-1.9824,0.0,0.0,-1.9733,0.0,0.0,0.0,0.0,0.0,0.0,0.0,-1.8085,-1.8,-1.7455,-1.8949,-1.9553,-1.9987,-2.2624,-2.3709,-2.3889,-2.5149,-2.5381,-2.5,-2.4961,-2.4658,-2.4297,-2.4297,-2.4297,-2.4307,-2.4346,-2.4639,-2.4961,-2.5,-2.5039,-2.5156,-2.5527,-2.5342,-2.5068,-2.5068,-2.5381,-2.5566,-2.5205,-2.5449,-2.5742,-2.5742,-2.501,-2.4541,0.0,0.0,0.0,0.0,0.0,-2.3584,-2.3096,0.0,0.0,0.0,0.0,0.0,0.0,0.0,0.0,0.0,0.0,0.0,-2.3144,0.0,-2.3714,-2.4628,-2.3674,0.0,-2.4565,-2.3577,-2.3076,-2.3086,-2.3125,-2.3135,-2.3135,-2.3135,-2.3135,-2.3135,-2.3135,-2.3369,-2.373,-2.373,-2.3965,-2.4297,-2.4346,-2.4609,-2.4941,0.0,0.0,0.0,0.0,0.0,0.0,0.0,-2.2445,-2.3099,-2.448,-2.4825,-2.5286,-2.6199,-2.5373,-2.4253,-2.2919,-2.279,-2.2371,-2.1136,-2.1109,-2.1056,-2.0942,-2.0935,-2.0882,-2.0762,-2.0301,-2.0087,0.0,0.0,0.0,0.0,0.0,0.0,0.0,0.0,-1.8313,-1.8187,-1.7898,-1.7681,-1.7682,-1.8227,-1.8916,-1.9731,-2.0845,-2.2265,-2.3692,-2.3384,-2.4193,-2.5372,-2.4551,-2.4307,-2.4414,-2.4414,-2.4414,-2.4473,-2.4727,-2.4932,-2.5127,-2.54,-2.5469,-2.5518,-2.5693,-2.54,-2.4869,-2.4183,-2.4517,-2.4694,-2.3749,-2.4536,-2.5332,-2.5332,-2.5049,-2.4775,0.0,0.0,0.0,0.0,0.0,0.0,-2.3164,0.0,-2.3437,0.0,0.0,0.0,0.0,0.0,0.0,0.0,0.0,0.0,-2.3135,0.0,-2.4049,-2.38,-2.4049,-2.4049,-2.38,-2.3299,-2.3135,-2.3135,-2.3135,-2.3135,-2.3135,-2.3135,-2.3135,-2.3154,-2.3418,-2.3633,-2.3809,-2.4072,-2.4424,-2.4805,-2.4805,-2.5088,-2.5469,-2.1804,0.0,-2.1977,0.0,-2.2418,-2.2418,-2.2418,-2.2418,-2.2285,-2.1904,-2.2291,-2.2969,-2.3695,-2.3133,-2.2318,-2.1617,-2.1737,-2.1643,-2.1142,-2.1109,-2.1109,-2.1109,-2.1109,0.0,-2.1109,-2.0535,-2.0294,-2.0421,-1.98,0.0,0.0,0.0,0.0,0.0,-1.8238,-1.8225,-1.8529,-1.7788,-1.7655,-1.8029,-1.7809,-1.8232,-1.9172,-1.9672,-2.1051,-2.2681,-2.2062,-2.3042,-2.447,-2.3429,-2.3304,-2.371,-2.4108,-2.4212,-2.4269,-2.4565,-2.4957,-2.5332,-2.5654,-2.5644,-2.5566,-2.5703,-2.5102,-2.4345,-2.3737,-2.3569,-2.3307,-2.2726,-2.389,-2.5068,-2.5068,-2.5068,-2.501,-2.4834,0.0,0.0,0.0,0.0,0.0,0.0,-2.3252,-2.3398,-2.3584,0.0,0.0,0.0,0.0,0.0,0.0,0.0,0.0,0.0,0.0,0.0,0.0,-2.4049,-2.4049,-2.3637,-2.3222,-2.3135,-2.3135,-2.3135,-2.3135,-2.3144,-2.3271,-2.333,-2.3359,-2.3799,-2.4053,-2.4199,-2.4492,-2.4883,-2.5264,-2.5264,-2.5469,-2.5742,-2.1503,-2.1557,-2.1737,-2.2318,-2.2418,-2.2418,-2.2418,-2.2418,-2.2211,-2.163,-2.181,-2.1997,-2.1984,-2.1991,-2.1877,-2.1577,-2.1557,-2.143,-2.1129,-2.1109,-2.1109,0.0,0.0,-2.1109,-2.1109,-2.0535,-2.0094,-1.9813,0.0,0.0,-1.851,0.0,-1.8771,-1.8504,-1.8784,-1.8591,-1.805,-1.8043,-1.8036,-1.805,-1.8043,-1.8043,-1.8178,-1.9838,-2.0491,-2.0662,-2.1707,-2.2108,-2.2051,-2.1775,-2.1744,-2.1938,-2.3267,-2.3674,-2.3674,-2.3683,-2.4707,-2.5732,-2.5742,-2.541,-2.5185,-2.5625,-2.4397,-2.3286,-2.414,-2.279,-2.1489,-2.2393,-2.389,-2.5068,-2.5068,-2.5068,-2.5215,-2.5644,0.0,0.0,0.0,0.0,0.0,-2.3242,-2.3516,-2.3613,-2.3184,0.0,0.0,0.0,0.0,0.0,0.0,0.0,0.0,-2.3135,-2.3135,0.0,-2.4787,-2.3714,-2.3714,-2.4787,-2.3637,-2.3135,-2.3135,-2.3135,-2.3135,-2.3164,-2.3594,-2.3779,-2.3809,-2.4238,-2.4668,-2.5049,-2.5059,-2.5332,-2.5732,-2.5732,-2.5732,-2.5742,-2.179,-2.185,-2.1904,-2.2091,-2.2124,-2.2058,-2.1857,-2.1824,-2.169,-2.1303,-2.1329,-2.139,-2.139,-2.1744,-2.179,0.0,-2.1436,-2.143,0.0,-2.1109,-2.1109,-2.1109,-2.1109,-2.1109,-2.1109,-2.0535,-2.0187,-2.0094,0.0,0.0,0.0,-1.8878,-1.8657,-1.819,-1.8283,-1.8223,-1.8029,-1.7822,-1.7856,-1.805,-1.805,-1.805,-1.8076,-1.8796,-1.9654,-2.0382,-1.9867,-2.075,-2.1988,-2.093,-2.0431,-2.0333,-2.0743,-2.2165,-2.3484,-2.2567,-2.3285,-2.4097,-2.3176,-2.288,-2.281,-2.2941,-2.2581,-2.1818,-2.0807,-2.0281,-2.0162,-2.0424,-2.2483,-2.4094,-2.3514,-2.4288,-2.5117,-2.5254,-2.5049,0.0,0.0,0.0,0.0,-2.0826,-2.1509,-2.1715,0.0,-2.14,0.0,0.0,0.0,0.0,0.0,0.0,0.0,0.0,-2.3584,0.0,-2.4526,-2.4185,-2.4185,-2.4526,-2.4185,-2.4014,-2.4014,-2.4014,-2.4014,-2.4014,-2.416,-2.4219,-2.4248,-2.4687,-2.4941,-2.5098,-2.54,-2.5732,-2.6131,-2.5771,-2.5859,-2.6121,-2.1623,-2.1657,-2.169,-2.1804,-2.1824,-2.1764,-2.1583,-2.155,-2.1443,-2.1149,-2.1109,-2.1109,-2.1109,-2.1436,0.0,-2.1142,-2.1276,-2.1309,-2.1122,-2.1109,-2.1109,-2.1109,-2.1109,-2.1056,-2.0949,0.0,0.0,-2.0067,-1.9486,-1.9165,-1.9085,-1.8865,-1.8624,-1.837,-1.8263,-1.8217,-1.8196,-1.7889,-1.7869,-1.8056,-1.817,-1.8217,-1.8257,-1.8664,-1.936,-1.9989,-1.902,-1.9531,-2.062,-1.9648,-1.9077,-1.8812,-1.8812,-2.0341,-2.1963,-2.1151,-2.1853,-2.2767,-2.1954,-2.1752,-2.1752,-2.1752,-2.1347,-2.0358,-1.8408,-1.8791,-1.9405,-1.8956,-2.0706,-2.2355,-2.2342,-2.3513,-2.4383,-2.4278,-2.4507,-2.383,-2.1781,0.0,0.0,0.0,0.0,0.0,0.0,-2.1311,0.0,0.0,0.0,0.0,0.0,0.0,0.0,-2.3789,-2.3945,0.0,-2.4414,-2.4414,-2.4414,-2.4414,-2.4414,-2.4414,-2.4414,-2.4414,-2.4414,-2.4424,-2.459,-2.4658,-2.4697,-2.5137,-2.5322,-2.5352,-2.5625,-2.5839,-2.6112,-2.6045,-2.6191,-2.6326,-2.1109,-2.1109,0.0,0.0,-2.1523,0.0,-2.1523,-2.1523,-2.1423,-2.1149,-2.1109,-2.1109,-2.1109,-2.1109,-2.1109,-2.1109,0.0,0.0,0.0,-2.1109,-2.1109,-2.1109,-2.1109,0.0,-2.0715,-2.0668,-2.0361,-1.9773,-1.9225,-1.9098,-1.9359,-1.8811,-1.8677,-1.8878,-1.8611,-1.847,-1.841,-1.813,-1.8016,-1.8043,-1.8364,-1.849,-1.8557,-1.9145,-1.9366,-1.9325,-1.9032,-1.8738,-1.8444,-1.8143,-1.7842,-1.7582,-1.7582,-1.8506,-1.942,-1.942,-2.0436,-2.155,-2.1448,-2.1448,-2.1448,-2.1448,-2.0405,-1.8891,-1.7123,-1.8044,-1.9039,-1.7777,-1.8933,-2.0467,-2.1639,-2.2546,-2.3069,-2.2991,-2.3305,-2.2777,-2.0765,0.0,0.0,0.0,0.0,0.0,0.0,-2.205,-2.2696,0.0,0.0,0.0,0.0,0.0,-2.39,-2.3887,-2.4258,-2.4473,-2.4512,-2.4512,-2.4512,-2.4512,-2.4512,-2.4512,-2.4512,-2.4512,-2.4512,-2.4531,-2.4941,-2.5117,-2.5146,-2.5566,-2.5742,-2.5742,-2.5742,-2.5742,-2.5781,-2.6191,-2.6338,-2.6348,0.0,0.0,-2.1129,-2.1203,-2.1216,-2.1216,-2.1216,-2.1216,-2.1189,-2.1116,-2.1109,-2.1109,-2.1109,-2.1109,-2.1109,-2.1109,-2.1109,-2.1109,-2.1109,-2.1109,-2.1109,-2.1109,-2.1109,-2.1076,-2.1009,-2.0568,-2.0054,-1.9466,-1.9332,-1.9299,-1.9366,-1.9225,-1.8958,-1.8591,-1.8517,-1.823,-1.7796,-1.7722,-1.7695,-1.7742,-1.8277,-1.849,-1.8557,-1.9145,-1.9366,-1.9325,-1.9032,-1.8738,-1.8444,-1.8143,-1.7842,-1.7582,-1.7582,-1.7786,-1.8094,-1.8094,-1.9013,-1.9826,-1.8805,-1.8603,-1.8603,-1.8603,-1.7949,-1.7271,-1.6834,-1.7484,-1.777,-1.648,-1.8094,-1.9795,-2.045,-2.0976,-2.1664,-2.284,-2.2273,-2.118,-1.938,-1.9005,0.0,0.0,-1.7762,-1.8133,-1.721,-1.8226,-1.9068,0.0,0.0,0.0,0.0,0.0,-2.3699,-2.4766,-2.4863,-2.5078,-2.542,-2.543,-2.543,-2.543,-2.543,-2.543,-2.543,-2.543,-2.543,-2.543,-2.5537,-2.5586,-2.5586,-2.5693,-2.5742,-2.5742,-2.5742,-2.5742,-2.5752,-2.585,-2.5889,-2.5731,-2.1109,-2.1109,-2.1109,-2.1109,-2.1109,-2.1109,-2.1109,-2.1109,-2.1109,-2.1109,-2.1109,-2.1056,-2.0922,-2.0909,-2.0909,-2.0909,-2.1036,-2.1109,-2.1109,-2.1109,-2.1109,-2.1109,-2.0982,-2.0909,-2.0909,-2.0468,-2.0013,-1.9566,-1.9432,-1.9366,-1.9366,-1.9225,-1.8925,-1.8484,-1.835,-1.8023,-1.7582,-1.7582,-1.7582,-1.7635,-1.825,-1.849,-1.8557,-1.9145,-1.9366,-1.9325,-1.9032,-1.8738,-1.8444,-1.8143,-1.7842,-1.7582,-1.7582,-1.7582,-1.7582,-1.7582,-1.8094,-1.8506,-1.7786,-1.7582,-1.7582,-1.7582,-1.7241,-1.6874,-1.6734,-1.6933,-1.6838,-1.5953,-1.6835,-1.8132,-1.9036,-1.947,-1.9965,-2.0842,-2.0613,-1.9651,-1.7822,-1.7516,0.0,-1.6142,-1.7158,-1.7625,-1.6968,-1.813,-1.8918,-1.8785,0.0,0.0,-2.0465,-2.151,-2.2699,-2.4078,-2.4967,-2.5488,-2.5742,-2.5742,-2.5742,-2.5742,-2.5742,-2.5742,-2.5742,-2.5742,-2.5742,-2.5742,-2.5742,-2.5742,-2.5742,-2.5742,-2.5742,-2.5742,-2.5742,-2.5333,-2.4833,-2.5022,-2.4802,-2.4269,-2.1109,-2.1109,-2.1109,-2.1109,-2.1109,-2.1109,-2.1109,-2.1109,-2.1109,-2.1109,-2.1069,-2.0949,-2.0702,-2.0635,-2.0608,-2.0608,-2.0835,-2.0995,-2.1042,-2.1042,-2.1022,-2.0975,-2.0742,-2.0608,-2.0608,-2.0321,-2.0027,-1.9733,-1.9486,-1.9345,-1.9292,-1.9038,-1.8744,-1.841,-1.8156,-1.7876,-1.7582,-1.7582,-1.7582,-1.7635,-1.8196,-1.845,-1.8544,-1.9045,-1.9292,-1.9325,-1.8978,-1.8731,-1.851,-1.8217,-1.7936,-1.7716,-1.7662,-1.7655,-1.7642,-1.7595,-1.7582,-1.7582,-1.7582,-1.7582,-1.7582,-1.7582,-1.7368,-1.7081,-1.6834,-1.6547,-1.6266,-1.6012,-1.5959,-1.6416,-1.7905,-1.8311,-1.8548,-1.86,-1.8755,-1.8303,-1.6664,0.0,-1.6273,-1.6273,-1.7265,-1.7941,-1.8082,-1.9124,-1.975,-1.9333,-1.9749,-2.0039,0.0,-2.0573,-2.1526,-2.2779,-2.4528,-2.5528,-2.5742,-2.5742,-2.5742,-2.5742,-2.5742,-2.5742,-2.5732,-2.5528,-2.5538,-2.5635,-2.5226,-2.5226,-2.543,-2.5226,-2.5118,-2.5118,-2.5118,-2.4402,-2.342,-2.3749,-2.335,-2.2486,-2.1109,-2.1109,-2.1109,-2.1109,-2.1109,-2.1109,-2.1109,-2.1109,-2.1109,-2.1109,-2.0895,-2.0728,-2.0681,-2.0454,-2.0301,-2.0301,-2.0341,-2.0474,-2.0728,-2.0742,-2.0628,-2.0381,-2.0327,-2.0301,-2.0301,-2.0013,-1.9726,-1.9432,-1.9392,-1.9239,-1.8991,-1.8945,-1.8637,-1.8116,-1.807,-1.7876,-1.7582,-1.7582,-1.7582,-1.7615,-1.7976,-1.8263,-1.8504,-1.8591,-1.8938,-1.9299,-1.8751,-1.8684,-1.8811,-1.8517,-1.839,-1.8303,-1.8056,-1.7976,-1.7923,-1.7662,-1.7582,-1.7582,-1.7582,-1.7582,-1.7582,-1.7582,-1.7368,-1.7141,-1.7088,-1.6854,-1.6627,-1.658,-1.6573,-1.697,-1.8182,-1.7867,-1.7865,-1.903,-1.8065,-1.7129,-1.7089,0.0,-1.6273,-1.6273,-1.6684,-1.7218,-1.8008,-1.7597,-1.7633,-1.8604,-1.7817,-1.7507,-1.8026,-1.8964,-2.0263,-2.1862,-2.3249,-2.451,-2.5732,-2.5742,-2.5742,-2.5742,-2.5742,-2.5742,-2.5635,-2.451,-2.4609,-2.5538,-2.3276,-2.2968,-2.389,-2.2767,-2.2357,-2.2357,-2.2357,-2.2156,-2.2064,-2.2114,-2.1978,-2.1763,-2.1109,-2.1109,-2.1109,-2.1109,-2.0982,-2.0875,-2.0875,-2.0742,-2.0641,-2.0641,-2.0521,-2.0381,-2.0221,-2.008,-2.0,-2.0,-2.0,-2.006,-2.0194,-2.0347,-2.0374,-2.0241,-2.008,-1.9927,-1.9773,-1.9786,-1.9659,-1.9366,-1.9366,-1.9219,-1.8925,-1.8925,-1.8611,-1.805,-1.805,-1.7876,-1.7582,-1.7582,-1.7582,-1.7609,-1.7923,-1.813,-1.829,-1.8604,-1.8891,-1.9092,-1.8818,-1.8804,-1.8878,-1.8591,-1.849,-1.847,-1.833,-1.829,-1.8223,-1.7923,-1.7716,-1.7582,-1.7582,-1.7582,-1.7582,-1.7582,-1.7482,-1.7341,-1.7188,-1.7041,-1.6901,-1.674,-1.6707,-1.6954,-1.7701,-1.7456,-1.7394,-1.8135,-1.7387,0.0,0.0,-1.654,-1.6393,-1.6707,-1.7552,-1.8175,-1.861,-1.9077,-1.9514,-1.9731,-1.8714,-1.8159,-1.8444,-1.8927,-1.9992,-2.1643,-2.2968,-2.4304,-2.5645,-2.502,-2.502,-2.5742,-2.5742,-2.5742,-2.5635,-2.4304,-2.3998,-2.4501,-2.2567,-2.2055,-2.2567,-2.1954,-2.1752,-2.1752,-2.1752,-2.1245,-2.0538,-2.0538,-2.0251,-1.9611,-2.1009,-2.1009,-2.1009,-2.1009,-2.0768,-2.0575,-2.0575,-2.0381,-2.0234,-2.0234,-2.0174,-2.0047,-1.9826,-1.974,-1.97,-1.97,-1.97,-1.97,-1.97,-1.9907,-2.0034,-2.0034,-1.982,-1.9593,-1.9372,-1.9586,-1.9593,-1.9366,-1.9299,-1.9112,-1.8824,-1.8751,-1.8437,-1.7943,-1.7943,-1.7809,-1.7582,-1.7582,-1.7582,-1.7609,-1.7923,-1.809,-1.8196,-1.8651,-1.8905,-1.9018,-1.8951,-1.8965,-1.8991,-1.8771,-1.8698,-1.8684,-1.8617,-1.8591,-1.8531,-1.8237,-1.7929,-1.7675,-1.7602,-1.7582,-1.7582,-1.7582,-1.7582,-1.7522,-1.7301,-1.7248,-1.7181,-1.6961,-1.6907,-1.6981,-1.7208,-1.7248,-1.7275,-1.7348,0.0,0.0,0.0,-1.666,-1.6647,-1.7094,-1.8112,-1.9029,-1.9544,-2.0537,-2.1287,-2.1323,-2.0349,-1.9752,-1.9752,-1.9752,-2.0365,-2.1643,-2.2968,-2.4196,-2.5226,-2.4196,-2.4402,-2.5742,-2.543,-2.5226,-2.5226,-2.3493,-2.2976,-2.3176,-2.1448,-2.0939,-2.1143,-2.0837,-2.0735,-2.0735,-2.0735,-2.0135,-1.9117,-1.9117,-1.8562,-1.7943,-2.0708,-2.0708,-2.0708,-2.0708,-2.0461,-2.0267,-2.0267,-2.0247,-2.0234,-2.0234,-2.0,-1.9826,-1.9806,-1.9559,-1.9399,-1.9399,-1.9399,-1.9399,-1.9399,-1.9419,-1.9432,-1.9432,-1.9412,-1.9392,-1.9366,-1.9392,-1.9392,-1.9366,-1.9092,-1.8811,-1.8517,-1.8243,-1.7936,-1.7615,-1.7615,-1.7602,-1.7582,-1.7582,-1.7582,-1.7609,-1.7923,-1.8217,-1.8464,-1.8504,-1.8858,-1.9299,-1.9025,-1.9098,-1.9332,-1.9312,-1.9299,-1.9252,-1.8978,-1.8891,-1.8831,-1.8544,-1.825,-1.7949,-1.7662,-1.7582,-1.7582,-1.7582,-1.7582,-1.7575,-1.7555,-1.7549,-1.7542,-1.7522,-1.7515,-1.7522,-1.7549,-1.7549,-1.7649,-1.7929,0.0,0.0,-1.7482,-1.7268,-1.7101,-1.7148,-1.7492,-1.8558,-2.0643,-2.0233,-2.0585,-2.2682,-2.2011,-2.1508,-2.1508,-2.1508,-2.1517,-2.1752,-2.2968,-2.3791,-2.389,-2.3791,-2.4402,-2.5645,-2.4412,-2.389,-2.3791,-2.1151,-2.0641,-2.1752,-1.9005,-1.8603,-1.9627,-1.8401,-1.7891,-1.7891,-1.7891,-1.7891,-1.7786,-1.7786,-1.7701,-1.7615,-2.0401,-2.0401,-2.0401,-2.0401,-2.016,-1.9967,-1.9967,-1.9813,-1.9693,-1.9693,-1.9599,-1.9533,-1.9533,-1.9432,-1.9366,-1.9366,-1.9366,-1.9366,-1.9366,-1.9366,-1.9366,-1.9366,-1.9366,-1.9366,-1.9366,-1.9366,-1.9279,-1.9092,-1.8978,-1.8677,-1.8217,-1.8096,-1.7883,-1.7582,-1.7582,-1.7582,-1.7582,-1.7582,-1.7582,-1.7595,-1.7709,-1.7943,-1.8217,-1.8217,-1.8577,-1.9078,-1.8965,-1.9118,-1.9366,-1.9366,-1.9366,-1.9352,-1.9232,-1.9199,-1.9145,-1.8844,-1.8551,-1.8257,-1.7949,-1.7729,-1.7582,-1.7582,-1.7582,-1.7582,-1.7582,-1.7582,-1.7582,-1.7582,-1.7582,-1.7891,-1.8708,-1.8199,-1.7932,-1.8878,0.0,-1.7248,-1.7542,-1.7335,-1.7215,-1.7395,-1.8227,-1.9472,-2.1252,-2.1879,-2.2815,-2.4588,-2.3601,-2.2968,-2.2968,-2.2968,-2.2968,-2.2968,-2.2667,-2.2466,-2.2466,-2.2466,-2.2767,-2.3176,-2.2667,-2.2466,-2.2366,-2.0436,-1.993,-2.0333,-1.8401,-1.7891,-1.8304,-1.7786,-1.7582,-1.7582,-1.7582,-1.7582,-1.7582,-1.7582,-1.7582,-1.7582,-1.9344,-1.9725,-2.0094,-2.0094,-1.986,-1.9659,-1.9659,-1.9492,-1.9366,-1.9366,-1.9366,-1.9366,-1.9366,-1.9366,-1.9366,-1.9366,-1.9366,-1.9366,-1.9366,-1.9366,-1.9366,-1.9366,-1.9366,-1.9366,-1.9366,-1.9366,-1.9265,-1.9065,-1.8965,-1.8671,-1.8183,-1.809,-1.7883,-1.7582,-1.7582,-1.7582,-1.7582,-1.7582,-1.7582,-1.7589,-1.7689,-1.7856,-1.8056,-1.815,-1.8437,-1.8804,-1.8891,-1.8998,-1.9105,-1.9199,-1.9225,-1.9225,-1.9225,-1.9292,-1.9305,-1.9011,-1.8784,-1.8564,-1.827,-1.7963,-1.7702,-1.7609,-1.7582,-1.7609,-1.7709,-1.7655,-1.7609,-1.7709,-1.7649,-1.7891,-1.8812,-1.861,-1.8401,-1.8916,-1.8433,-1.786,-1.766,-1.7408,-1.7361,-1.7555,-1.8812,-2.0135,-2.155,-2.2868,-2.4304,-2.5635,-2.4815,-2.4304,-2.4304,-2.4304,-2.389,-2.3076,-2.2567,-2.1752,-2.0428,-2.0837,-2.1245,-2.1643,-2.1245,-2.1041,-2.1049,-1.974,-1.9009,-1.8916,-1.8099,-1.7669,-1.7582,-1.7582,-1.7582,-1.7582,-1.7582,-1.7582,-1.7582,-1.7582,-1.7582,-1.7582,-1.7343,-1.869,-1.98,-1.98,-1.9559,-1.9366,-1.9366,-1.9366,-1.9366,-1.9366,-1.9366,-1.9366,-1.9366,-1.9366,-1.9366,-1.9366,-1.9366,-1.9366,-1.9366,-1.9366,-1.9366,-1.9366,-1.9366,-1.9366,-1.9366,-1.9366,-1.9366,-1.9366,-1.9065,-1.8771,-1.8477,-1.8183,-1.7876,-1.7582,-1.7582,-1.7582,-1.7582,-1.7582,-1.7582,-1.7609,-1.7916,-1.8043,-1.8083,-1.837,-1.849,-1.8524,-1.8818,-1.8731,-1.8537,-1.8824,-1.8918,-1.8925,-1.8925,-1.9132,-1.9305,-1.9011,-1.8925,-1.8865,-1.8577,-1.8277,-1.7976,-1.7669,-1.7589,-1.7669,-1.7976,-1.7809,-1.7675,-1.7989,-1.7802,-1.7589,-1.7582,-1.8708,-1.9117,-1.7786,-1.8708,-1.9117,-1.7793,-1.7582,-1.7582,-1.7582,-1.8812,-2.0135,-2.155,-2.2876,-2.4196,-2.5538,-2.5635,-2.5635,-2.5635,-2.5645,-2.4412,-2.1752,-2.2985,-2.176,-1.7687,-1.8916,-2.0341,-2.1643,-2.0231,-1.9627,-1.9539,-1.8531,-1.7876,-1.7602,-1.7909,-1.7869,-1.7582,-1.7582,-1.7582,-1.7582,-1.7582,-1.7582,-1.7582,-1.7582,-1.7582,-1.7582,-1.565,-1.673,-1.7805,-1.7805,-1.87,-1.9366,-1.9366,-1.9366,-1.9366,-1.9366,-1.9366,-1.9366,-1.9366,-1.9366,-1.9366,-1.9366,-1.9366,-1.9366,-1.9366,-1.9366,-1.9366,-1.9366,-1.9366,-1.9366,-1.9366,-1.9366,-1.9265,-1.9058,-1.8764,-1.847,-1.817,-1.7862,-1.7669,-1.7582,-1.7582,-1.7582,-1.7582,-1.7582,-1.7582,-1.7589,-1.7682,-1.7849,-1.8029,-1.7903,-1.8123,-1.8477,-1.835,-1.8384,-1.8504,-1.8591,-1.8751,-1.8958,-1.9165,-1.9299,-1.9352,-1.9259,-1.9232,-1.9172,-1.8878,-1.8731,-1.8591,-1.8297,-1.8063,-1.7989,-1.829,-1.8283,-1.8243,-1.8337,-1.8116,-1.8217,-1.9148,-1.8759,-1.8401,-1.8916,-1.8506,-1.8094,-1.7687,-1.7582,-1.7582,-1.7582,-1.7996,-1.8708,-2.0135,-2.0538,-2.1355,-2.2767,-2.2868,-2.2868,-2.2868,-2.3036,-2.2775,-2.2047,-2.1659,-2.0726,-1.9353,-1.9539,-1.9317,-1.8805,-1.8401,-1.8199,-1.8213,-1.801,-1.7876,-1.7602,-1.7909,-1.7869,-1.7582,-1.7582,-1.7582,-1.7582,-1.7582,-1.7582,-1.7582,-1.7582,-1.7582,-1.7582,-1.4723,-1.5429,-1.6256,-1.685,-1.7806,-1.8409,-1.8409,-1.9004,-1.9366,-1.9366,-1.9366,-1.9366,-1.9366,-1.9366,-1.9366,-1.9366,-1.9366,-1.9366,-1.9366,-1.9366,-1.9366,-1.9366,-1.9366,-1.9366,-1.9366,-1.9252,-1.9105,-1.8925,-1.8631,-1.8337,-1.8043,-1.7856,-1.7702,-1.7582,-1.7582,-1.7582,-1.7582,-1.7582,-1.7582,-1.7582,-1.7582,-1.7695,-1.7842,-1.7655,-1.7809,-1.8123,-1.807,-1.8083,-1.815,-1.8277,-1.851,-1.8804,-1.9098,-1.9272,-1.9366,-1.9366,-1.9366,-1.9325,-1.9152,-1.8931,-1.8738,-1.8677,-1.8444,-1.827,-1.845,-1.849,-1.8524,-1.8637,-1.8424,-1.8435,-1.9269,-1.9106,-1.8837,-1.8921,-1.8794,-1.8337,-1.7701,-1.7582,-1.7582,-1.7582,-1.8094,-1.8708,-1.9531,-2.0155,-2.0956,-2.1771,-2.1733,-2.1752,-2.1752,-2.1911,-2.1908,-2.1281,-2.0757,-2.0133,-1.9299,-1.9227,-1.8653,-1.7582,-1.7582,-1.7649,-1.7769,-1.7963,-1.7943,-1.7776,-1.7963,-1.7869,-1.7582,-1.7582,-1.7582,-1.7582,-1.7582,-1.7582,-1.7582,-1.7582,-1.7582,-1.7582,-1.3885,-1.4247,-1.4837,-1.6374,-1.6727,-1.685,-1.685,-1.8169,-1.9127,-1.9004,-1.9127,-1.9243,-1.9243,-1.9243,-1.9243,-1.9366,-1.9366,-1.9366,-1.9366,-1.9366,-1.9366,-1.9366,-1.9366,-1.9366,-1.9366,-1.9098,-1.8951,-1.8925,-1.8631,-1.8337,-1.805,-1.8016,-1.7856,-1.7582,-1.7582,-1.7582,-1.7582,-1.7582,-1.7582,-1.7582,-1.7582,-1.7582,-1.7582,-1.7582,-1.7582,-1.7615,-1.7903,-1.7822,-1.7629,-1.7943,-1.8243,-1.8544,-1.8831,-1.9125,-1.9366,-1.9366,-1.9366,-1.9366,-1.9366,-1.8958,-1.8591,-1.8858,-1.8724,-1.8531,-1.8531,-1.8551,-1.8644,-1.8911,-1.8731,-1.8524,-1.8497,-1.9552,-1.9765,-1.83,-1.9113,-1.944,-1.7907,-1.7642,-1.7622,-1.7622,-1.8729,-1.9435,-1.9465,-2.0906,-2.1748,-2.1748,-2.1528,-2.1444,-2.1444,-2.169,-2.127,-2.0005,-2.0207,-1.9692,-1.813,-1.839,-1.821,-1.7582,-1.7609,-1.7756,-1.8009,-1.8029,-1.8029,-1.8009,-1.8036,-1.7869,-1.7582,-1.7582,-1.7582,-1.7582,-1.7582,-1.7582,-1.7582,-1.7582,-1.7582,-1.7582,-1.102,-1.1856,-1.2813,-1.3168,-1.4242,-1.5074,-1.5074,-1.6497,-1.7091,-1.579,-1.6738,-1.7566,-1.7566,-1.7566,-1.8046,-1.9249,-1.9366,-1.9366,-1.9366,-1.9366,-1.9366,-1.9366,-1.9366,-1.9366,-1.9366,-1.9305,-1.9158,-1.8925,-1.8631,-1.8337,-1.8043,-1.7796,-1.7649,-1.7582,-1.7582,-1.7582,-1.7582,-1.7582,-1.7582,-1.7582,-1.7582,-1.7582,-1.7582,-1.7582,-1.7582,-1.7589,-1.7655,-1.7642,-1.7629,-1.7943,-1.8243,-1.8544,-1.8831,-1.9125,-1.9366,-1.9366,-1.9366,-1.9366,-1.9366,-1.9105,-1.8844,-1.8911,-1.8878,-1.8831,-1.8831,-1.9011,-1.9199,-1.9259,-1.9038,-1.8764,-1.8537,-1.8705,-1.8707,-1.8096,-1.8455,-1.8687,-1.8413,-1.8096,-1.7949,-1.7949,-1.7934,-1.8085,-1.8317,-1.8951,-1.9248,-1.9248,-1.9178,-1.9143,-1.9143,-1.943,-1.9494,-1.9166,-1.946,-1.9367,-1.8738,-1.8798,-1.841,-1.7589,-1.7829,-1.7856,-1.7689,-1.7936,-1.7916,-1.7695,-1.7943,-1.7869,-1.7582,-1.7582,-1.7582,-1.7582,-1.7582,-1.7582,-1.7582,-1.7582,-1.7582,-1.7582,-1.0989,-1.0959,-1.1164,-1.208,-1.2933,-1.3765,-1.4485,-1.602,-1.6968,-1.6862,-1.7572,-1.8163,-1.8163,-1.8163,-1.8525,-1.9366,-1.9366,-1.9366,-1.9366,-1.9366,-1.9366,-1.9366,-1.9366,-1.9366,-1.9366,-1.9225,-1.9011,-1.8718,-1.8564,-1.8263,-1.7822,-1.7809,-1.7722,-1.7582,-1.7582,-1.7582,-1.7582,-1.7582,-1.7582,-1.7582,-1.7582,-1.7582,-1.7582,-1.7582,-1.7582,-1.7582,-1.7582,-1.7582,-1.7609,-1.7769,-1.8029,-1.833,-1.8624,-1.8918,-1.9185,-1.9325,-1.9265,-1.9185,-1.9332,-1.9045,-1.8751,-1.8885,-1.8925,-1.8925,-1.8925,-1.9152,-1.9366,-1.9366,-1.9245,-1.9085,-1.8938,-1.8905,-1.8811,-1.8517,-1.8597,-1.8651,-1.851,-1.8357,-1.8257,-1.8257,-1.7989,-1.7923,-1.821,-1.8263,-1.8397,-1.8677,-1.8571,-1.849,-1.849,-1.8764,-1.8925,-1.8925,-1.9212,-1.9225,-1.8925,-1.9065,-1.8758,-1.8016,-1.8176,-1.8243,-1.8217,-1.8103,-1.8036,-1.8009,-1.7883,-1.7736,-1.7582,-1.7582,-1.7582,-1.7582,-1.7582,-1.7582,-1.7582,-1.7582,-1.7582,-1.7582,-1.1474,-1.0595,-1.0087,-1.1543,-1.1786,-1.2141,-1.3517,-1.5392,-1.6921,-1.8046,-1.8648,-1.9004,-1.9004,-1.9243,-1.9366,-1.9366,-1.9366,-1.9366,-1.9366,-1.9366,-1.9366,-1.9366,-1.9366,-1.9366,-1.9366,-1.9125,-1.8858,-1.8564,-1.8517,-1.8203,-1.7669,-1.7923,-1.7883,-1.7582,-1.7582,-1.7582,-1.7582,-1.7582,-1.7582,-1.7582,-1.7582,-1.7582,-1.7582,-1.7582,-1.7582,-1.7582,-1.7582,-1.7582,-1.7582,-1.7582,-1.7789,-1.8096,-1.8397,-1.8691,-1.8985,-1.9279,-1.9192,-1.9052,-1.9299,-1.8978,-1.8637,-1.8925,-1.8958,-1.8938,-1.8985,-1.9192,-1.9366,-1.9366,-1.9366,-1.9352,-1.9299,-1.9332,-1.9272,-1.8971,-1.8965,-1.8918,-1.8671,-1.8597,-1.8564,-1.8564,-1.835,-1.829,-1.8544,-1.839,-1.8477,-1.8958,-1.8778,-1.8637,-1.8637,-1.8865,-1.8998,-1.8998,-1.9239,-1.9252,-1.8998,-1.9245,-1.9125,-1.8637,-1.8637,-1.8718,-1.8831,-1.8343,-1.8257,-1.8464,-1.7956,-1.7736,-1.7736,-1.7682,-1.7662,-1.7655,-1.7602,-1.7582,-1.7582,-1.7582,-1.7582,-1.7582,-0.9778,-0.9538,-0.9576,-0.9846,-0.9877,-0.9877,-1.0379,-1.2899,-1.4377,-1.3264,-1.5542,-1.7325,-1.7325,-1.8525,-1.9366,-1.9366,-1.9366,-1.9366,-1.9366,-1.9366,-1.9366,-1.9366,-1.9366,-1.9366,-1.9366,-1.9325,-1.9158,-1.8865,-1.8611,-1.8317,-1.7989,-1.8023,-1.7883,-1.7582,-1.7582,-1.7582,-1.7582,-1.7582,-1.7582,-1.7582,-1.7582,-1.7582,-1.7582,-1.7582,-1.7582,-1.7582,-1.7582,-1.7582,-1.7582,-1.7582,-1.7789,-1.8096,-1.8397,-1.8691,-1.8985,-1.9279,-1.9339,-1.9319,-1.9359,-1.9118,-1.8938,-1.9232,-1.9112,-1.8991,-1.9252,-1.9339,-1.9366,-1.9366,-1.9366,-1.9292,-1.9032,-1.9192,-1.9272,-1.8971,-1.9138,-1.9292,-1.9252,-1.9032,-1.8865,-1.8865,-1.8831,-1.8824,-1.8865,-1.9065,-1.9219,-1.9299,-1.9272,-1.9252,-1.9252,-1.9285,-1.9305,-1.9305,-1.9345,-1.9352,-1.9305,-1.9352,-1.9325,-1.9252,-1.9252,-1.9005,-1.8544,-1.847,-1.8457,-1.849,-1.8404,-1.837,-1.835,-1.809,-1.7983,-1.7956,-1.7689,-1.7582,-1.7582,-1.7582,-1.7582,-1.7582,-0.9351,-0.9313,-0.9303,-0.9456,-0.9425,-0.9771,-1.0722,-1.2069,-1.2966,-1.3277,-1.5254,-1.6298,-1.5489,-1.6085,-1.7053,-1.7917,-1.8046,-1.8402,-1.9366,-1.9366,-1.9366,-1.9366,-1.9366,-1.9366,-1.9366,-1.9205,-1.9138,-1.9172,-1.9045,-1.8744,-1.8297,-1.8297,-1.8136,-1.7836,-1.7662,-1.7582,-1.7582,-1.7582,-1.7582,-1.7582,-1.7582,-1.7582,-1.7582,-1.7582,-1.7582,-1.7602,-1.7776,-1.7842,-1.7862,-1.8029,-1.8183,-1.8343,-1.8644,-1.8818,-1.8985,-1.9279,-1.9252,-1.9158,-1.9325,-1.9152,-1.8991,-1.9292,-1.9265,-1.9205,-1.9339,-1.9366,-1.9366,-1.9366,-1.9366,-1.9325,-1.9199,-1.9279,-1.9325,-1.9192,-1.9279,-1.9366,-1.9366,-1.9252,-1.9112,-1.8945,-1.8925,-1.8925,-1.8925,-1.9038,-1.9192,-1.9359,-1.9366,-1.9366,-1.9366,-1.9366,-1.9366,-1.9366,-1.9366,-1.9366,-1.9366,-1.9366,-1.9366,-1.9366,-1.9366,-1.9232,-1.8978,-1.8811,-1.8731,-1.8724,-1.8564,-1.849,-1.847,-1.817,-1.805,-1.8016,-1.7702,-1.7582,-1.7582,-1.7582,-1.7582,-1.7582]},{"header":{"parameterUnit":"m.s-1","parameterCategory":1,"la1":30.6,"la2":28.766,"lo1":-90.7593,"lo2":-88.6598,"dy":0.0162,"dx":0.0183,"nx":116,"ny":114,"refTime":"2023-05-16T00:00:00:Z","depth":0,"parameterNumber":3,"parameterNumberName":"V-component_of_WINDS"},"data":[0.0,0.0,0.0,0.0,0.0,0.0,0.0,0.0,0.0,0.0,0.0,0.0,0.0,0.0,0.0,0.0,0.0,0.0,0.0,0.0,0.0,0.0,0.0,0.0,0.0,0.0,0.0,0.0,0.0,0.0,0.0,0.0,0.0,0.0,0.0,0.0,0.0,0.0,0.0,0.0,0.0,0.0,0.0,0.0,0.0,0.0,0.0,0.0,0.0,0.0,0.0,0.0,0.0,0.0,0.0,0.0,0.0,0.0,0.0,0.0,0.0,0.0,0.0,0.0,0.0,0.0,0.0,0.0,0.0,0.0,0.0,0.0,0.0,0.0,0.0,0.0,0.0,0.0,0.0,0.0,0.0,0.0,0.0,0.0,0.0,0.0,0.0,0.0,0.0,0.0,0.0,0.0,0.0,0.0,0.0,0.0,0.0,0.0,0.0,0.0,0.0,0.0,0.0,0.0,0.0,0.0,0.0,0.0,0.0,0.0,0.0,0.0,0.0,0.0,0.0,0.0,0.0,0.0,0.0,0.0,0.0,0.0,0.0,0.0,0.0,0.0,0.0,0.0,0.0,0.0,0.0,0.0,0.0,0.0,0.0,0.0,0.0,0.0,0.0,0.0,0.0,0.0,0.0,0.0,0.0,0.0,0.0,0.0,0.0,0.0,0.0,0.0,0.0,0.0,0.0,0.0,0.0,0.0,0.0,0.0,0.0,0.0,0.0,0.0,0.0,0.0,0.0,0.0,0.0,0.0,0.0,0.0,0.0,0.0,0.0,0.0,0.0,0.0,0.0,0.0,0.0,0.0,0.0,0.0,0.0,0.0,0.0,0.0,0.0,0.0,0.0,0.0,0.0,0.0,0.0,0.0,0.0,0.0,0.0,0.0,0.0,0.0,0.0,0.0,0.0,0.0,0.0,0.0,0.0,0.0,0.0,0.0,0.0,0.0,0.0,0.0,0.0,0.0,0.0,0.0,0.0,0.0,0.0,0.0,0.0,0.0,0.0,0.0,0.0,0.0,0.0,0.0,0.0,0.0,0.0,0.0,0.0,0.0,0.0,0.0,0.0,0.0,0.0,0.0,0.0,0.0,0.0,0.0,0.0,0.0,0.0,0.0,0.0,0.0,0.0,0.0,0.0,0.0,0.0,0.0,0.0,0.0,0.0,0.0,0.0,0.0,0.0,0.0,0.0,0.0,0.0,0.0,0.0,0.0,0.0,0.0,0.0,0.0,0.0,0.0,0.0,0.0,0.0,0.0,0.0,0.0,0.0,0.0,0.0,0.0,0.0,0.0,0.0,0.0,0.0,0.0,0.0,0.0,0.0,0.0,0.0,0.0,0.0,0.0,0.0,0.0,0.0,0.0,0.0,0.0,0.0,0.0,0.0,0.0,0.0,0.0,0.0,0.0,0.0,0.0,0.0,0.0,0.0,0.0,0.0,0.0,0.0,0.0,0.0,0.0,0.0,0.0,0.0,0.0,0.0,0.0,0.0,0.0,0.0,0.0,0.0,0.0,0.0,0.0,0.0,0.0,0.0,0.0,0.0,0.0,0.0,0.0,0.0,0.0,0.0,0.0,0.0,0.0,0.0,0.0,0.0,0.0,0.0,0.0,0.0,0.0,0.0,0.0,0.0,0.0,0.0,0.0,0.0,0.0,0.0,0.0,0.0,0.0,0.0,0.0,0.0,0.0,0.0,0.0,0.0,0.0,0.0,0.0,0.0,0.0,0.0,0.0,0.0,0.0,0.0,0.0,0.0,0.0,0.0,0.0,0.0,0.0,0.0,0.0,0.0,0.0,0.0,0.0,0.0,0.0,0.0,0.0,0.0,0.0,0.0,0.0,0.0,0.0,0.0,0.0,0.0,0.0,0.0,0.0,0.0,0.0,0.0,0.0,0.0,0.0,0.0,0.0,0.0,0.0,0.0,0.0,0.0,0.0,0.0,0.0,0.0,0.0,0.0,0.0,0.0,0.0,0.0,0.0,0.0,0.0,0.0,0.0,0.0,0.0,0.0,0.0,0.0,0.0,0.0,0.0,0.0,0.0,0.0,0.0,0.0,0.0,0.0,0.0,0.0,0.0,0.0,0.0,0.0,0.0,0.0,0.0,0.0,0.0,0.0,0.0,0.0,0.0,0.0,0.0,0.0,0.0,0.0,0.0,0.0,0.0,0.0,0.0,0.0,0.0,0.0,0.0,0.0,0.0,0.0,0.0,0.0,0.0,0.0,0.0,0.0,0.0,0.0,0.0,0.0,0.0,0.0,0.0,0.0,0.0,0.0,0.0,0.0,0.0,0.0,0.0,0.0,0.0,0.0,0.0,0.0,0.0,0.0,0.0,0.0,0.0,0.0,0.0,0.0,0.0,0.0,0.0,0.0,0.0,0.0,0.0,0.0,0.0,0.0,0.0,0.0,0.0,0.0,0.0,0.0,0.0,0.0,0.0,0.0,0.0,0.0,0.0,0.0,0.0,0.0,0.0,0.0,0.0,0.0,0.0,0.0,0.0,0.0,0.0,0.0,0.0,0.0,0.0,0.0,0.0,0.0,0.0,0.0,0.0,0.0,0.0,0.0,0.0,0.0,0.0,0.0,0.0,0.0,0.0,0.0,0.0,0.0,0.0,0.0,0.0,0.0,0.0,0.0,0.0,0.0,0.0,0.0,0.0,0.0,0.0,0.0,0.0,0.0,0.0,0.0,0.0,0.0,0.0,0.0,0.0,0.0,0.0,0.0,0.0,0.0,0.0,0.0,0.0,0.0,0.0,0.0,0.0,0.0,0.0,0.0,0.0,0.0,0.0,0.0,0.0,0.0,0.0,0.0,0.0,0.0,0.0,0.0,0.0,0.0,0.0,0.0,0.0,0.0,0.0,0.0,0.0,0.0,0.0,0.0,0.0,0.0,0.0,0.0,0.0,0.0,0.0,0.0,0.0,0.0,0.0,0.0,0.0,0.0,0.0,0.0,0.0,0.0,0.0,0.0,0.0,0.0,0.0,0.0,0.0,0.0,0.0,0.0,0.0,0.0,0.0,0.0,0.0,0.0,0.0,0.0,0.0,0.0,0.0,0.0,0.0,0.0,0.0,0.0,0.0,0.0,0.0,0.0,0.0,0.0,0.0,0.0,0.0,0.0,0.0,0.0,0.0,0.0,0.0,0.0,0.0,0.0,0.0,0.0,0.0,0.0,0.0,0.0,0.0,0.0,0.0,0.0,0.0,0.0,0.0,0.0,0.0,0.0,0.0,0.0,0.0,0.0,0.0,0.0,0.0,0.0,0.0,0.0,0.0,0.0,0.0,0.0,0.0,0.0,0.0,0.0,0.0,0.0,0.0,0.0,0.0,0.0,0.0,0.0,0.0,0.0,0.0,0.0,0.0,0.0,0.0,0.0,0.0,0.0,0.0,0.0,0.0,0.0,0.0,0.0,0.0,0.0,0.0,0.0,0.0,0.0,0.0,0.0,0.0,0.0,0.0,0.0,0.0,0.0,0.0,0.0,0.0,0.0,0.0,0.0,0.0,0.0,0.0,0.0,0.0,0.0,0.0,0.0,0.0,0.0,0.0,0.0,0.0,0.0,0.0,0.0,0.0,0.0,0.0,0.0,0.0,0.0,0.0,0.0,0.0,0.0,0.0,0.0,0.0,0.0,0.0,0.0,0.0,0.0,0.0,0.0,0.0,0.0,0.0,0.0,0.0,0.0,0.0,0.0,0.0,0.0,0.0,0.0,0.0,0.0,0.0,0.0,0.0,0.0,0.0,0.0,0.0,0.0,0.0,0.0,0.0,0.0,0.0,0.0,0.0,0.0,0.0,0.0,0.0,0.0,0.0,0.0,0.0,0.0,0.0,0.0,0.0,0.0,0.0,0.0,0.0,0.0,0.0,0.0,0.0,0.0,0.0,0.0,0.0,0.0,0.0,0.0,0.0,0.0,0.0,0.0,0.0,0.0,0.0,0.0,0.0,0.0,0.0,0.0,0.0,0.0,0.0,0.0,0.0,0.0,0.0,0.0,0.0,0.0,0.0,0.0,0.0,0.0,0.0,0.0,0.0,0.0,0.0,0.0,0.0,0.0,0.0,0.0,0.0,0.0,0.0,0.0,0.0,0.0,0.0,0.0,0.0,0.0,0.0,0.0,0.0,0.0,0.0,0.0,0.0,0.0,0.0,0.0,0.0,0.0,0.0,0.0,0.0,0.0,0.0,0.0,0.0,0.0,0.0,0.0,0.0,0.0,0.0,0.0,0.0,0.0,0.0,0.0,0.0,0.0,0.0,0.0,0.0,0.0,0.0,0.0,0.0,0.0,0.0,0.0,0.0,0.0,0.0,0.0,0.0,0.0,0.0,0.0,0.0,0.0,0.0,0.0,0.0,0.0,0.0,0.0,0.0,0.0,0.0,0.0,0.0,0.0,0.0,0.0,0.0,0.0,0.0,0.0,0.0,0.0,0.0,0.0,0.0,0.0,0.0,0.0,0.0,0.0,0.0,0.0,0.0,0.0,0.0,0.0,0.0,0.0,0.0,0.0,0.0,0.0,0.0,0.0,0.0,0.0,0.0,0.0,0.0,0.0,0.0,0.0,0.0,0.0,0.0,0.0,0.0,0.0,0.0,0.0,0.0,0.0,0.0,0.0,0.0,0.0,0.0,0.0,0.0,0.0,0.0,0.0,0.0,0.0,0.0,0.0,0.0,0.0,0.0,0.0,0.0,0.0,0.0,0.0,0.0,0.0,0.0,0.0,0.0,0.0,0.0,0.0,0.0,0.0,0.0,0.0,0.0,0.0,0.0,0.0,0.0,0.0,0.0,0.0,0.0,0.0,0.0,0.0,0.0,0.0,0.0,0.0,0.0,0.0,0.0,0.0,0.0,0.0,0.0,0.0,0.0,0.0,0.0,0.0,0.0,0.0,0.0,0.0,0.0,0.0,0.0,0.0,0.0,0.0,0.0,0.0,0.0,0.0,0.0,0.0,0.0,0.0,0.0,0.0,0.0,0.0,0.0,0.0,0.0,0.0,0.0,0.0,0.0,0.0,0.0,0.0,0.0,0.0,0.0,0.0,0.0,0.0,0.0,0.0,0.0,0.0,0.0,0.0,0.0,0.0,0.0,0.0,0.0,0.0,0.0,0.0,0.0,0.0,0.0,0.0,0.0,0.0,0.0,0.0,0.0,0.0,0.0,0.0,0.0,0.0,0.0,0.0,0.0,0.0,0.0,0.0,0.0,0.0,0.0,0.0,0.0,0.0,0.0,0.0,0.0,0.0,0.0,0.0,0.0,0.0,0.0,0.0,0.0,0.0,0.0,0.0,0.0,0.0,0.0,0.0,0.0,0.0,0.0,0.0,0.0,0.0,0.0,0.0,0.0,0.0,0.0,0.0,0.0,0.0,0.0,0.0,0.0,0.0,0.0,0.0,0.0,0.0,0.0,0.0,0.0,0.0,0.0,0.0,0.0,0.0,0.0,0.0,0.0,0.0,0.0,0.0,0.0,0.0,0.0,0.0,0.0,0.0,0.0,0.0,0.0,0.0,0.0,0.0,0.0,0.0,0.0,0.0,0.0,0.0,0.0,0.0,0.0,0.0,0.0,0.0,0.0,0.0,0.0,0.0,0.0,0.0,0.0,0.0,0.0,0.0,0.0,0.0,0.0,0.0,0.0,0.0,0.0,0.0,0.0,0.0,0.0,0.0,0.0,0.0,0.0,0.0,0.0,0.0,0.0,0.0,0.0,0.0,0.0,0.0,0.0,0.0,0.0,0.0,0.0,0.0,0.0,0.0,0.0,0.0,0.0,0.0,0.0,0.0,0.0,0.0,0.0,0.0,0.0,0.0,0.0,0.0,0.0,0.0,0.0,0.0,0.0,0.0,0.0,0.0,0.0,0.0,0.0,0.0,0.0,0.0,0.0,0.0,0.0,0.0,0.0,0.0,0.0,0.0,0.0,0.0,0.0,0.0,0.0,0.0,0.0,0.0,0.0,0.0,0.0,0.0,0.0,0.0,0.0,0.0,0.0,0.0,0.0,0.0,0.0,0.0,0.0,0.0,0.0,0.0,0.0,0.0,0.0,0.0,0.0,0.0,0.0,0.0,0.0,0.0,0.0,0.0,0.0,0.0,0.0,-2.7679,0.0,0.0,0.0,0.0,0.0,0.0,0.0,0.0,0.0,0.0,0.0,0.0,0.0,0.0,0.0,0.0,0.0,0.0,0.0,0.0,0.0,0.0,0.0,0.0,0.0,0.0,0.0,0.0,0.0,0.0,0.0,0.0,0.0,0.0,0.0,0.0,0.0,0.0,0.0,0.0,0.0,0.0,0.0,0.0,0.0,0.0,0.0,0.0,0.0,0.0,0.0,0.0,0.0,0.0,0.0,0.0,0.0,0.0,0.0,0.0,0.0,0.0,0.0,0.0,0.0,0.0,0.0,0.0,0.0,0.0,0.0,0.0,0.0,0.0,0.0,0.0,0.0,0.0,0.0,0.0,0.0,0.0,0.0,0.0,0.0,0.0,0.0,0.0,0.0,0.0,0.0,0.0,0.0,0.0,0.0,0.0,0.0,0.0,0.0,0.0,0.0,0.0,0.0,0.0,0.0,0.0,0.0,0.0,0.0,0.0,0.0,0.0,0.0,0.0,0.0,0.0,-2.8837,0.0,0.0,0.0,0.0,0.0,0.0,0.0,0.0,0.0,0.0,0.0,0.0,0.0,0.0,0.0,0.0,0.0,0.0,0.0,0.0,0.0,0.0,0.0,0.0,0.0,0.0,0.0,0.0,0.0,0.0,0.0,0.0,0.0,0.0,0.0,0.0,0.0,0.0,0.0,0.0,0.0,0.0,0.0,0.0,0.0,0.0,0.0,0.0,0.0,0.0,0.0,0.0,0.0,0.0,0.0,0.0,0.0,0.0,0.0,0.0,0.0,0.0,0.0,0.0,0.0,0.0,0.0,0.0,0.0,0.0,0.0,0.0,0.0,0.0,0.0,0.0,0.0,0.0,0.0,0.0,0.0,0.0,0.0,0.0,0.0,0.0,0.0,0.0,0.0,0.0,0.0,0.0,0.0,0.0,0.0,0.0,0.0,0.0,0.0,0.0,0.0,0.0,0.0,0.0,0.0,0.0,0.0,0.0,-3.1017,-3.1905,-3.2277,-3.2884,-3.3221,-3.3146,-3.1801,-3.165,-3.222,0.0,0.0,0.0,0.0,0.0,0.0,0.0,0.0,0.0,0.0,0.0,0.0,0.0,0.0,0.0,0.0,0.0,0.0,0.0,0.0,0.0,0.0,0.0,0.0,0.0,0.0,0.0,0.0,0.0,0.0,0.0,0.0,0.0,0.0,0.0,0.0,0.0,0.0,0.0,-3.5281,-3.524,-3.57,-3.6372,-3.4561,0.0,0.0,0.0,0.0,0.0,0.0,0.0,0.0,0.0,0.0,0.0,0.0,0.0,0.0,0.0,0.0,0.0,0.0,0.0,0.0,0.0,0.0,0.0,0.0,0.0,0.0,0.0,0.0,0.0,0.0,0.0,0.0,0.0,0.0,0.0,0.0,0.0,0.0,0.0,0.0,0.0,0.0,0.0,-2.1903,-2.1499,0.0,0.0,0.0,0.0,0.0,0.0,0.0,0.0,0.0,0.0,0.0,0.0,0.0,0.0,-2.8138,-3.0361,-3.1516,-3.1676,-3.3833,-3.4698,-3.431,-3.4385,-3.4673,-3.5111,-3.4898,0.0,-3.2713,-3.2909,0.0,0.0,0.0,0.0,0.0,0.0,0.0,0.0,0.0,0.0,0.0,0.0,0.0,0.0,0.0,0.0,0.0,0.0,0.0,0.0,0.0,0.0,0.0,0.0,0.0,0.0,0.0,0.0,0.0,0.0,0.0,0.0,0.0,0.0,0.0,0.0,-3.3789,-3.5465,-3.6503,-3.687,-3.7038,-3.698,-3.6345,-3.5557,-3.4668,-3.4302,0.0,0.0,0.0,0.0,0.0,0.0,0.0,0.0,0.0,0.0,0.0,0.0,0.0,0.0,0.0,0.0,0.0,0.0,0.0,0.0,0.0,0.0,0.0,0.0,0.0,0.0,0.0,0.0,0.0,0.0,0.0,0.0,0.0,0.0,0.0,0.0,0.0,0.0,0.0,-2.1922,-2.1583,-2.1178,-2.123,-2.1214,0.0,0.0,0.0,0.0,0.0,0.0,0.0,0.0,0.0,-2.8527,-2.9334,-3.0501,-3.2006,-3.3355,-3.4205,-3.4472,-3.5855,-3.6332,-3.6107,-3.6107,-3.6232,-3.6445,-3.6144,-3.5546,-3.4806,-3.4914,-3.4443,-3.3622,0.0,0.0,0.0,0.0,0.0,-3.2848,0.0,0.0,0.0,0.0,0.0,0.0,0.0,0.0,0.0,0.0,0.0,0.0,0.0,0.0,0.0,-2.3802,0.0,0.0,0.0,0.0,0.0,0.0,0.0,0.0,0.0,0.0,0.0,-3.4105,-3.5133,-3.6209,-3.735,-3.7498,-3.7231,-3.6683,-3.7017,-3.6649,-3.5778,-3.4917,-3.3897,0.0,0.0,0.0,0.0,0.0,0.0,0.0,0.0,0.0,0.0,0.0,0.0,0.0,0.0,0.0,0.0,0.0,0.0,0.0,0.0,0.0,0.0,0.0,0.0,0.0,0.0,0.0,0.0,0.0,0.0,0.0,0.0,0.0,0.0,0.0,0.0,0.0,0.0,-2.1992,-2.2039,-2.1331,-2.2339,-2.2756,0.0,0.0,0.0,0.0,0.0,0.0,-2.8241,-2.914,-3.0422,-3.1847,-3.2723,-3.3871,-3.5341,-3.5906,-3.6445,-3.701,-3.7274,-3.74,-3.7387,-3.7098,-3.6973,-3.6948,-3.6533,-3.6358,-3.642,-3.6592,-3.6143,-3.5528,-3.6085,-3.6043,-3.5742,-3.558,-3.5219,-3.4877,0.0,0.0,0.0,0.0,0.0,0.0,0.0,0.0,0.0,0.0,0.0,0.0,0.0,0.0,-2.7019,-2.6115,-2.5935,-2.5931,0.0,0.0,0.0,0.0,0.0,0.0,0.0,0.0,0.0,-3.5776,-3.4802,-3.5491,-3.7721,-3.6322,-3.5859,-3.6223,-3.6247,-3.6499,-3.6837,-3.5177,-3.4372,-3.397,0.0,0.0,0.0,0.0,0.0,0.0,0.0,0.0,0.0,0.0,0.0,0.0,0.0,0.0,0.0,0.0,0.0,0.0,0.0,0.0,0.0,0.0,0.0,0.0,0.0,0.0,0.0,0.0,0.0,0.0,0.0,0.0,0.0,0.0,0.0,0.0,0.0,0.0,0.0,-2.3042,-2.591,0.0,0.0,0.0,0.0,-2.8222,-2.8563,-2.9694,-3.1709,-3.2575,-3.401,-3.6069,-3.6144,-3.6445,-3.7061,-3.7613,-3.8178,-3.8743,-3.8216,-3.7965,-3.7939,-3.6872,-3.6408,-3.6408,-3.637,-3.6358,-3.6445,-3.7424,-3.7799,-3.78,-3.8823,-3.9173,-3.9068,-3.8411,-3.8172,-3.8083,0.0,0.0,0.0,0.0,0.0,0.0,0.0,0.0,0.0,0.0,0.0,0.0,0.0,-2.945,-2.9246,-2.8356,-2.87,-2.8912,-2.8765,0.0,0.0,0.0,0.0,0.0,0.0,0.0,-3.2307,-3.3141,-3.2909,-3.3001,-3.3423,-3.2999,-3.3085,-3.3623,-3.3556,-3.3879,-3.4392,-3.4729,-3.4234,-3.317,-3.2384,-3.2048,0.0,0.0,0.0,0.0,0.0,0.0,0.0,0.0,0.0,0.0,0.0,0.0,0.0,0.0,0.0,0.0,0.0,0.0,0.0,0.0,0.0,0.0,0.0,0.0,0.0,0.0,0.0,0.0,0.0,0.0,0.0,0.0,0.0,0.0,0.0,0.0,0.0,-2.6702,-2.8948,0.0,-2.9098,-3.0037,-3.098,-3.1675,-3.3015,-3.4237,-3.5282,-3.6015,-3.6547,-3.6885,-3.7236,-3.7513,-3.7713,-3.8278,-3.8668,-3.8856,-3.8278,-3.7814,-3.745,-3.6697,-3.6358,-3.6358,-3.6358,-3.6358,-3.6508,-3.837,-3.8916,-3.8755,-4.0568,-4.1055,-4.0606,-3.9933,-3.9679,-3.9619,0.0,0.0,0.0,0.0,0.0,0.0,0.0,0.0,0.0,0.0,0.0,-3.166,-3.1986,-3.2476,-3.2514,-3.1851,-3.1706,-3.1453,-3.0988,0.0,0.0,0.0,0.0,0.0,0.0,-3.0976,-3.0866,-3.108,-3.033,-2.972,-2.9232,-2.9169,-2.9432,-2.9983,-3.0325,-3.095,-3.1861,-3.351,-3.3722,-3.2841,-3.2957,-3.2871,-3.2653,0.0,0.0,0.0,0.0,0.0,0.0,0.0,0.0,0.0,0.0,0.0,0.0,0.0,0.0,0.0,0.0,0.0,0.0,0.0,0.0,0.0,0.0,0.0,0.0,0.0,0.0,0.0,0.0,0.0,0.0,0.0,0.0,0.0,0.0,0.0,-2.9035,-2.9444,-3.1751,-3.297,-3.1829,-3.3154,-3.4408,-3.5057,-3.6471,-3.7374,-3.7726,-3.8278,-3.8329,-3.7776,-3.8115,-3.8304,-3.8304,-3.868,-3.8956,-3.9145,-3.8366,-3.7814,-3.7437,-3.6697,-3.6358,-3.6358,-3.6358,-3.6628,-3.7163,-3.9108,-3.9895,-3.9999,-4.176,-4.2087,-4.1609,-4.0726,-4.0397,-4.0322,0.0,0.0,0.0,0.0,0.0,0.0,0.0,0.0,0.0,0.0,-3.2447,-3.3759,-3.5435,-3.626,-3.6652,-3.658,-3.4922,-3.353,-3.2689,-3.1692,0.0,0.0,0.0,0.0,-3.2562,-2.9362,-2.8365,-2.9826,-2.7194,-2.5772,-2.5655,-2.5006,-2.4963,-2.563,-2.6772,-2.8087,-2.9644,-3.1717,-3.282,-3.3202,-3.412,-3.4149,-3.3709,0.0,0.0,0.0,0.0,0.0,0.0,0.0,0.0,0.0,0.0,0.0,0.0,0.0,0.0,0.0,0.0,0.0,0.0,0.0,0.0,0.0,0.0,0.0,0.0,0.0,0.0,0.0,0.0,0.0,0.0,0.0,0.0,0.0,-2.7403,-3.0087,-3.1833,-3.107,-3.4442,-3.6326,-3.4992,-3.6801,-3.8052,-3.8052,-3.858,-3.8894,-3.8894,-3.9408,-3.9433,-3.8894,-3.8894,-3.8881,-3.8843,-3.8881,-3.9145,-3.9622,-3.853,-3.8002,-3.7939,-3.686,-3.6358,-3.6358,-3.6345,-3.7044,-3.8081,-3.9332,-4.0547,-4.1583,-4.2204,-4.2387,-4.2207,-4.0905,-4.0397,-4.0277,0.0,0.0,0.0,0.0,0.0,0.0,0.0,0.0,0.0,0.0,-3.2607,-3.4337,-3.5819,-3.7611,-3.8722,-3.8679,-3.8223,-3.7376,-3.6061,0.0,0.0,0.0,0.0,0.0,-3.0593,-2.7687,-2.6236,-2.6371,-2.4021,-2.28,-2.2598,-2.201,-2.2811,-2.4706,-2.564,-2.7066,-2.894,-3.1788,-3.3339,-3.3981,-3.4891,-3.5187,-3.5059,0.0,0.0,0.0,0.0,0.0,0.0,0.0,0.0,0.0,0.0,0.0,0.0,0.0,0.0,0.0,0.0,0.0,0.0,0.0,0.0,0.0,0.0,0.0,0.0,0.0,0.0,0.0,0.0,0.0,0.0,0.0,0.0,-3.2068,-3.1953,-3.3397,-3.5064,-3.6493,-3.7925,-3.8733,-3.8388,-3.8841,-3.9233,-3.9233,-3.9383,-3.9471,-3.9471,-3.9609,-3.9433,-3.8894,-3.9258,-3.9069,-3.8253,-3.9057,-3.9132,-3.8467,-3.8153,-3.7801,-3.7387,-3.6684,-3.6358,-3.6345,-3.5943,-3.5941,-3.6363,-3.8445,-3.9464,-3.9915,-4.2166,-4.2776,-4.2267,-4.1414,-4.0502,-3.9664,0.0,0.0,0.0,0.0,0.0,0.0,0.0,0.0,0.0,0.0,-3.3278,-3.5431,-3.7317,-3.9505,-4.0795,-4.0687,-3.9976,-3.8924,-3.7627,0.0,0.0,0.0,0.0,-2.9277,-2.9112,-2.629,-2.4231,-2.308,-2.1506,-2.0422,-1.9956,-2.0009,-2.1151,-2.3138,-2.4863,-2.6738,-2.8982,-3.2162,-3.404,-3.4912,-3.6358,-3.6846,-3.6694,-3.6885,-3.6791,-3.662,-3.7043,-3.7295,-3.7451,-3.7394,0.0,0.0,0.0,0.0,0.0,0.0,0.0,0.0,0.0,0.0,0.0,0.0,0.0,0.0,0.0,0.0,0.0,0.0,0.0,0.0,0.0,0.0,0.0,0.0,-3.3308,-3.4981,-3.575,-3.6467,-3.7479,-3.9005,-3.9496,-3.9697,-3.9697,-3.9697,-3.9697,-3.9697,-3.9697,-3.9697,-3.9697,-3.9697,-3.9546,-3.922,-3.9534,-3.9383,-3.8718,-3.9132,-3.9019,-3.8366,-3.7889,-3.75,-3.7161,-3.6609,-3.6232,0.0,-3.568,-3.5805,-3.6406,-3.7765,-3.8861,0.0,0.0,0.0,0.0,0.0,-4.0069,-3.9429,0.0,0.0,0.0,0.0,0.0,0.0,0.0,0.0,0.0,0.0,0.0,-3.6517,-3.8958,-4.122,-4.2438,-4.2252,-4.0589,-3.9081,0.0,0.0,0.0,-3.3686,-3.0958,-2.8971,-2.7982,-2.5061,-2.2483,-2.0342,-1.9541,-1.8787,-1.8008,-1.8911,-2.0128,-2.1672,-2.4427,-2.6971,-2.9338,-3.2783,-3.4775,-3.5826,-3.8017,-3.8636,-3.8302,-3.8438,-3.8253,-3.7983,-3.8607,-3.849,-3.8196,-3.9355,0.0,0.0,0.0,0.0,0.0,0.0,0.0,0.0,0.0,0.0,0.0,0.0,0.0,0.0,0.0,0.0,0.0,0.0,0.0,0.0,0.0,0.0,0.0,0.0,-3.577,-3.7207,-3.8919,-3.9247,-3.9335,-3.9827,-3.9878,-3.9981,-4.007,-3.9981,-3.9878,-3.9878,-3.9788,-3.9697,-3.9697,0.0,0.0,0.0,0.0,-3.9597,-3.9597,-3.9044,-3.8743,-3.8668,-3.7663,-3.7149,-3.7073,-3.6584,-3.6094,-3.5642,-3.5567,-3.6146,-3.7072,-3.725,-3.8646,-4.0833,-4.1878,-4.1848,-4.113,-3.9963,-3.9488,0.0,0.0,0.0,0.0,0.0,0.0,0.0,0.0,0.0,0.0,-3.0866,-3.3214,-3.5532,-3.7358,-3.9849,-4.1498,-4.172,-4.0554,-3.9176,0.0,0.0,-3.3766,-3.3572,-3.0724,-2.8408,-2.6713,-2.3496,-2.124,-2.0016,-1.8816,-1.8144,-1.8008,-1.8911,-2.0347,-2.2415,-2.4922,-2.7216,-2.9488,-3.3078,-3.5044,-3.5943,-3.8041,-3.8826,-3.8854,-3.9514,-3.9935,-4.0262,-4.0381,-4.1034,-4.186,-4.1884,-4.1337,-4.0651,-4.0442,0.0,0.0,0.0,0.0,0.0,0.0,0.0,0.0,0.0,0.0,0.0,0.0,0.0,0.0,0.0,0.0,0.0,0.0,0.0,0.0,-3.5069,-3.6508,-3.8485,-4.078,-4.105,-4.1102,-4.1206,-4.1219,-4.1604,-4.2641,-4.1887,-4.1219,-4.1219,-4.0262,-3.9697,-3.9697,-3.9697,0.0,-3.9697,-3.927,-3.9032,-3.9032,-3.8467,-3.7952,-3.7513,0.0,0.0,-3.6521,-3.6408,-3.6307,-3.6182,-3.573,-3.5634,-3.5884,-3.6907,-3.8892,-4.1396,-4.1551,-4.1175,-4.0561,-4.0307,-3.983,-3.9412,0.0,0.0,0.0,0.0,0.0,0.0,0.0,0.0,0.0,0.0,-3.2036,-3.4348,-3.6164,-3.8252,-3.9648,-4.0115,-3.9111,0.0,0.0,-3.5513,-3.4611,-3.4058,-3.1161,-2.8801,-2.7168,-2.3613,-2.1228,-1.9981,-1.8682,-1.8202,-1.8654,-1.9562,-2.1115,-2.3355,-2.5646,-2.7902,-3.0113,-3.333,-3.5241,-3.634,-3.8488,-3.9491,-3.9816,-4.0309,-4.0827,-4.1455,-4.2149,-4.2548,-4.2875,-4.3425,-4.2996,-4.2194,-4.2061,-4.0882,-3.9364,0.0,0.0,0.0,0.0,0.0,0.0,0.0,0.0,0.0,0.0,0.0,0.0,0.0,0.0,-3.5922,0.0,0.0,-3.8367,-3.8926,-3.972,-4.0877,-4.2326,-4.2544,-4.2544,-4.2544,-4.2544,-4.2834,-4.3409,-4.293,-4.2266,-4.1703,-4.1032,-4.0364,-3.9697,-3.9433,-3.9283,-3.9283,-3.873,-3.8442,-3.8442,-3.7877,-3.7462,-3.7186,-3.691,-3.6621,-3.6358,-3.6358,-3.6219,-3.5931,-3.5667,-3.5542,-3.5621,-3.7427,-3.9296,-4.1107,-4.1344,-4.1384,-4.1265,-4.0277,-3.9903,-3.9858,0.0,0.0,0.0,0.0,0.0,0.0,0.0,0.0,0.0,0.0,0.0,-3.313,-3.4727,-3.645,-3.7609,0.0,0.0,0.0,0.0,-3.5385,-3.4972,-3.4387,-3.1652,-2.9452,-2.7865,-2.4494,-2.2092,-2.0657,-1.9312,-1.9003,-1.9562,-2.0722,-2.2339,-2.4307,-2.6813,-2.8956,-3.0904,-3.3825,-3.5712,-3.6932,-3.9098,-4.0367,-4.1044,-4.1174,-4.1534,-4.211,-4.3278,-4.3222,-4.2811,-4.4108,-4.3722,-4.2697,-4.2896,-4.1951,-4.0571,-3.9497,-3.8695,0.0,0.0,0.0,0.0,0.0,0.0,0.0,0.0,0.0,-3.539,-3.7382,-3.7781,-3.8199,-3.9902,-4.08,-4.1625,-4.255,-4.2796,-4.3138,-4.3812,-4.3882,-4.3975,-4.4163,-4.3975,-4.3882,-4.3882,-4.3693,-4.293,-4.169,-4.1419,-4.0743,-3.9788,-3.917,-3.8868,-3.8868,-3.8203,-3.7902,-3.8002,-3.7349,-3.7073,-3.7174,-3.6621,-3.6358,-3.6358,-3.6358,-3.6119,-3.5705,-3.5705,-3.5705,-3.5877,-3.8189,-3.9648,-4.0521,-4.1326,-4.1818,-4.1953,-4.0247,-3.9948,-4.0307,0.0,0.0,0.0,0.0,0.0,0.0,0.0,0.0,0.0,0.0,0.0,0.0,0.0,0.0,0.0,0.0,0.0,0.0,-3.5327,-3.4284,-3.3665,-3.3604,-3.1737,-2.9714,-2.756,-2.5793,-2.412,-2.257,-2.1496,-2.0819,-2.0526,-2.2623,-2.4096,-2.5124,-2.8611,-3.0658,-3.1694,-3.4938,-3.678,-3.7738,-3.9704,-4.1291,-4.2451,-4.2483,-4.2519,-4.2634,-4.2763,-4.2595,-4.2516,-4.361,-4.3041,-4.1991,-4.2826,-4.2562,-4.1585,-3.949,-3.8641,-3.7905,-3.5871,-3.5612,-3.6318,-3.8013,-3.7476,-3.7372,0.0,0.0,-4.0242,-4.1511,-4.3069,-4.3879,-4.2531,-4.3214,-4.3663,-4.2828,-4.3142,-4.3798,-4.501,-4.5207,-4.5584,-4.6726,-4.5869,-4.5207,-4.5207,-4.4163,-4.293,-4.169,-4.0554,-3.989,-3.9697,-3.917,-3.8868,-3.8868,-3.7826,-3.7513,-3.8002,-3.6973,-3.6697,-3.7174,-3.6621,-3.6358,-3.6358,-3.6358,-3.632,-3.627,-3.627,-3.627,-3.6445,-3.8822,-3.9875,-4.0164,-4.1659,-4.1938,-4.1384,-4.0591,-4.0337,-4.0307,0.0,0.0,0.0,0.0,0.0,0.0,0.0,0.0,0.0,0.0,0.0,0.0,0.0,0.0,0.0,0.0,0.0,0.0,-3.5301,-3.4679,-3.4119,-3.388,-3.1903,-3.0144,-2.8715,-2.6417,-2.4874,-2.4225,-2.2768,-2.2398,-2.3071,-2.4541,-2.6321,-2.8353,-3.0232,-3.2084,-3.3939,-3.5769,-3.7327,-3.8687,-4.0687,-4.1993,-4.2824,-4.3526,-4.3509,-4.2965,-4.2253,-4.1562,0.0,0.0,-4.0957,-4.0521,-4.1032,-4.1026,-4.0515,-3.8755,-3.8033,-3.7476,-3.6198,-3.68,-3.7883,0.0,-3.9223,-4.0351,-4.204,-4.1462,-4.129,-4.3627,-4.4215,-4.4552,-4.5224,-4.5769,-4.5947,0.0,-4.5605,-4.5883,-4.6447,-4.6535,-4.6593,-4.6685,-4.5698,-4.509,-4.536,-4.4918,-4.3634,-4.1311,-4.0624,-3.9825,-3.873,-3.8191,-3.7889,-3.7889,-3.7123,-3.681,-3.7048,-3.6584,-3.6471,-3.6697,-3.6471,-3.6358,-3.6358,-3.6358,-3.6358,-3.6358,-3.6358,-3.6803,-3.7507,-3.8469,-3.9404,-4.0349,-4.1105,-4.1366,-4.1309,-4.0651,-4.0157,-3.9783,0.0,0.0,0.0,0.0,0.0,0.0,0.0,0.0,0.0,0.0,0.0,0.0,0.0,0.0,0.0,0.0,0.0,0.0,0.0,-3.4616,-3.4126,-3.3794,-3.2115,-3.076,-2.9998,-2.8004,-2.6968,-2.682,-2.537,-2.5231,-2.6289,-2.7326,-2.9131,-3.1539,-3.241,-3.3947,-3.5983,-3.6997,-3.8274,-3.9777,-4.1654,-4.2765,-4.3362,-4.4011,-4.3561,-4.2473,-4.1594,-4.0504,0.0,0.0,-3.8379,-3.8373,-3.8457,-3.8603,-3.8578,-3.7505,-3.6859,-3.6388,-3.597,-3.7188,0.0,-3.8417,-4.0005,-4.1726,-4.1902,-4.1396,-4.165,-4.4265,-4.4405,-4.4613,-4.639,-4.6905,-4.704,-4.704,-4.7189,-4.7309,-4.7309,-4.687,-4.6384,-4.591,-4.4661,-4.3887,-4.4132,-4.3941,-4.2813,-4.0245,-4.0024,-3.9543,-3.8353,-3.7563,-3.7249,-3.7412,-3.6734,-3.6358,-3.6358,-3.6358,-3.6358,-3.6358,-3.6358,-3.6358,-3.6358,-3.6358,-3.6282,-3.6132,-3.6132,-3.6654,-3.743,-3.7609,-3.8678,-4.0131,-4.0287,-4.068,-4.1055,-4.0576,-4.0098,-3.9664,0.0,0.0,0.0,0.0,0.0,0.0,0.0,0.0,0.0,0.0,0.0,0.0,0.0,0.0,0.0,0.0,0.0,0.0,0.0,-3.3494,-3.2787,-3.2998,-3.2406,-3.1758,-3.1175,-3.1439,-3.1366,-3.084,-3.0222,-2.9992,-3.0089,-3.1404,-3.2755,-3.416,-3.5395,-3.6444,-3.7346,-3.8846,-4.0042,-4.0983,-4.2621,-4.3787,-4.4466,-4.3648,-4.2297,-4.0873,-4.0741,0.0,0.0,0.0,-3.5598,-3.5384,-3.5239,-3.5507,-3.5877,-3.5729,-3.512,-3.4561,-3.4716,-3.6037,-3.7517,-3.8148,-3.9069,-3.9968,-4.0562,-4.1259,-4.1987,-4.3197,-4.4376,-4.5304,-4.5349,-4.5903,-4.6352,-4.6352,-4.689,-4.7309,-4.7309,-4.5815,-4.4673,-4.4644,-4.2975,-4.1654,0.0,-4.0423,-3.952,-3.8225,-3.8126,-3.8365,-3.8806,-3.7789,-3.7425,-3.7965,-3.6923,-3.6358,-3.6358,-3.6358,-3.6358,-3.6358,-3.6358,-3.6358,-3.6358,-3.6358,-3.6069,-3.5567,-3.5567,-3.5567,-3.5609,-3.6243,-3.7515,-3.8976,-3.9572,-4.0085,-4.0427,-4.0412,-4.0382,-4.0277,0.0,0.0,0.0,0.0,0.0,0.0,0.0,0.0,0.0,0.0,0.0,0.0,0.0,0.0,0.0,0.0,0.0,0.0,0.0,-3.3363,-3.2562,-3.2544,-3.2273,-3.174,-3.0978,-3.1965,-3.2385,-3.2075,-3.216,-3.2469,-3.2933,-3.3963,-3.5349,-3.6976,-3.7882,-3.8989,-4.0231,-4.1182,-4.1997,-4.2687,-4.3365,-4.4193,-4.4815,-4.3037,-4.1723,-4.0485,0.0,0.0,0.0,0.0,0.0,-3.3992,-3.4377,-3.4851,-3.5182,-3.4435,-3.4267,-3.4477,-3.4949,-3.598,-3.7287,-3.8768,-3.9572,-4.027,-4.1681,-4.2166,-4.2596,-4.3745,-4.3409,-4.2962,-4.3349,-4.3618,-4.3933,-4.4272,-4.4914,-4.5492,-4.6004,-4.4747,-4.356,-4.2747,-4.1794,0.0,0.0,0.0,0.0,-3.8101,-3.7663,-3.7387,-3.7211,-3.6847,-3.6722,-3.691,-3.6558,-3.6358,-3.6358,-3.6358,-3.6358,-3.6358,-3.6358,-3.6358,-3.6358,-3.5994,-3.5918,-3.6044,-3.5316,-3.5203,-3.5504,-3.5366,-3.5865,-3.6784,-3.8131,-3.866,-3.8837,-3.9996,-4.0127,-3.9709,0.0,0.0,0.0,0.0,0.0,0.0,0.0,0.0,0.0,0.0,0.0,0.0,0.0,0.0,0.0,0.0,0.0,0.0,0.0,0.0,-3.2374,-3.2089,-3.2191,-3.199,-3.1453,-3.2706,-3.3303,-3.3338,-3.4006,-3.4677,-3.5346,-3.6345,-3.7874,-3.9748,-3.9941,-4.0894,-4.2387,-4.2951,-4.3038,-4.2883,-4.3426,-4.3637,-4.3404,-4.1357,-3.9934,0.0,0.0,0.0,0.0,0.0,-3.2373,-3.2409,-3.2734,-3.3482,-3.4074,-3.3284,-3.3681,-3.4574,-3.5365,-3.6426,-3.7644,-3.8914,-3.9737,-4.0492,-4.1592,-4.2033,-4.2484,-4.3403,-4.2181,-4.1009,-4.1295,-4.1128,-4.1018,-4.1355,-4.2125,-4.2863,-4.3702,-4.2606,-4.1608,-4.1393,-4.0407,-3.9557,0.0,0.0,0.0,-3.7811,-3.7374,-3.7023,-3.6671,-3.6471,-3.6458,-3.6646,-3.6458,-3.6358,-3.6358,-3.6358,-3.6358,-3.6358,-3.6358,-3.6358,-3.6345,-3.5805,-3.5629,-3.5717,-3.4826,-3.4625,-3.4914,-3.4361,-3.4699,-3.5619,-3.6921,-3.7569,-3.7962,-3.9491,-3.9783,-3.9424,0.0,0.0,0.0,0.0,0.0,0.0,0.0,0.0,0.0,0.0,0.0,0.0,0.0,0.0,0.0,0.0,0.0,0.0,0.0,0.0,0.0,-3.163,-3.2271,-3.2638,-3.2645,-3.3713,-3.4401,-3.4672,-3.591,-3.6735,-3.7235,-3.8379,-4.0085,-4.2111,-4.1424,-4.2025,-4.3585,-4.3883,-4.3062,-4.1651,-4.2761,-4.2212,-4.0566,-3.8764,0.0,0.0,0.0,0.0,0.0,0.0,-3.042,-3.0988,-3.0781,-3.1658,-3.2708,-3.2455,-3.3415,-3.4806,-3.5907,-3.7222,-3.8347,-3.8514,-3.9535,-4.0469,-4.0469,-4.104,-4.1657,-4.2216,-4.077,-3.9343,0.0,0.0,-3.7924,-3.8008,-3.889,-3.9798,-4.0803,-3.9415,-3.8886,0.0,0.0,0.0,0.0,0.0,0.0,-3.7224,0.0,-3.7149,-3.7186,-3.6659,-3.6596,-3.7123,-3.6634,-3.6358,-3.6358,-3.6358,-3.6358,-3.6358,-3.6358,-3.6345,-3.6295,-3.5755,-3.5215,-3.4688,-3.411,-3.3872,-3.3859,-3.3307,-3.4033,-3.5429,-3.5952,-3.6852,-3.7829,-3.9017,-3.9424,-3.9424,0.0,0.0,0.0,0.0,0.0,0.0,0.0,0.0,0.0,0.0,0.0,0.0,0.0,0.0,0.0,0.0,0.0,0.0,0.0,0.0,0.0,0.0,0.0,0.0,0.0,0.0,0.0,0.0,0.0,-3.771,-3.744,-3.7807,-3.8728,-4.0123,-4.0008,-4.0549,-4.1628,-4.1647,-4.144,-4.1055,0.0,-4.0296,-3.9723,0.0,0.0,0.0,0.0,0.0,0.0,0.0,-3.285,-3.4209,-3.4587,-3.4857,-3.499,-3.4932,-3.5137,-3.5512,-3.6304,-3.6499,-3.6678,-3.7092,-3.7593,-3.819,-3.9004,-3.965,-4.0257,-4.0784,-3.8737,-3.6944,-3.7203,0.0,0.0,-3.8217,-3.9803,0.0,-3.9894,-3.8605,0.0,-3.769,0.0,-3.7941,-3.878,-3.8605,0.0,0.0,-3.7036,-3.6747,-3.7161,-3.6659,-3.642,-3.6571,-3.6433,-3.6358,-3.6358,-3.6358,-3.6358,-3.6358,-3.6358,-3.6144,-3.573,-3.5177,-3.4851,-3.4663,-3.3709,-3.352,-3.3859,-3.3307,-3.3316,-3.3918,-3.5561,-3.6369,-3.6852,-3.8694,-3.9424,-3.9349,0.0,0.0,0.0,0.0,0.0,0.0,0.0,0.0,0.0,0.0,0.0,0.0,0.0,0.0,0.0,0.0,0.0,0.0,0.0,0.0,0.0,0.0,0.0,0.0,0.0,0.0,0.0,0.0,0.0,0.0,0.0,-3.7477,-3.8319,-3.9303,-3.9073,-3.9664,-4.0839,-4.0447,0.0,0.0,0.0,0.0,0.0,0.0,0.0,0.0,0.0,0.0,0.0,0.0,0.0,-3.5856,-3.5994,-3.5907,-3.5773,-3.5803,-3.5712,-3.5627,-3.5861,-3.5898,-3.5942,-3.5787,-3.6443,-3.7084,-3.7149,-3.7986,-3.8649,-3.8477,-3.6209,-3.4531,-3.5514,-3.5075,-3.5001,0.0,0.0,0.0,-3.8427,-3.7863,-3.7551,0.0,-3.8282,0.0,-3.8919,-3.8642,-3.8354,0.0,-3.7211,-3.6747,-3.6822,-3.6521,-3.6358,-3.6358,-3.6358,-3.6358,-3.6358,-3.6358,-3.6358,-3.6358,-3.6358,-3.6069,-3.5437,-3.4977,-3.4587,-3.4311,0.0,-3.3257,-3.352,-3.3206,-3.3174,-3.3508,-3.5128,-3.6045,-3.6632,-3.8015,-3.8721,-3.8871,0.0,0.0,0.0,0.0,0.0,0.0,0.0,0.0,0.0,0.0,-3.2786,0.0,0.0,0.0,0.0,0.0,0.0,0.0,0.0,0.0,0.0,0.0,0.0,0.0,0.0,0.0,0.0,0.0,0.0,0.0,0.0,0.0,0.0,0.0,0.0,0.0,0.0,0.0,0.0,0.0,0.0,0.0,0.0,0.0,0.0,0.0,0.0,0.0,0.0,0.0,-3.6504,-3.6785,-3.6332,-3.6198,-3.6137,-3.5872,-3.561,-3.5368,-3.4951,-3.5267,-3.5582,-3.4646,-3.5596,-3.6459,-3.5305,-3.6143,-3.6813,-3.574,-3.3634,-3.2479,-3.412,-3.2803,-3.2124,-3.3991,0.0,-3.5249,-3.703,-3.7034,-3.7444,-3.9175,-3.9299,-3.9141,-3.8806,-3.8228,-3.7902,-3.7902,-3.7387,-3.6897,-3.6496,-3.6408,-3.6358,-3.6358,-3.6358,-3.632,-3.6257,-3.6257,-3.6257,-3.6257,-3.6182,-3.5893,-3.5416,-3.4864,-3.4311,-3.3759,0.0,0.0,-3.3081,-3.3081,-3.3431,-3.3925,-3.4998,-3.6023,-3.6851,-3.7371,-3.7838,-3.8167,0.0,0.0,0.0,0.0,0.0,0.0,0.0,0.0,0.0,0.0,-3.2686,-3.4054,0.0,0.0,0.0,0.0,0.0,0.0,0.0,0.0,0.0,0.0,0.0,0.0,0.0,0.0,0.0,0.0,0.0,0.0,0.0,0.0,0.0,0.0,0.0,0.0,0.0,0.0,0.0,0.0,0.0,0.0,0.0,0.0,0.0,0.0,0.0,0.0,0.0,0.0,-3.7232,-3.8535,-3.84,-3.836,-3.8114,-3.6715,-3.5768,-3.5056,-3.4254,-3.4356,-3.4516,-3.3795,-3.4663,-3.5428,-3.4519,-3.453,0.0,-3.3623,-3.2296,-3.1642,-3.2809,-3.2205,-3.2459,-3.5068,-3.4881,-3.5115,-3.7175,-3.604,-3.5723,0.0,-3.7517,-3.7472,-3.8104,-3.7651,0.0,0.0,0.0,-3.6659,-3.7023,-3.6609,-3.6358,-3.6358,-3.6358,-3.6144,-3.5692,-3.5692,-3.5692,-3.568,-3.5228,-3.4951,-3.4851,-3.4299,-3.3746,-3.3219,0.0,0.0,-3.3081,-3.3081,-3.3649,-3.4587,-3.5678,-3.636,-3.6909,-3.7875,-3.7943,-3.7494,0.0,0.0,0.0,0.0,0.0,0.0,0.0,-2.9325,-3.0208,-3.0545,-3.2243,-3.3687,-3.4363,-3.4355,-3.4526,0.0,0.0,0.0,0.0,0.0,0.0,0.0,0.0,0.0,0.0,0.0,0.0,-3.6091,0.0,0.0,0.0,0.0,0.0,0.0,0.0,0.0,0.0,0.0,0.0,0.0,0.0,0.0,0.0,0.0,0.0,0.0,0.0,0.0,0.0,0.0,-3.5552,-3.6092,-3.6853,-3.6932,-3.6198,-3.3762,-3.2806,-3.2209,-3.1048,-3.1347,-3.2039,-3.2141,-3.282,-3.3277,-3.2593,0.0,0.0,-3.133,-3.0507,-3.0448,-3.1832,-3.1667,-3.1946,-3.4032,-3.4562,-3.5261,-3.6689,-3.6874,-3.7228,-3.813,-3.8037,-3.7775,-3.7565,-3.7337,-3.7061,0.0,0.0,-3.6471,-3.6734,-3.6508,-3.6358,-3.6358,-3.6094,-3.5805,-3.5542,-3.5253,-3.5115,-3.5115,-3.4851,-3.4575,-3.4286,-3.4022,-3.3596,-3.3081,-3.3081,0.0,-3.2654,-3.2955,-3.3506,-3.4089,-3.4931,-3.5829,-3.6678,-3.6865,-3.6911,-3.6836,0.0,0.0,0.0,0.0,0.0,0.0,0.0,-2.916,-3.0087,-3.0313,-3.1568,-3.2706,-3.3516,-3.3897,-3.4469,0.0,0.0,0.0,0.0,0.0,0.0,0.0,0.0,0.0,0.0,0.0,0.0,-3.6245,-3.6677,0.0,0.0,0.0,0.0,0.0,0.0,0.0,0.0,0.0,0.0,0.0,0.0,0.0,0.0,0.0,0.0,0.0,0.0,0.0,0.0,0.0,-3.285,-3.2151,-3.3261,-3.3591,-3.2925,-2.9902,-2.9328,-2.945,-2.802,-2.8779,-3.0105,-3.081,-3.1328,-3.1444,-3.0979,-3.0869,-3.0602,-2.9663,-2.9237,-2.9455,-3.0914,-3.0797,-3.092,0.0,-3.295,-3.4034,-3.6081,-3.7192,-3.8004,-3.8806,-3.8755,0.0,-3.7123,-3.701,0.0,0.0,0.0,0.0,-3.6358,-3.6358,-3.6358,-3.6358,-3.5943,-3.5667,-3.5542,-3.5002,-3.4726,-3.4726,-3.4487,-3.4211,-3.3897,-3.3771,-3.3483,-3.3081,-3.3081,0.0,0.0,-3.2704,-3.3206,-3.3666,-3.4176,-3.5196,-3.6432,-3.5908,-3.5953,-3.6207,0.0,0.0,0.0,0.0,0.0,0.0,0.0,-2.8943,-2.9585,-3.0163,-3.0625,-3.1386,-3.2598,-3.3093,-3.3624,0.0,0.0,0.0,0.0,0.0,0.0,0.0,0.0,0.0,0.0,0.0,0.0,-3.7718,-3.7987,0.0,0.0,0.0,0.0,0.0,0.0,-3.3847,0.0,0.0,0.0,0.0,0.0,0.0,0.0,0.0,0.0,0.0,0.0,0.0,0.0,0.0,0.0,-2.8171,-2.7537,-2.8484,-2.929,-2.6833,0.0,0.0,-2.7431,-2.8729,-3.0559,-3.0985,-3.135,-3.1424,-3.0523,0.0,-2.9841,-2.9329,-2.9174,-2.9381,-2.9997,-2.9387,-2.919,-3.0653,-2.9075,-2.9689,-3.5599,-3.4858,-3.4968,-3.8517,0.0,0.0,-3.6546,-3.6433,0.0,0.0,0.0,0.0,-3.6358,-3.6358,-3.6358,-3.6358,-3.632,-3.6044,-3.5554,-3.5002,-3.4726,-3.4713,-3.3709,-3.347,-3.3884,-3.3382,-3.3131,-3.3081,0.0,0.0,0.0,-3.2277,-3.3049,-3.4319,-3.4375,-3.5239,-3.6477,-3.6417,-3.6058,-3.5594,0.0,0.0,0.0,0.0,0.0,0.0,-2.8609,-2.9122,-2.951,-2.9656,-3.0055,-3.0526,-3.0989,-3.1436,-3.2378,-3.4063,0.0,0.0,0.0,0.0,0.0,0.0,0.0,0.0,0.0,0.0,0.0,-3.7845,-3.7649,0.0,0.0,0.0,0.0,0.0,0.0,-3.3671,-3.3868,0.0,0.0,0.0,0.0,0.0,0.0,0.0,0.0,0.0,0.0,0.0,-2.9914,-2.9342,0.0,0.0,-2.541,-2.5035,0.0,0.0,-2.4973,-2.6336,-2.6182,-2.7597,-2.9539,-3.0989,-3.1241,-3.0859,-3.0455,0.0,-2.9551,-2.8493,-2.8756,-2.916,-2.9186,-2.8928,-2.8721,-2.8743,-2.8489,0.0,-3.2334,-3.2818,-3.3882,-3.6551,-3.6671,0.0,0.0,0.0,0.0,0.0,0.0,0.0,-3.5893,-3.6182,-3.6358,-3.6358,-3.6044,-3.5604,-3.5052,-3.45,-3.406,-3.3721,-3.3282,-3.3194,-3.3395,-3.3181,-3.288,-3.2554,0.0,0.0,0.0,-3.1807,-3.2697,-3.4158,-3.3859,-3.4682,-3.5893,-3.5893,-3.5729,-3.5504,0.0,0.0,0.0,0.0,0.0,-2.8287,-2.8868,-2.9174,-2.9278,-2.9165,-2.9314,-2.9536,-2.9765,-3.0266,-3.1491,-3.3606,-3.4814,0.0,0.0,0.0,0.0,0.0,0.0,0.0,0.0,0.0,0.0,-3.7948,-3.7467,-3.6809,0.0,0.0,-3.4342,-3.3633,0.0,0.0,0.0,0.0,0.0,0.0,0.0,0.0,0.0,0.0,0.0,0.0,0.0,0.0,0.0,0.0,0.0,0.0,0.0,0.0,0.0,0.0,-2.3247,-2.4896,-2.5191,-2.6852,-2.8859,-3.0547,-3.0498,-3.0001,-3.0067,0.0,-2.9053,-2.8358,-2.8679,-2.9096,-2.8853,-2.8816,-2.8532,-2.7683,0.0,-2.9076,-3.0223,-3.1394,-3.2835,-3.4682,0.0,-3.5925,0.0,0.0,0.0,0.0,0.0,0.0,0.0,-3.5906,-3.6044,-3.5881,-3.5504,-3.5115,-3.4726,-3.4173,-3.3709,-3.3319,-3.3156,-3.2993,-3.2817,-3.2817,-3.2516,-3.1964,0.0,0.0,0.0,-3.1586,-3.2355,-3.3575,-3.3578,-3.4361,-3.5504,-3.5504,-3.5504,-3.5504,0.0,0.0,0.0,0.0,0.0,0.0,-2.9018,-2.8814,-2.8665,-2.878,-2.8283,-2.8294,-2.9228,-2.9972,-3.1064,-3.2767,-3.3693,0.0,0.0,0.0,0.0,0.0,0.0,0.0,0.0,0.0,0.0,-3.8291,-3.7812,-3.7137,-3.627,-3.545,-3.4659,-3.3895,0.0,0.0,0.0,0.0,0.0,0.0,0.0,0.0,0.0,0.0,0.0,0.0,0.0,0.0,0.0,0.0,0.0,0.0,0.0,0.0,0.0,0.0,-2.2546,-2.4898,-2.443,-2.652,-2.9023,-2.9463,-2.9136,-2.8734,-2.9046,-2.856,-2.8313,-2.9154,-2.9282,-2.9296,-2.9296,-2.9044,-2.861,-2.7908,-2.7666,0.0,-3.019,-3.0654,-3.144,0.0,0.0,-3.624,0.0,0.0,0.0,0.0,0.0,0.0,0.0,-3.5554,-3.5303,-3.4751,-3.4726,-3.4726,-3.4726,-3.4173,-3.3897,-3.3884,-3.3332,-3.278,-3.2227,-3.2227,-3.1913,0.0,0.0,0.0,0.0,-3.1616,-3.2206,-3.2749,-3.3602,-3.4624,-3.5504,-3.5504,-3.5504,-3.5504,0.0,0.0,0.0,0.0,0.0,0.0,0.0,-2.8814,-2.8335,-2.7964,-2.7841,-2.7889,-2.8163,-2.9475,-3.0899,-3.2364,-3.3861,0.0,0.0,0.0,0.0,0.0,0.0,0.0,0.0,0.0,-3.8664,-3.8634,-3.8099,-3.7618,-3.7248,-3.5818,-3.5043,-3.4766,-3.4152,0.0,0.0,0.0,0.0,0.0,0.0,0.0,0.0,0.0,0.0,0.0,0.0,0.0,0.0,0.0,0.0,0.0,0.0,0.0,0.0,-2.2659,-2.3422,-2.4792,-2.5351,-2.6691,-2.8011,-2.8468,-2.8511,-2.8367,-2.7871,-2.8027,-2.826,-2.8025,-2.8288,-2.8444,-2.8444,-2.83,-2.8027,-2.7623,-2.8092,-2.8729,0.0,0.0,0.0,-3.3684,-3.5537,-3.6599,0.0,0.0,0.0,0.0,0.0,0.0,0.0,-3.4625,-3.4512,-3.4713,-3.4726,-3.4537,-3.4161,-3.3985,-3.3709,-3.3332,-3.2754,-3.239,-3.2202,-3.1825,0.0,0.0,0.0,0.0,0.0,-3.1307,-3.2268,-3.3602,-3.3876,-3.461,-3.5504,-3.5504,-3.5504,-3.5504,0.0,0.0,0.0,0.0,0.0,0.0,0.0,-2.8676,-2.8166,-2.7542,-2.754,-2.7775,-2.8321,-2.9532,-3.1055,-3.2929,-3.4557,0.0,0.0,0.0,0.0,0.0,0.0,0.0,0.0,-3.8902,-3.9045,-3.9017,-3.8364,-3.7928,-3.7775,-3.6387,-3.5724,-3.5687,-3.509,0.0,0.0,0.0,0.0,0.0,0.0,0.0,-3.1996,0.0,0.0,0.0,0.0,0.0,0.0,0.0,0.0,0.0,0.0,0.0,0.0,0.0,-2.3826,-2.4476,-2.5233,-2.6312,-2.7233,-2.7522,-2.7431,0.0,-2.7304,-2.7381,-2.7535,-2.7613,-2.7878,-2.8079,-2.8079,-2.7934,-2.7828,-2.7777,-2.89,-2.9931,0.0,0.0,0.0,-3.5411,0.0,0.0,0.0,0.0,0.0,0.0,0.0,0.0,0.0,-3.4085,-3.396,-3.4098,-3.411,-3.3935,-3.3596,-3.3583,-3.342,-3.3068,-3.2717,-3.2315,-3.1888,-3.1549,0.0,0.0,0.0,0.0,0.0,-3.1609,-3.2593,-3.4027,-3.4394,-3.4986,-3.5504,-3.5504,-3.5504,-3.5504,0.0,0.0,0.0,0.0,0.0,0.0,0.0,-2.8594,-2.8165,-2.753,-2.746,-2.7999,-2.9364,-3.007,-3.1488,-3.4197,0.0,0.0,0.0,0.0,0.0,0.0,0.0,0.0,0.0,-3.9245,-3.935,-3.9401,-3.8677,-3.8228,-3.8074,-3.7143,-3.671,-3.6692,-3.639,0.0,0.0,0.0,0.0,0.0,0.0,0.0,0.0,0.0,0.0,0.0,0.0,0.0,0.0,0.0,0.0,0.0,0.0,0.0,0.0,0.0,0.0,0.0,0.0,-2.5433,-2.6419,-2.6594,-2.5953,-2.5658,-2.7002,-2.6559,0.0,-2.7762,-2.8079,-2.8079,-2.8079,-2.7934,-2.7921,-2.8276,-2.9929,-3.1684,0.0,-3.5195,0.0,0.0,0.0,0.0,0.0,0.0,0.0,0.0,0.0,0.0,0.0,-3.3859,-3.3608,-3.3093,-3.3081,-3.3081,-3.3081,-3.3081,-3.3081,-3.3081,-3.3031,-3.2441,-3.1386,-3.1348,0.0,0.0,0.0,0.0,0.0,-3.2249,-3.3171,-3.4095,-3.5133,-3.5504,-3.5504,-3.5504,-3.5504,-3.5504,0.0,0.0,0.0,0.0,0.0,0.0,0.0,0.0,0.0,0.0,-2.8094,-2.8601,-2.9764,-3.0876,-3.2418,0.0,0.0,0.0,0.0,0.0,0.0,0.0,0.0,0.0,0.0,-3.9483,-3.9551,-3.9401,-3.9363,-3.922,-3.8973,-3.8119,-3.7765,-3.7727,-3.7094,0.0,0.0,0.0,0.0,0.0,0.0,0.0,0.0,0.0,0.0,0.0,-2.6685,-2.6277,0.0,0.0,0.0,0.0,0.0,0.0,0.0,0.0,-2.4294,-2.442,-2.4517,0.0,-2.5245,-2.5245,-2.5324,-2.5493,0.0,-2.6255,-2.6536,-2.743,0.0,0.0,-2.7789,-2.7723,-2.7801,-2.8424,-3.0596,-3.2542,-3.3704,0.0,0.0,-4.2067,0.0,0.0,0.0,0.0,0.0,0.0,0.0,0.0,0.0,-3.3495,-3.3206,-3.3081,-3.3081,-3.3081,-3.3081,-3.3081,-3.3081,-3.3068,-3.2629,-3.2051,-3.1373,-3.0984,0.0,0.0,0.0,0.0,-3.1241,-3.2249,-3.3171,-3.4095,-3.5133,-3.5504,-3.5504,-3.5504,-3.5504,-3.5504,0.0,0.0,0.0,0.0,0.0,0.0,0.0,0.0,0.0,0.0,0.0,-3.0405,-3.1497,-3.2409,0.0,0.0,0.0,0.0,0.0,0.0,0.0,0.0,0.0,0.0,-3.9526,-3.9647,-3.967,-3.9575,-3.9599,-3.9526,-3.935,-3.8842,-3.8611,-3.8574,-3.7897,0.0,0.0,0.0,0.0,0.0,-3.1722,0.0,0.0,0.0,0.0,0.0,-2.6617,-2.6294,0.0,-2.6747,-2.6508,-2.5886,0.0,0.0,0.0,0.0,-2.4418,-2.4345,-2.4345,-2.449,-2.4646,-2.4801,-2.4921,-2.5194,-2.577,-2.6037,-2.644,-2.7268,0.0,0.0,0.0,-2.8557,-2.9294,-2.9147,-3.2793,0.0,0.0,0.0,0.0,0.0,0.0,0.0,0.0,0.0,0.0,0.0,0.0,0.0,0.0,-3.3244,-3.3081,-3.3081,-3.3081,-3.3081,-3.3081,-3.3081,-3.3081,-3.3068,-3.2491,-3.1926,-3.1373,-3.0859,0.0,0.0,0.0,0.0,-3.1241,-3.2249,-3.3171,-3.4095,-3.5133,-3.5504,-3.5504,-3.5504,-3.5504,-3.5504,0.0,0.0,0.0,0.0,0.0,0.0,0.0,0.0,0.0,0.0,0.0,0.0,0.0,0.0,0.0,0.0,0.0,0.0,0.0,0.0,0.0,0.0,0.0,-3.9331,-3.9425,-3.9517,-3.9592,-3.9615,-3.9566,-3.9477,-3.9401,-3.929,-3.9181,-3.904,-3.8421,-3.7081,0.0,0.0,0.0,0.0,-3.1223,0.0,0.0,0.0,0.0,0.0,0.0,0.0,0.0,-2.6506,-2.6233,-2.5535,-2.5312,0.0,0.0,0.0,0.0,0.0,-2.42,-2.4361,-2.4634,-2.4704,-2.4718,-2.4849,-2.5618,-2.584,-2.6107,-2.7066,0.0,0.0,0.0,-2.9834,0.0,0.0,0.0,0.0,-4.3534,-4.3796,0.0,0.0,0.0,0.0,0.0,0.0,0.0,0.0,0.0,0.0,0.0,-3.3031,-3.3081,-3.3081,-3.3081,-3.3081,-3.3081,-3.3081,-3.3031,-3.2943,-3.2541,-3.1964,-3.126,-3.0896,-3.0382,0.0,0.0,0.0,-3.1462,-3.2464,-3.338,-3.4312,-3.5133,-3.5504,-3.5504,-3.5504,-3.5504,-3.5504,0.0,0.0,0.0,0.0,0.0,0.0,0.0,0.0,0.0,0.0,0.0,0.0,0.0,0.0,0.0,0.0,0.0,0.0,0.0,0.0,0.0,0.0,-3.8909,-3.8546,-3.7788,-3.8529,-3.8888,-3.8783,-3.9373,-3.9594,-3.9401,-3.9376,-3.9071,-3.8493,-3.7766,-3.6602,-3.5077,-3.4046,-3.2854,-3.1585,-3.1465,0.0,0.0,0.0,0.0,0.0,0.0,0.0,0.0,-2.67,-2.6233,-2.5535,-2.5158,0.0,0.0,0.0,0.0,0.0,-2.42,-2.4653,-2.4982,-2.4436,-2.4189,-2.4261,-2.517,-2.5535,-2.5898,-2.6875,0.0,0.0,0.0,-3.0324,-3.0772,0.0,0.0,0.0,0.0,0.0,0.0,0.0,0.0,0.0,0.0,0.0,0.0,0.0,0.0,0.0,0.0,0.0,-3.3081,-3.3081,-3.3081,-3.3081,-3.3081,-3.3081,-3.283,-3.2353,-3.2754,-3.2164,-3.0746,-3.111,-3.0733,0.0,0.0,-3.1536,-3.2464,-3.338,-3.4394,-3.5279,-3.5439,-3.5504,-3.5504,-3.5504,-3.5504,-3.5504,0.0,0.0,0.0,0.0,0.0,0.0,0.0,0.0,0.0,0.0,0.0,0.0,0.0,0.0,0.0,0.0,0.0,0.0,0.0,0.0,0.0,0.0,-3.7509,-3.7509,-3.7509,-3.8346,-3.8822,-3.8822,-3.9494,-3.9758,-3.967,-3.9588,-3.8906,-3.7736,-3.7257,-3.6,-3.4219,-3.3112,-3.2283,-3.1687,0.0,0.0,0.0,0.0,0.0,0.0,0.0,0.0,0.0,0.0,-2.6082,-2.5535,-2.504,0.0,0.0,0.0,0.0,0.0,-2.42,-2.4322,-2.47,-2.5588,-2.6081,-2.66,-2.7951,0.0,0.0,0.0,0.0,0.0,0.0,0.0,-3.5282,-4.0323,0.0,0.0,0.0,0.0,0.0,0.0,0.0,0.0,0.0,0.0,0.0,0.0,0.0,0.0,0.0,0.0,-3.2604,-3.2604,-3.2315,-3.2164,-3.2164,-3.2164,-3.234,-3.2679,-3.2328,-3.1763,-3.1022,-3.0683,-3.0256,-2.9856,0.0,-3.1462,-3.196,-3.338,-3.4245,-3.4758,-3.5279,-3.5504,-3.5504,-3.5504,-3.5504,-3.5504,0.0,0.0,0.0,0.0,0.0,0.0,0.0,0.0,0.0,0.0,0.0,0.0,0.0,0.0,0.0,0.0,0.0,0.0,0.0,0.0,-3.7259,-3.6468,-3.6621,-3.6929,-3.737,-3.8136,-3.8803,-3.9279,-3.9925,-4.0271,-4.0352,-3.9849,-3.8788,-3.7296,-3.687,-3.5409,-3.3205,-3.25,-3.1963,-3.1615,0.0,0.0,0.0,0.0,0.0,0.0,0.0,0.0,0.0,0.0,0.0,0.0,0.0,0.0,0.0,-2.4273,-2.42,-2.42,-2.42,-2.4306,-2.4865,-2.6995,-2.7603,-2.8217,0.0,0.0,0.0,0.0,0.0,0.0,0.0,-3.5468,0.0,-4.4109,0.0,0.0,0.0,0.0,0.0,0.0,0.0,0.0,0.0,0.0,0.0,0.0,0.0,0.0,0.0,0.0,-3.2424,-3.2536,-3.2117,-3.1907,-3.1686,-3.1686,-3.1997,-3.2491,-3.175,-3.126,-3.0997,-3.0294,-2.9917,-2.9856,-3.0758,-3.1315,-3.1669,-3.331,-3.4163,-3.4394,-3.5213,-3.5504,-3.5504,-3.5504,-3.5504,-3.5504,0.0,0.0,0.0,0.0,0.0,0.0,0.0,0.0,0.0,0.0,0.0,0.0,0.0,0.0,0.0,0.0,0.0,0.0,0.0,0.0,-3.7328,-3.653,-3.7274,-3.737,-3.6677,-3.7472,-3.8607,-4.01,-4.0843,-4.1408,-4.1717,-4.0087,-3.8734,-3.7627,-3.6729,-3.4809,-3.2327,-3.2543,-3.1945,-3.0959,-3.2047,0.0,0.0,0.0,0.0,0.0,0.0,0.0,0.0,0.0,0.0,0.0,0.0,0.0,-2.4718,-2.4345,-2.42,-2.42,-2.42,-2.4907,-2.6155,-2.8032,-2.702,0.0,-3.0731,-3.0567,0.0,-3.1946,0.0,0.0,0.0,-3.7382,-4.0099,-4.0441,0.0,0.0,0.0,0.0,0.0,0.0,0.0,0.0,0.0,0.0,0.0,0.0,0.0,0.0,0.0,0.0,0.0,-3.359,-3.3524,-3.3236,-3.2673,-3.2673,-3.2016,-3.0796,-3.1198,-3.0871,-2.9917,-3.0357,-3.0281,-2.9856,-3.0758,-3.1669,-3.2593,-3.3602,-3.4543,-3.5424,-3.5439,-3.5504,-3.5504,-3.5504,-3.5504,-3.5504,0.0,0.0,0.0,0.0,0.0,0.0,0.0,0.0,0.0,0.0,0.0,0.0,0.0,0.0,0.0,0.0,0.0,0.0,0.0,0.0,-3.6213,-3.5952,-3.6741,-3.7327,-3.7643,-3.8358,-3.93,-4.0454,-4.1354,-4.1248,-4.0213,-3.9853,-3.8519,-3.6472,-3.5719,-3.4262,-3.234,-3.1566,-3.143,-3.1725,-3.1659,-3.1741,0.0,0.0,0.0,0.0,0.0,0.0,0.0,0.0,-2.6879,-2.6208,-2.5099,-2.4694,-2.449,-2.397,-2.3682,-2.3575,-2.3789,-2.4738,-2.6165,-2.8021,-2.8098,0.0,0.0,-3.2859,-3.247,-3.3346,-3.4393,0.0,0.0,0.0,-4.2842,0.0,0.0,0.0,0.0,0.0,0.0,0.0,0.0,0.0,0.0,0.0,0.0,0.0,0.0,0.0,0.0,0.0,0.0,-3.3172,-3.3064,-3.2942,-3.2698,-3.2698,-3.2083,-3.0944,-3.0938,-3.0696,-3.0306,-3.0168,-2.9993,-2.9856,-3.1402,-3.2249,-3.2749,-3.4259,-3.5133,-3.5504,-3.5504,-3.5504,-3.5504,-3.5504,-3.5504,-3.5504,0.0,0.0,0.0,0.0,0.0,0.0,0.0,0.0,0.0,0.0,0.0,0.0,0.0,0.0,0.0,0.0,0.0,0.0,0.0,-3.5483,-3.555,-3.5596,-3.6381,-3.7146,-3.7857,-3.8846,-3.9879,-4.0998,-4.1442,-4.1027,-3.9844,-3.9559,-3.8305,-3.6237,-3.535,-3.4001,-3.236,-3.1251,-3.1272,-3.1961,-3.142,-3.1692,0.0,0.0,0.0,0.0,0.0,0.0,0.0,0.0,-2.7271,-2.6539,-2.5358,-2.4754,-2.4383,-2.3704,-2.3636,-2.3796,-2.392,-2.4944,-2.643,-2.8182,0.0,0.0,-3.4132,-3.4599,-3.4487,-3.55,-3.5832,-3.6655,-3.8826,0.0,0.0,0.0,0.0,0.0,0.0,0.0,0.0,0.0,0.0,0.0,0.0,0.0,0.0,0.0,0.0,0.0,0.0,0.0,0.0,0.0,-3.3179,-3.3227,-3.3031,-3.3031,-3.2593,-3.1609,-3.1098,-3.0633,-3.0344,-2.9967,-2.9792,-2.9869,-3.1476,-3.2321,-3.2749,-3.4341,-3.5213,-3.5504,-3.5504,-3.5504,-3.5504,-3.5504,-3.5504,-3.5504,0.0,0.0,0.0,0.0,0.0,0.0,0.0,0.0,0.0,0.0,0.0,0.0,0.0,0.0,0.0,0.0,0.0,0.0,0.0,-3.5601,-3.5601,-3.5601,-3.6369,-3.6856,-3.6985,-3.8574,-4.021,-4.1885,-4.1114,-4.0867,-4.1139,-3.9287,-3.8,-3.7208,-3.5892,-3.4182,-3.2282,-3.1776,-3.1548,-3.1382,-3.1453,-3.1781,-3.2135,0.0,0.0,0.0,0.0,0.0,0.0,0.0,-2.7617,-2.6607,-2.5804,-2.5123,-2.4325,-2.3438,-2.4192,-2.5156,-2.4739,-2.5637,-2.7103,-2.8778,0.0,0.0,-3.4752,-3.5226,-3.5566,-3.8358,-3.762,-3.702,-3.9073,0.0,0.0,0.0,0.0,0.0,0.0,0.0,0.0,0.0,0.0,0.0,0.0,0.0,0.0,0.0,0.0,0.0,0.0,0.0,0.0,0.0,-3.4399,0.0,-3.4027,-3.4027,-3.3518,-3.2593,-3.1669,-3.0696,-2.9792,-2.9792,-2.9792,-2.9856,-3.0833,-3.1742,-3.2664,-3.3602,-3.461,-3.5504,-3.5504,-3.5504,-3.5504,-3.5504,-3.5504,-3.5504,0.0,0.0,0.0,0.0,0.0,0.0,0.0,0.0,0.0,0.0,0.0,0.0,0.0,0.0,0.0,0.0,0.0,0.0,0.0,-3.5526,-3.5514,-3.5464,-3.6279,-3.6754,-3.6794,-3.8319,-3.9588,-4.0556,-4.1217,-4.0812,-3.9357,-3.9101,-3.79,-3.5976,-3.4787,-3.3762,-3.285,-3.156,-3.1427,-3.2066,-3.1534,-3.1509,-3.1697,0.0,0.0,0.0,0.0,0.0,0.0,0.0,0.0,0.0,-2.5988,-2.5099,-2.4397,-2.3639,-2.3514,-2.3629,-2.373,-2.5213,0.0,-2.7665,0.0,0.0,0.0,-3.5073,0.0,0.0,-3.9847,-4.0507,-4.1597,0.0,0.0,0.0,0.0,0.0,0.0,0.0,0.0,0.0,0.0,0.0,0.0,0.0,0.0,0.0,0.0,0.0,0.0,0.0,0.0,0.0,-3.3959,0.0,-3.5052,-3.5067,-3.4543,-3.3602,-3.2593,-3.1683,-3.0758,-3.0075,-2.9792,-2.9869,-3.1476,-3.2321,-3.2749,-3.4409,-3.5213,-3.5504,-3.5504,-3.5504,-3.5504,-3.5504,-3.5504,-3.5474,0.0,0.0,0.0,0.0,0.0,0.0,0.0,0.0,0.0,0.0,0.0,0.0,0.0,0.0,0.0,0.0,0.0,0.0,0.0,0.0,-3.5331,-3.5212,-3.5776,-3.64,-3.7041,-3.7922,-3.8822,-3.9757,-4.0396,-3.9935,-3.8428,-3.8383,-3.7421,-3.57,-3.4661,-3.3806,-3.3107,-3.1697,-3.1475,-3.2007,-3.1379,-3.1278,-3.1482,0.0,0.0,0.0,0.0,0.0,0.0,0.0,0.0,0.0,-2.6526,-2.5709,-2.4981,-2.4437,-2.4484,-2.4764,-2.4944,-2.6494,0.0,-2.88,-3.0583,-3.2835,-3.5285,0.0,0.0,0.0,-4.1277,-4.2078,-4.3024,0.0,0.0,0.0,0.0,0.0,0.0,0.0,0.0,0.0,0.0,0.0,0.0,0.0,0.0,0.0,0.0,0.0,0.0,0.0,0.0,0.0,-3.3648,0.0,-3.5504,-3.5504,-3.5213,-3.461,-3.3602,-3.2664,-3.1669,-3.0432,-2.9792,-2.9934,-3.1756,-3.3031,-3.3837,-3.5001,-3.5504,-3.5504,-3.5504,-3.5504,-3.5474,-3.519,-3.5254,-3.5503,0.0,0.0,0.0,0.0,0.0,0.0,0.0,0.0,0.0,0.0,0.0,0.0,0.0,0.0,0.0,0.0,0.0,0.0,0.0,0.0,-3.5083,-3.487,-3.5053,-3.5867,-3.7413,-3.7373,-3.7951,-3.9238,-3.9017,-3.8681,-3.8183,-3.745,-3.6719,-3.6054,-3.5157,-3.4186,-3.3145,-3.217,-3.1667,-3.1539,-3.1029,-3.1176,-3.1614,-3.1554,0.0,0.0,0.0,0.0,0.0,0.0,0.0,0.0,-2.7417,-2.6607,-2.5849,-2.5591,-2.6369,-2.7397,-2.7311,-2.8474,-2.9955,-3.1133,-3.2155,0.0,-3.5965,-3.8762,-4.104,-4.2037,0.0,-4.2498,0.0,0.0,0.0,0.0,0.0,0.0,0.0,0.0,0.0,0.0,0.0,0.0,0.0,0.0,0.0,0.0,0.0,0.0,0.0,0.0,0.0,0.0,0.0,0.0,-3.5504,-3.5504,-3.5504,0.0,-3.4461,-3.3518,-3.2664,-3.0771,-3.0011,-3.0139,-3.1974,-3.3754,-3.5504,-3.5504,-3.5504,-3.5504,-3.5504,-3.5474,-3.534,-3.4696,-3.4886,-3.5362,0.0,0.0,0.0,0.0,0.0,0.0,0.0,0.0,0.0,0.0,0.0,0.0,0.0,0.0,0.0,0.0,0.0,0.0,0.0,0.0,-3.4754,-3.4524,-3.471,-3.5283,-3.6228,-3.6597,-3.7121,-3.7839,-3.8553,-3.8633,-3.8101,-3.7377,-3.6643,-3.5907,-3.4908,-3.4119,-3.3382,-3.2453,-3.2023,-3.1883,-3.1524,-3.1867,-3.2622,-3.1965,-3.2086,0.0,0.0,0.0,0.0,0.0,0.0,0.0,-2.7617,-2.6879,-2.6258,-2.6034,-2.6183,-2.6482,-2.64,-2.7738,0.0,-3.094,-3.478,-3.8432,-3.9392,-4.0873,-4.1811,-4.1025,-4.2782,-4.4734,0.0,0.0,0.0,0.0,0.0,0.0,0.0,0.0,0.0,0.0,0.0,0.0,0.0,0.0,0.0,0.0,0.0,0.0,0.0,0.0,0.0,-3.2593,0.0,-3.4461,-3.5504,-3.5504,-3.5504,0.0,-3.4461,-3.3876,-3.3671,-3.1756,-3.1328,-3.2046,-3.3171,-3.4394,-3.5504,-3.5504,-3.5504,-3.5504,-3.5504,-3.5175,-3.4681,-3.4532,-3.4472,-3.4337,0.0,0.0,0.0,0.0,0.0,0.0,0.0,0.0,0.0,0.0,0.0,0.0,0.0,0.0,0.0,0.0,0.0,0.0,0.0,0.0,0.0,-3.4736,-3.5101,-3.5702,-3.6503,-3.6667,-3.7021,-3.759,-3.7976,-3.8029,-3.7739,-3.6865,-3.6172,-3.5644,-3.4657,-3.4145,-3.382,-3.3168,-3.292,-3.2938,-3.2762,-3.3017,-3.3467,-3.3191,-3.3135,-3.3126,-3.2182,0.0,0.0,0.0,0.0,0.0,0.0,0.0,-2.7284,-2.7284,-2.7356,-2.764,-2.8216,0.0,0.0,-3.358,0.0,-4.001,-4.0744,-4.2237,-4.341,-4.285,-4.3999,0.0,0.0,0.0,0.0,0.0,0.0,0.0,0.0,0.0,0.0,0.0,0.0,0.0,0.0,0.0,0.0,0.0,0.0,0.0,0.0,-3.3739,-3.3808,-3.331,-3.3739,-3.4461,-3.5504,-3.5504,-3.5504,-3.5504,-3.4986,-3.4476,-3.3959,-3.2522,-3.2393,-3.331,-3.3808,-3.4543,-3.5504,-3.5504,-3.5504,-3.5474,-3.5145,-3.4801,-3.4412,-3.389,-3.3636,-3.341,0.0,0.0,0.0,0.0,0.0,0.0,0.0,0.0,0.0,0.0,0.0,0.0,0.0,0.0,0.0,0.0,0.0,0.0,0.0,0.0,0.0,0.0,-3.559,-3.6286,-3.7058,-3.6862,-3.712,-3.7829,-3.7571,-3.7509,-3.7556,-3.6508,-3.5847,-3.553,-3.4824,-3.4523,-3.4478,-3.4107,-3.3979,-3.4089,-3.4105,-3.4166,-3.4377,-3.4475,-3.4254,-3.3788,-3.3238,-3.2309,-3.1246,-3.0622,0.0,0.0,0.0,0.0,-2.846,-2.8679,-2.8838,-2.9308,-3.0618,0.0,-3.4148,-3.6878,-3.8953,0.0,-4.1625,-4.3494,-4.5159,-4.5667,0.0,0.0,0.0,0.0,0.0,0.0,0.0,0.0,0.0,0.0,0.0,0.0,0.0,0.0,0.0,0.0,0.0,0.0,0.0,0.0,-3.3891,-3.3876,-3.3945,-3.3739,-3.4095,-3.4691,-3.5504,-3.5504,-3.5504,-3.5504,-3.5504,-3.5067,-3.4245,-3.3463,-3.3463,-3.4027,-3.4177,-3.4758,-3.5504,-3.5504,-3.5504,-3.5429,-3.4741,-3.4505,-3.4295,-3.3141,-3.2676,-3.2497,0.0,0.0,0.0,0.0,0.0,0.0,0.0,0.0,0.0,0.0,0.0,0.0,0.0,0.0,0.0,0.0,0.0,0.0,0.0,0.0,0.0,0.0,-3.5178,-3.5894,-3.6566,-3.6362,-3.6787,-3.7985,-3.7813,-3.793,-3.8222,-3.7121,-3.6447,-3.6164,-3.612,-3.5819,-3.5411,-3.5261,-3.4971,-3.4589,-3.4488,-3.496,-3.5677,-3.4969,-3.4858,-3.5033,-3.3833,-3.2901,-3.206,-3.1084,-3.0538,0.0,0.0,0.0,-2.9035,-2.9154,-2.9347,-2.9711,-3.0784,0.0,-3.6086,0.0,-4.0598,-4.2788,0.0,0.0,-4.6474,0.0,0.0,0.0,0.0,0.0,0.0,0.0,0.0,0.0,0.0,0.0,0.0,0.0,0.0,0.0,0.0,0.0,0.0,0.0,0.0,0.0,-3.2876,-3.3533,-3.3602,-3.282,-3.4409,-3.5359,-3.5504,-3.5504,-3.5504,-3.5504,-3.5504,-3.5439,-3.5294,-3.5148,-3.4691,-3.4027,-3.4905,-3.5359,-3.5504,-3.5504,-3.5504,-3.5429,-3.4741,-3.4403,-3.4105,-3.2946,-3.2139,-3.1634,0.0,0.0,0.0,0.0,0.0,0.0,0.0,0.0,0.0,0.0,0.0,0.0,0.0,0.0,0.0,0.0,0.0,0.0,0.0,0.0,0.0,-3.5312,-3.59,-3.6321,-3.6564,-3.6391,-3.6771,-3.7594,-3.756,-3.7765,-3.8167,-3.7795,-3.7301,-3.6802,-3.6476,-3.6373,-3.6437,-3.6158,-3.608,-3.6091,-3.6048,-3.6115,-3.6304,-3.6247,-3.6055,-3.5768,-3.5231,-3.4433,-3.3558,-3.2898,-3.2436,-3.1961,-3.1531,0.0,0.0,0.0,-3.0691,-3.1217,-3.3044,-3.515,-3.7525,0.0,-4.1487,-4.2925,-4.537,0.0,-4.6947,0.0,0.0,0.0,0.0,0.0,0.0,0.0,0.0,0.0,0.0,0.0,0.0,0.0,0.0,0.0,0.0,0.0,0.0,0.0,0.0,-3.4684,-3.3449,-3.3808,-3.3665,-3.2899,-3.4596,-3.5325,-3.4936,-3.531,-3.5504,-3.5504,-3.5504,-3.5504,-3.5504,-3.5504,-3.5279,-3.4839,-3.5294,-3.5504,-3.5504,-3.5504,-3.528,-3.4861,-3.4188,-3.3666,-3.3156,-3.2258,-3.1737,-3.1514,0.0,0.0,0.0,0.0,0.0,0.0,0.0,0.0,0.0,0.0,0.0,0.0,0.0,0.0,0.0,0.0,0.0,0.0,0.0,0.0,0.0,-3.5846,-3.633,-3.6568,-3.6468,-3.6592,-3.6904,-3.7501,-3.7706,-3.803,-3.854,-3.8623,-3.8335,-3.7668,-3.7126,-3.6961,-3.7157,-3.6846,-3.6921,-3.7164,-3.6987,-3.6796,-3.6723,-3.7105,-3.6785,-3.607,-3.6148,-3.5609,-3.4763,-3.452,-3.4083,-3.3587,-3.327,-3.3117,0.0,0.0,0.0,-3.2706,0.0,0.0,-3.7887,-4.0448,-4.1401,-4.252,0.0,0.0,0.0,0.0,0.0,0.0,0.0,0.0,0.0,0.0,0.0,0.0,0.0,0.0,0.0,0.0,0.0,0.0,0.0,0.0,0.0,0.0,0.0,-3.4316,-3.3656,-3.3671,-3.3471,-3.2962,-3.4618,-3.525,-3.4741,-3.525,-3.5504,-3.5504,-3.5504,-3.5504,-3.5504,-3.5504,-3.5504,-3.5504,-3.5504,-3.5504,-3.5489,-3.531,-3.4936,-3.4397,-3.3559,-3.2961,-3.2482,-3.1794,-3.1482,-3.1482,0.0,0.0,0.0,0.0,0.0,0.0,0.0,0.0,0.0,0.0,0.0,0.0,0.0,0.0,-3.3726,-3.352,0.0,0.0,0.0,0.0,0.0,-3.5382,-3.5921,0.0,-3.6019,-3.672,-3.7365,0.0,0.0,0.0,-4.0019,-3.9749,-3.942,-3.909,-3.8541,-3.7938,-3.7268,-3.7157,-3.7062,-3.7038,-3.6437,-3.6538,-3.7134,-3.6723,-3.6211,-3.5752,-3.6085,-3.5785,-3.515,-3.5029,-3.4834,-3.4559,-3.3925,-3.3622,-3.3381,0.0,0.0,0.0,0.0,-3.5169,0.0,-3.8551,-4.0041,0.0,0.0,0.0,0.0,0.0,0.0,0.0,0.0,0.0,0.0,0.0,0.0,0.0,0.0,0.0,0.0,0.0,0.0,0.0,0.0,0.0,0.0,0.0,0.0,-3.2735,-3.2664,-3.2664,-3.265,-3.2636,-3.4476,-3.5489,-3.5444,-3.5489,-3.5504,-3.5504,-3.5504,-3.5504,-3.5504,-3.5504,-3.5504,-3.5504,-3.5504,-3.5504,-3.5459,-3.4801,-3.4502,-3.4352,-3.3066,-3.2676,-3.2706,-3.1824,-3.1482,-3.1482,0.0,0.0,0.0,0.0,0.0,0.0,0.0,0.0,0.0,0.0,0.0,0.0,0.0,-3.513,-3.4909,-3.463,-3.4831,0.0,0.0,0.0,0.0,-3.5946,-3.6053,-3.5993,-3.5844,-3.6576,0.0,0.0,0.0,-3.941,-4.007,-3.9833,-3.9625,-3.9504,-3.8914,-3.8509,-3.8264,-3.8209,-3.8264,-3.8319,-3.8066,-3.7915,-3.7838,-3.737,-3.6951,-3.6585,0.0,0.0,0.0,-3.6184,0.0,-3.6259,-3.6026,-3.5843,-3.5675,-3.5319,-3.5131,-3.5102,0.0,0.0,0.0,-3.8535,-3.9919,-4.1698,-4.4577,-4.6479,0.0,0.0,0.0,0.0,0.0,0.0,0.0,0.0,0.0,0.0,0.0,0.0,0.0,0.0,0.0,0.0,0.0,0.0,0.0,0.0,0.0,0.0,-3.1742,-3.2249,-3.2414,-3.1971,-3.4272,-3.5504,-3.5504,-3.5504,-3.5504,-3.5504,-3.5504,-3.5504,-3.5504,-3.5504,-3.5504,-3.5504,-3.5504,-3.5504,-3.5444,-3.4756,-3.4065,-3.333,-3.2736,-3.2542,-3.2542,-3.2273,-3.2422,-3.2796,0.0,0.0,0.0,0.0,0.0,0.0,0.0,0.0,0.0,0.0,0.0,0.0,0.0,0.0,-3.5612,-3.5474,-3.6001,-3.6376,-3.6523,-3.7015,-3.7222,-3.7077,-3.6816,-3.6655,-3.6627,0.0,0.0,0.0,0.0,0.0,0.0,-3.9935,-3.9781,-3.9677,-3.9292,-3.8891,-3.8607,0.0,0.0,-3.8714,0.0,0.0,-3.8294,-3.7764,0.0,0.0,0.0,0.0,0.0,0.0,0.0,0.0,-3.7342,-3.7318,-3.7165,-3.6844,-3.6467,-3.6247,-3.6536,0.0,0.0,0.0,0.0,-4.0498,-4.3413,0.0,0.0,0.0,0.0,0.0,0.0,0.0,0.0,0.0,0.0,0.0,0.0,0.0,0.0,0.0,0.0,0.0,0.0,0.0,0.0,0.0,0.0,0.0,-3.1254,-3.1815,-3.2201,-3.2429,-3.4405,-3.5504,-3.5504,-3.5504,-3.5504,-3.5504,-3.5504,-3.5504,-3.5504,-3.5504,-3.5504,-3.5504,-3.5504,-3.5509,-3.5424,-3.4703,-3.3769,-3.281,-3.2572,-3.2512,-3.2512,-3.2512,-3.2931,-3.3499,0.0,0.0,0.0,0.0,0.0,0.0,0.0,0.0,0.0,0.0,0.0,0.0,0.0,0.0,0.0,-3.607,-3.6696,-3.7351,-3.8,-3.8521,-3.8745,-3.8594,0.0,0.0,0.0,0.0,0.0,0.0,0.0,0.0,0.0,0.0,-3.9969,-3.9729,-3.9729,-3.9172,-3.8247,0.0,-3.8247,-3.8195,0.0,-3.7938,-3.8446,0.0,0.0,0.0,-3.7621,-3.7103,0.0,-3.7251,0.0,0.0,-3.7648,-3.7697,-3.7691,-3.7584,-3.7373,-3.6987,0.0,0.0,0.0,0.0,0.0,0.0,-4.2448,0.0,0.0,0.0,0.0,0.0,0.0,0.0,0.0,0.0,0.0,0.0,0.0,0.0,0.0,0.0,0.0,0.0,0.0,0.0,0.0,0.0,0.0,-3.118,-3.118,-3.118,-3.2033,-3.3876,-3.492,-3.5439,-3.5439,-3.5439,-3.5439,-3.5504,-3.5504,-3.5504,-3.5504,-3.5504,-3.5504,-3.5504,-3.5474,-3.5503,-3.544,-3.4529,-3.3592,-3.2721,-3.2557,-3.2527,-3.2542,-3.2557,-3.2991,-3.3621,0.0,0.0,0.0,0.0,0.0,0.0,-4.0171,-3.9638,-3.9368,0.0,0.0,0.0,0.0,0.0,-3.8311,-3.838,-3.855,-3.8678,-3.8736,-3.8773,-3.8701,-3.8487,-3.8294,-3.8282,0.0,0.0,0.0,0.0,0.0,0.0,0.0,0.0,0.0,0.0,-4.0087,-3.9919,-3.9564,-3.9376,0.0,-3.9682,-3.9429,-3.9546,0.0,0.0,0.0,0.0,0.0,-3.737,-3.6951,0.0,-3.7879,-3.7706,-3.8254,-3.8625,-3.8784,-3.8731,-3.8515,-3.8337,-3.8379,0.0,0.0,0.0,0.0,0.0,0.0,0.0,0.0,0.0,0.0,0.0,0.0,0.0,0.0,0.0,0.0,0.0,0.0,0.0,0.0,0.0,0.0,0.0,0.0,0.0,0.0,0.0,-3.2006,-3.0895,-3.0203,-3.0833,-3.1742,-3.2961,-3.3255,-3.3754,-3.4394,-3.4394,-3.4758,-3.5504,-3.5504,-3.5504,-3.5504,-3.5504,-3.5504,-3.5474,-3.4827,-3.4949,-3.5415,-3.418,-3.296,-3.1946,-3.2512,-3.2946,-3.3275,-3.3754,-3.4367,-3.4951,0.0,0.0,0.0,0.0,0.0,0.0,-4.1111,-4.0708,-4.0579,0.0,0.0,0.0,0.0,0.0,-3.9445,-3.9779,-3.9796,-3.9834,-3.9931,-3.9859,-3.968,-3.9434,-3.9328,-3.9345,-3.9392,0.0,0.0,0.0,0.0,0.0,0.0,0.0,0.0,0.0,0.0,0.0,0.0,0.0,0.0,0.0,-4.0188,0.0,0.0,-3.9506,-3.9102,0.0,0.0,0.0,-3.7531,-3.8262,-3.8374,0.0,0.0,-3.9487,-3.9696,-3.9765,-3.9732,-3.9637,-3.9628,-3.9399,-3.9163,-3.9128,0.0,0.0,-4.1755,-4.3061,0.0,0.0,0.0,0.0,0.0,0.0,0.0,0.0,0.0,0.0,0.0,0.0,0.0,0.0,0.0,0.0,0.0,0.0,0.0,-3.2164,-3.1119,-3.0343,-2.9869,-3.1057,-3.1888,-3.2033,-3.3185,-3.3891,-3.4027,-3.4394,-3.4905,-3.5504,-3.5504,-3.5504,-3.5504,-3.5504,-3.5504,-3.5459,-3.4588,-3.425,-3.4257,-3.317,-3.2184,-3.1575,-3.2035,-3.2901,-3.3832,-3.4025,-3.4681,-3.5459,0.0,0.0,0.0,-4.2433,-4.1846,-4.1387,-4.1387,-4.1387,-4.1387,0.0,0.0,0.0,0.0,0.0,0.0,0.0,-4.0744,-4.0858,-4.1174,-4.1279,-4.1175,-4.0935,-4.0793,-4.0793,-4.0888,-4.0793,0.0,0.0,0.0,0.0,0.0,0.0,0.0,0.0,0.0,0.0,0.0,0.0,0.0,-4.0543,-4.0543,-4.0492,0.0,0.0,-3.9537,-3.9086,-3.9592,-3.8974,-3.8035,-3.869,-3.8962,0.0,0.0,0.0,0.0,0.0,-4.0754,-4.0787,-4.0401,-4.0324,-4.0254,-3.9775,-3.9846,0.0,-4.1445,-4.1831,-4.2687,0.0,0.0,0.0,0.0,0.0,0.0,0.0,0.0,0.0,0.0,0.0,0.0,0.0,0.0,0.0,0.0,-3.4685,-3.303,-3.1501,-3.0471,-2.9957,-3.0022,-3.1576,-3.2105,-3.1389,-3.3837,-3.4773,-3.4027,-3.4905,-3.5359,-3.5504,-3.5504,-3.5504,-3.5504,-3.5504,-3.5459,-3.5355,-3.4483,-3.3689,-3.2867,-3.1915,-3.1501,-3.1483,-3.1516,-3.2466,-3.3892,-3.38,-3.4472,-3.5415,-4.3497,0.0,-4.3259,-4.3259,-4.313,-4.302,-4.302,-4.302,-4.302,0.0,0.0,0.0,0.0,0.0,0.0,0.0,-4.2251,-4.1928,-4.1244,-4.1725,-4.1652,-4.0953,-4.0871,-4.0871,-4.0888,-4.0871,0.0,0.0,0.0,0.0,0.0,0.0,0.0,0.0,0.0,0.0,0.0,0.0,0.0,-4.2228,-4.2108,0.0,-4.1189,-4.0984,-4.0492,-3.9901,-3.9969,-3.9454,-3.869,-3.8854,-3.9315,-3.9901,0.0,0.0,0.0,-4.0754,0.0,0.0,-4.1385,-4.1393,-4.1445,0.0,0.0,0.0,-4.2257,-4.2393,-4.2817,0.0,0.0,0.0,0.0,0.0,0.0,0.0,0.0,0.0,0.0,0.0,0.0,0.0,0.0,0.0,0.0,-3.415,-3.2834,-3.2488,-3.1199,-3.0735,-3.1511,-3.1505,-3.1742,-3.2321,-3.289,-3.3463,-3.4027,-3.4177,-3.4691,-3.5504,-3.5504,-3.5504,-3.5504,-3.5504,-3.5205,-3.4637,-3.3948,-3.3756,-3.3772,-3.2198,-3.1486,-3.1531,-3.1496,-3.1693,-3.2276,-3.4322,-3.528,-3.5489,-4.3497,-4.3497,-4.3497,-4.3497,-4.3497,-4.3497,-4.3497,-4.3828,0.0,0.0,0.0,0.0,0.0,0.0,0.0,0.0,0.0,0.0,-4.1759,-4.2042,-4.1825,-4.097,-4.0888,-4.0888,-4.0888,-4.0888,-4.1155,0.0,0.0,0.0,0.0,0.0,0.0,0.0,0.0,0.0,0.0,0.0,-4.3872,-4.387,-4.2961,0.0,-4.1903,-4.1391,-4.0967,-4.0595,-4.0206,-3.9833,-3.954,-3.9924,-4.0337,0.0,0.0,-4.1694,-4.2146,0.0,-4.223,-4.2508,0.0,0.0,0.0,-4.2435,0.0,0.0,0.0,-4.2685,-4.2853,0.0,0.0,0.0,0.0,0.0,0.0,0.0,0.0,0.0,0.0,0.0,0.0,0.0,0.0,0.0,0.0,-3.4072,-3.283,-3.2922,-3.1954,-3.1771,-3.2766,-3.2636,-3.2593,-3.2593,-3.3547,-3.4041,-3.4027,-3.4476,-3.4986,-3.5504,-3.5504,-3.5504,-3.5504,-3.5504,-3.513,-3.4457,-3.4128,-3.3935,-3.3787,-3.3125,-3.287,-3.2896,-3.3333,-3.3513,-3.3583,-3.4252,-3.4912,-3.5504,-4.392,-4.3699,-4.3534,-4.3699,-4.3589,-4.3497,-4.3497,-4.4176,0.0,0.0,0.0,0.0,0.0,0.0,-4.5063,0.0,0.0,0.0,-4.3071,-4.2583,-4.1937,-4.1129,-4.0957,-4.0888,-4.0888,-4.0888,-4.1423,-4.2544,0.0,0.0,0.0,0.0,0.0,0.0,0.0,0.0,0.0,0.0,0.0,-4.5127,0.0,-4.3048,-4.2668,-4.1799,-4.1374,-4.1154,-4.0341,-4.007,-4.0189,-4.095,-4.1204,-4.1322,-4.2119,-4.2843,0.0,0.0,0.0,0.0,0.0,0.0,0.0,0.0,0.0,-4.3634,0.0,0.0,0.0,0.0,0.0,0.0,0.0,0.0,0.0,0.0,0.0,0.0,0.0,0.0,0.0,0.0,0.0,0.0,0.0,-3.4151,-3.3014,-3.3106,-3.2588,-3.2691,-3.3796,-3.3943,-3.3739,-3.3185,-3.481,-3.5285,-3.447,-3.5479,-3.5785,-3.5537,-3.5537,-3.5424,-3.531,-3.531,-3.4996,-3.4472,-3.4472,-3.4173,-3.3694,-3.4089,-3.4297,-3.452,-3.494,-3.5278,-3.5353,-3.4289,-3.4565,-3.5504,-4.548,-4.447,-4.3718,-4.4452,0.0,-4.3497,-4.3497,-4.4176,0.0,0.0,0.0,0.0,0.0,0.0,-4.794,-4.9,-4.6484,0.0,-4.5988,-4.3999,-4.2498,-4.1709,-4.1185,-4.084,-4.0745,-4.084,-4.1375,-4.2405,0.0,0.0,0.0,0.0,0.0,0.0,-4.4573,0.0,0.0,0.0,-4.5527,0.0,-4.5338,-4.4682,0.0,-4.272,-4.1954,-4.1257,-4.0392,-4.007,-4.0189,0.0,-4.1204,-4.1339,0.0,-4.2843,-4.3259,-4.3262,0.0,0.0,0.0,0.0,0.0,0.0,-4.4181,0.0,0.0,0.0,-4.3297,-4.2553,0.0,-4.2387,-4.2476,0.0,0.0,0.0,0.0,0.0,0.0,0.0,0.0,0.0,0.0,0.0,0.0,0.0,-3.362,-3.3633,-3.3414,-3.3651,-3.4711,-3.4235,-3.4394,-3.5148,-3.6024,-3.643,-3.6291,-3.716,-3.6861,-3.5596,-3.5596,-3.5263,-3.4592,-3.4592,-3.4547,-3.4472,-3.4472,-3.4442,-3.4367,-3.4215,-3.4673,-3.5223,-3.417,-3.4435,-3.5464,-3.534,-3.54,-3.5504,-4.5792,-4.5351,-4.4856,-4.4727,0.0,-4.4727,-4.4268,-4.5681,0.0,0.0,0.0,0.0,0.0,0.0,-4.9153,-4.8937,-4.7744,-4.6652,-4.5684,-4.4751,-4.3924,-4.3168,-4.2563,-4.2406,-4.2787,-4.2423,-4.2757,-4.3842,-4.3938,0.0,0.0,0.0,0.0,0.0,-4.5627,0.0,-4.5561,0.0,-4.5138,0.0,0.0,0.0,0.0,-4.3396,-4.2325,-4.1205,-4.0392,-4.007,-4.0189,0.0,-4.1204,0.0,0.0,0.0,0.0,0.0,0.0,0.0,0.0,0.0,0.0,0.0,0.0,0.0,-4.4669,0.0,-4.4389,0.0,0.0,0.0,0.0,0.0,0.0,0.0,-4.2785,0.0,0.0,0.0,0.0,0.0,0.0,0.0,0.0,0.0,0.0,0.0,0.0,-3.5829,-3.6445,-3.6298,-3.6213,-3.6165,-3.6859,-3.7074,-3.6663,-3.7011,-3.6619,-3.5581,-3.5179,-3.4768,-3.45,-3.4135,-3.3709,-3.3365,-3.3739,-3.3903,-3.3933,-3.4262,-3.4835,-3.5409,-3.4887,-3.4996,-3.5522,-3.5509,-3.5504,-3.5504,-4.6488,-4.6195,-4.5792,-4.5424,0.0,0.0,0.0,0.0,0.0,0.0,0.0,0.0,-5.0623,-5.0794,0.0,-5.0012,-4.9292,-4.8242,0.0,-4.562,-4.4707,-4.4007,-4.3408,-4.3355,-4.3838,-4.344,-4.3776,-4.4966,0.0,0.0,0.0,0.0,0.0,0.0,0.0,-4.6145,-4.5725,0.0,-4.5151,-4.4782,-4.4861,-4.4644,-4.4187,-4.3427,-4.2373,-4.1102,-4.0341,-4.007,-4.0189,-4.095,-4.1204,0.0,-4.2066,0.0,0.0,0.0,0.0,0.0,-4.4288,0.0,0.0,0.0,0.0,0.0,0.0,0.0,0.0,0.0,0.0,0.0,0.0,0.0,-4.291,0.0,0.0,-4.2668,0.0,0.0,0.0,0.0,0.0,0.0,0.0,0.0,0.0,0.0,0.0,0.0,-3.7638,-3.7725,-3.7419,-3.6622,-3.7387,-3.7464,-3.6738,-3.6902,-3.6562,-3.5637,-3.5062,-3.4617,-3.4233,-3.3695,-3.3216,-3.2811,-3.329,-3.3589,-3.3799,-3.4277,-3.4891,-3.5504,-3.5504,-3.5499,-3.5461,-3.5494,-3.5504,-3.5504,-4.8155,-4.6966,-4.614,0.0,0.0,0.0,0.0,0.0,0.0,0.0,0.0,0.0,0.0,0.0,0.0,0.0,0.0,-5.003,-5.0192,0.0,-4.4436,-4.3722,-4.3185,-4.286,-4.274,-4.3064,-4.3826,-4.511,-4.511,0.0,0.0,0.0,0.0,-4.7627,-4.6848,-4.692,-4.7591,-4.6997,-4.6043,-4.4987,-4.517,-4.4129,-4.2407,0.0,-4.1952,-4.1102,-4.0341,0.0,0.0,-4.095,-4.1204,0.0,0.0,0.0,0.0,0.0,0.0,0.0,0.0,0.0,0.0,-4.6227,0.0,0.0,0.0,0.0,-4.6008,0.0,0.0,0.0,-4.4778,-4.451,-4.4024,-4.3041,0.0,0.0,0.0,0.0,0.0,0.0,0.0,0.0,0.0,0.0,0.0,0.0,0.0,0.0,-3.7796,-3.7764,-3.7444,-3.6741,-3.7389,-3.7436,-3.6697,-3.7484,-3.7116,-3.5712,-3.5663,-3.4917,-3.3522,-3.3522,-3.3505,-3.3469,-3.3484,-3.3858,-3.4442,-3.4472,-3.4891,-3.5504,-3.5504,-3.5504,-3.5489,-3.5504,-3.5504,-3.5504,-4.95,-4.9322,-4.871,0.0,0.0,0.0,0.0,-4.9609,0.0,0.0,0.0,0.0,0.0,-5.4054,-5.3904,0.0,0.0,-5.0922,-4.9547,-4.8337,-4.7376,-4.6629,-4.6049,-4.6045,-4.6614,-4.5709,-4.5857,-4.709,-4.6259,0.0,0.0,0.0,-4.7695,-4.8294,0.0,-4.6499,0.0,0.0,0.0,0.0,0.0,-4.3973,-4.3895,0.0,0.0,-4.1102,-4.0341,-4.007,0.0,-4.0375,-4.046,-4.051,-4.0747,-4.1273,-4.1851,-4.2668,-4.2963,0.0,0.0,0.0,-4.4747,-4.4829,0.0,0.0,0.0,0.0,0.0,0.0,0.0,0.0,0.0,0.0,-4.3734,-4.3236,-4.2466,0.0,0.0,0.0,0.0,0.0,0.0,0.0,0.0,0.0,0.0,0.0,0.0,0.0,0.0,-3.9049,-3.9166,-3.8747,-3.894,-3.8704,-3.803,-3.7785,-3.6962,-3.5639,-3.5164,-3.4693,-3.4226,-3.3316,-3.2884,-3.2905,-3.2417,-3.2826,-3.3829,-3.3829,-3.4487,-3.5504,-3.5504,-3.5504,-3.5504,-3.5504,-3.5504,-3.5504,-5.0466,-5.0643,0.0,0.0,0.0,0.0,0.0,0.0,0.0,0.0,-5.4283,0.0,-5.501,0.0,-5.4293,0.0,-5.2497,-5.1417,-4.9165,-4.8809,0.0,-4.7691,-4.7299,-4.7375,-4.7958,-4.7137,-4.7207,-4.8184,-4.7462,-4.79,0.0,0.0,0.0,-4.871,0.0,-4.6666,-4.5984,0.0,-4.496,0.0,0.0,-4.3308,0.0,0.0,-4.1529,-4.1987,0.0,-4.007,-4.007,-4.007,-4.007,-4.007,-4.007,-4.051,-4.1087,-4.1834,-4.2023,-4.2192,-4.2997,-4.3491,0.0,-4.3969,-4.4765,0.0,-4.6237,0.0,0.0,0.0,0.0,0.0,0.0,0.0,0.0,-4.3281,-4.2549,-4.1801,0.0,-4.0256,0.0,0.0,0.0,0.0,0.0,0.0,0.0,-3.8667,-3.9581,0.0,0.0,0.0,-4.018,-3.9822,-3.9697,-3.919,-3.8296,-3.7507,-3.6603,-3.5577,-3.5144,-3.4847,-3.4576,-3.3443,-3.2949,-3.2949,-3.2216,-3.2516,-3.3516,-3.3796,-3.438,-3.5145,-3.5435,-3.5522,-3.5504,-3.5504,-3.5504,-3.5504,-5.1124,0.0,0.0,0.0,-5.082,0.0,0.0,0.0,-5.3518,0.0,-5.5038,-5.5192,-5.4439,-5.5002,-5.458,-5.2373,-5.2287,-5.1468,-4.9215,-4.8409,0.0,0.0,-4.7046,-4.7112,-4.7004,-4.741,-4.791,-4.8468,-4.8653,0.0,0.0,0.0,0.0,-4.9003,-4.8188,0.0,-4.6807,-4.6807,-4.6121,-4.4913,-4.3601,-4.2263,-4.1059,-4.0943,0.0,-4.3509,-4.1019,-4.007,-4.007,-4.007,-4.007,-4.007,-4.007,-4.007,-4.0223,-4.0984,-4.0696,-4.0595,-4.2726,-4.2585,-4.2188,-4.37,0.0,0.0,0.0,0.0,-4.6063,0.0,0.0,0.0,0.0,0.0,0.0,0.0,-4.2638,-4.192,0.0,0.0,0.0,0.0,0.0,0.0,0.0,-3.956,-3.9715,-4.002,-4.0187,-4.0204,0.0,0.0,-4.0545,-3.9863,-3.9568,-3.8895,-3.7679,-3.6814,-3.6139,-3.5622,-3.5622,-3.527,-3.4624,-3.3937,-3.3633,-3.3582,-3.2949,-3.3029,-3.365,-3.4365,-3.4644,-3.4753,-3.5385,-3.5615,-3.5619,-3.5569,-3.5554,-3.5554,-5.2572,-5.2582,-5.2582,0.0,-5.1096,-5.0362,0.0,0.0,0.0,0.0,-5.5667,-5.623,-5.5417,-5.5032,-5.4346,-5.3255,-5.2666,0.0,0.0,0.0,0.0,-4.9171,-4.9195,-4.9524,-5.015,-4.9711,-4.9983,-5.0886,-4.9824,0.0,-5.1643,0.0,0.0,0.0,0.0,0.0,-4.696,-4.696,-4.5909,-4.4191,-4.3932,-4.3814,0.0,0.0,-4.1955,-4.2808,-4.0832,-4.007,-4.007,-4.007,-4.007,-4.007,-4.007,-4.007,-4.0223,-4.0984,-4.1068,-4.1035,-4.161,-4.1985,-4.2158,-4.2142,-4.2807,-4.3642,0.0,0.0,0.0,0.0,0.0,0.0,0.0,0.0,0.0,-4.3048,-4.2296,-4.1511,0.0,0.0,0.0,-4.06,0.0,0.0,0.0,-3.9142,-3.9209,-3.9276,-3.9325,-3.9562,0.0,0.0,0.0,-4.0626,-3.946,-3.872,-3.84,-3.7074,-3.6139,-3.5622,-3.5622,-3.5515,-3.5316,-3.464,-3.4333,-3.4333,-3.3633,-3.4038,-3.5149,-3.5313,-3.6031,-3.6967,-3.7128,-3.7196,-3.7115,-3.6508,-3.6337,-3.6384,-5.3219,0.0,0.0,-5.3206,0.0,0.0,-5.3371,0.0,0.0,-5.4905,-5.5843,0.0,-5.4863,-5.4922,-5.4534,-5.3107,-5.2527,0.0,-5.1155,0.0,0.0,-5.1532,-5.1497,-5.1564,-5.1629,-5.1372,-5.1379,-5.1726,-5.0933,0.0,-5.2369,0.0,0.0,0.0,0.0,-4.9487,0.0,-4.7252,-4.6335,-4.5171,-4.436,0.0,0.0,-4.2201,-4.1596,-4.1529,-4.0798,-4.0358,-4.007,-4.007,-4.007,-4.007,-4.007,-4.007,-4.0155,-4.0595,-4.0713,-4.0781,-4.1119,-4.1508,-4.1711,-4.1409,-4.2244,-4.3236,-4.3443,-4.4165,-4.4923,0.0,0.0,0.0,0.0,0.0,0.0,-4.2894,-4.2415,-4.1816,0.0,0.0,0.0,0.0,-4.0029,0.0,0.0,-3.8935,-3.8865,-3.9428,-3.9223,-3.9376,0.0,0.0,0.0,-4.081,-3.9939,-3.9356,-3.918,-3.7646,-3.6638,-3.6129,-3.6129,-3.6129,-3.6129,-3.5756,-3.5744,-3.5971,-3.5282,-3.5467,-3.6231,-3.6525,-3.6966,-3.7374,-3.7694,-3.7822,-3.7806,-3.7658,-3.7424,-3.7203,-5.3628,0.0,0.0,0.0,0.0,0.0,0.0,-5.4782,0.0,-5.5752,0.0,-5.5472,-5.4094,-5.4903,-5.475,-5.2799,0.0,-5.2506,-5.2549,-5.2555,-5.2831,-5.3478,-5.346,-5.3095,-5.226,-5.2471,-5.233,-5.1766,-5.2017,0.0,0.0,0.0,0.0,0.0,0.0,0.0,0.0,-4.7673,-4.7035,0.0,-4.4943,-4.3859,-4.3218,-4.2536,-4.149,-4.0443,-4.1102,-4.0798,-4.007,-4.007,-4.007,-4.007,-4.007,-4.007,-4.007,-4.007,-4.0155,-4.0358,-4.1035,-4.1271,-4.1339,-4.1339,-4.2388,-4.325,-4.2591,-4.3555,-4.4587,-4.4587,-4.4682,-4.4296,0.0,0.0,0.0,0.0,0.0,0.0,0.0,0.0,0.0,0.0,0.0,0.0,0.0,0.0,-3.8744,-4.0036,-3.951,-3.9376,0.0,0.0,0.0,-4.0655,-4.0463,0.0,-3.9721,0.0,-3.734,-3.6924,-3.6924,-3.6924,-3.6941,-3.6952,-3.7302,-3.7858,-3.7203,-3.7019,-3.7153,-3.7748,-3.7735,-3.7316,-3.785,-3.8092,-3.8206,-3.8799,-3.8701,-3.8221,0.0,0.0,0.0,0.0,0.0,-5.5868,-5.7354,-5.7351,-5.7029,-5.6615,-5.7167,-5.723,-5.6336,-5.5349,-5.4631,-5.4236,-5.366,0.0,0.0,0.0,0.0,-5.3356,-5.332,-5.323,-5.3017,-5.3021,-5.2923,-5.2605,-5.2733,0.0,0.0,0.0,0.0,0.0,0.0,0.0,-4.7417,-4.7801,0.0,-4.6084,-4.6022,-4.5513,-4.4763,-4.3632,-4.2664,-4.1914,-4.2049,-4.1221,-4.007,-4.007,-4.007,-4.007,-4.007,-4.007,-4.007,-4.007,-4.051,-4.1035,-4.117,-4.1644,-4.21,-4.21,-4.276,-4.3386,-4.325,-4.3927,-4.4587,-4.4587,-4.4626,-4.4355,-4.3532,0.0,0.0,0.0,0.0,0.0,0.0,0.0,0.0,0.0,0.0,-3.9593,0.0,0.0,0.0,0.0,0.0,0.0,0.0,0.0,0.0,0.0,0.0,0.0,0.0,0.0,0.0,-3.7719,-3.7719,-3.7719,-3.7719,-3.7725,-3.7793,-3.7905,-3.7776,-3.8065,-3.8621,-3.8736,-3.9109,-3.9546,-3.9629,-3.9679,-3.9731,-3.9833,-4.0186,-4.0517,0.0,0.0,0.0,0.0,0.0,0.0,0.0,-5.9343,0.0,-5.771,-5.7868,-5.7642,-5.6402,-5.6716,-5.6697,-5.5844,-5.5466,-5.527,-5.524,-5.524,-5.5407,-5.5702,-5.5731,-5.5542,-5.5097,-5.4656,-5.4349,-5.4154,0.0,0.0,0.0,0.0,0.0,0.0,0.0,-5.0446,0.0,0.0,0.0,-4.7584,-4.6254,-4.5561,-4.5216,-4.4249,-4.3216,-4.2337,-4.2726,-4.2168,-4.117,-4.0781,-4.0409,-4.007,-4.007,-4.007,-4.0155,-4.0544,-4.0916,-4.1288,-4.166,-4.2303,-4.2777,-4.2388,-4.2861,-4.342,-4.342,-4.3707,-4.4096,-4.4485,-4.4587,-4.4524,-4.419,-4.2991,0.0,0.0,0.0,0.0,0.0,0.0,-4.0387,0.0,0.0,0.0,0.0,0.0,0.0,0.0,0.0,0.0,0.0,0.0,0.0,0.0,0.0,0.0,0.0,0.0,0.0,-3.8464,-3.8464,-3.8464,-3.8481,-3.887,-3.9039,-3.9039,-3.9039,-3.9225,-3.9546,-3.9546,-3.9766,-4.007,-4.007,-4.007,-4.0121,-4.051,-4.0899,-4.1153,0.0,-5.6216,0.0,0.0,-5.851,0.0,-5.9432,-6.081,-6.1151,-5.9159,-5.8757,-5.8235,-5.7119,-5.8395,-5.8781,-5.7516,-5.7249,-5.7135,-5.712,-5.7134,-5.7328,-5.7758,-5.774,-5.7373,-5.6565,-5.5757,-5.52,0.0,0.0,0.0,0.0,0.0,0.0,0.0,0.0,0.0,0.0,0.0,-4.8041,-4.8736,-4.6513,-4.5659,-4.5648,-4.4925,-4.3941,-4.3042,-4.3491,-4.3183,-4.2439,-4.1863,-4.117,-4.0544,-4.0544,-4.0544,-4.0663,-4.1255,-4.1542,-4.1796,-4.2371,-4.2963,-4.3318,-4.2878,-4.3098,-4.342,-4.342,-4.3538,-4.3792,-4.4231,-4.4468,-4.4587,-4.4587,-4.3427,0.0,0.0,0.0,0.0,0.0,0.0,0.0,0.0,0.0,0.0,-4.0933,0.0,0.0,0.0,0.0,0.0,0.0,0.0,0.0,0.0,0.0,-3.9368,-3.9833,0.0,-3.8535,0.0,-3.9158,-3.9225,-3.9242,-3.9817,-4.007,-4.007,-4.007,-4.007,-4.007,-4.007,-4.0172,-4.0307,-4.0307,-4.0409,-4.0629,-4.1221,-4.1542,-4.1677,0.0,0.0,0.0,0.0,0.0,0.0,0.0,-6.166,-6.2348,-6.1326,-6.0627,-6.0371,-6.0927,-5.999,-5.9188,-5.9006,-5.8358,-5.7949,-5.7894,-5.7886,-5.762,-5.695,-5.6914,-5.6547,-5.5721,-5.4913,-5.4099,0.0,0.0,-5.3488,0.0,0.0,0.0,0.0,0.0,0.0,0.0,-4.837,-4.8464,-4.7313,-4.7197,-4.7204,-4.7086,-4.5877,-4.5304,-4.5165,-4.4678,-4.3961,-4.3301,-4.3234,-4.2709,-4.2083,-4.2083,-4.2083,-4.21,-4.2168,-4.2675,-4.3234,-4.3301,-4.3369,-4.3572,-4.4215,-4.3893,-4.342,-4.342,-4.3961,-4.4282,-4.3656,-4.4079,-4.4587,-4.4587,-4.3318,-4.2506,0.0,0.0,0.0,0.0,0.0,-4.0849,-4.0206,0.0,0.0,0.0,0.0,0.0,0.0,0.0,0.0,0.0,0.0,0.0,-4.0087,0.0,-3.9662,-3.9032,-3.9595,0.0,-3.8933,-3.963,-3.9969,-3.9986,-4.0054,-4.007,-4.007,-4.007,-4.007,-4.007,-4.007,-4.0476,-4.1102,-4.1102,-4.1508,-4.2083,-4.2168,-4.2625,-4.32,0.0,0.0,0.0,0.0,0.0,0.0,0.0,-6.1667,-6.178,-6.0972,-6.1444,-6.1425,-6.0254,-6.0881,-6.079,-5.932,-5.937,-5.9049,-5.807,-5.7997,-5.785,-5.7538,-5.7519,-5.7373,-5.7042,-5.5776,-5.5188,0.0,0.0,0.0,0.0,0.0,0.0,0.0,0.0,-4.9307,-4.8645,-4.819,-4.8249,-4.8581,-4.8108,-4.7715,-4.7342,-4.6819,-4.6161,-4.5511,-4.5648,-4.5025,-4.4169,-4.4519,-4.3627,-4.2286,-4.2286,-4.2286,-4.2388,-4.2828,-4.3183,-4.3521,-4.3995,-4.4113,-4.4198,-4.4502,-4.3995,-4.3512,-4.3852,-4.3554,-4.3206,-4.3288,-4.3588,-4.3876,-4.3876,-4.3386,-4.2912,0.0,0.0,0.0,0.0,0.0,0.0,-4.0121,0.0,-4.0595,0.0,0.0,0.0,0.0,0.0,0.0,0.0,0.0,0.0,-4.007,0.0,-3.9437,-3.961,-3.9437,-3.9437,-3.961,-3.9952,-4.007,-4.007,-4.007,-4.007,-4.007,-4.007,-4.007,-4.0104,-4.0561,-4.0933,-4.1238,-4.1694,-4.2303,-4.2963,-4.2963,-4.3453,-4.4113,-5.9905,0.0,-6.0382,0.0,-6.1594,-6.1594,-6.1594,-6.1594,-6.1227,-6.0181,-6.1245,-6.1432,-5.9771,-6.1058,-6.1318,-5.9391,-5.9722,-5.9465,-5.8088,-5.7997,-5.7997,-5.7997,-5.7997,0.0,-5.7997,-5.6418,-5.5757,-5.6106,-5.4399,0.0,0.0,0.0,0.0,0.0,-4.9771,-4.9735,-5.0226,-4.8543,-4.8508,-4.9536,-4.893,-4.844,-4.8055,-4.8085,-4.7561,-4.6762,-4.6777,-4.6215,-4.5541,-4.5735,-4.4766,-4.3443,-4.3268,-4.3233,-4.3335,-4.3863,-4.3888,-4.3876,-4.4434,-4.4418,-4.4282,-4.4519,-4.4143,-4.3695,-4.3718,-4.3409,-4.3151,-4.3195,-4.3322,-4.342,-4.342,-4.342,-4.3318,-4.3014,0.0,0.0,0.0,0.0,0.0,0.0,-4.0273,-4.0527,-4.0849,0.0,0.0,0.0,0.0,0.0,0.0,0.0,0.0,0.0,0.0,0.0,0.0,-3.9437,-3.9437,-3.9731,-4.002,-4.007,-4.007,-4.007,-4.007,-4.0087,-4.0307,-4.0409,-4.046,-4.1221,-4.166,-4.1914,-4.2422,-4.3098,-4.3758,-4.3758,-4.4113,-4.4587,-5.9079,-5.9226,-5.9722,-6.1318,-6.1594,-6.1594,-6.1594,-6.1594,-6.1025,-5.9428,-5.9924,-6.0438,-6.0401,-6.0419,-6.0107,-5.9281,-5.9226,-5.8877,-5.8052,-5.7997,-5.7997,0.0,0.0,-5.7997,-5.7997,-5.6418,-5.5207,-5.4436,0.0,0.0,-5.0857,0.0,-5.1573,-5.0839,-5.161,-5.1077,-4.9591,-4.9572,-4.9554,-4.9591,-4.9572,-4.9572,-4.9606,-4.9724,-4.9775,-4.9577,-4.8188,-4.7683,-4.7558,-4.6696,-4.6365,-4.6252,-4.5664,-4.5477,-4.5477,-4.5494,-4.5035,-4.457,-4.4587,-4.4012,-4.3623,-4.4384,-4.447,-4.4026,-4.2668,-4.3779,-4.48,-4.3478,-4.3322,-4.342,-4.342,-4.342,-4.3673,-4.4418,0.0,0.0,0.0,0.0,0.0,-4.0257,-4.073,-4.0899,-4.0155,0.0,0.0,0.0,0.0,0.0,0.0,0.0,0.0,-4.007,-4.007,0.0,-3.8908,-3.9662,-3.9662,-3.8908,-3.9731,-4.007,-4.007,-4.007,-4.007,-4.0121,-4.0865,-4.1187,-4.1238,-4.1982,-4.2726,-4.3386,-4.3403,-4.3876,-4.457,-4.457,-4.457,-4.4587,-5.9869,-6.0034,-6.0181,-6.0694,-6.0786,-6.0603,-6.0052,-5.996,-5.9593,-5.8529,-5.8602,-5.8767,-5.8767,-5.974,-5.9869,0.0,-5.8896,-5.8877,0.0,-5.7997,-5.7997,-5.7997,-5.7997,-5.7997,-5.7997,-5.6418,-5.5464,-5.5207,0.0,0.0,0.0,-5.1867,-5.1261,-4.9976,-5.0233,-5.0068,-4.9536,-4.8967,-4.9058,-4.9591,-4.9591,-4.9591,-4.9664,-5.0273,-5.0216,-4.982,-4.9796,-4.8884,-4.7695,-4.7849,-4.7555,-4.7044,-4.6864,-4.6209,-4.5597,-4.6014,-4.5699,-4.532,-4.5732,-4.5641,-4.5501,-4.5763,-4.5789,-4.5487,-4.4367,-4.3492,-4.275,-4.2343,-4.2063,-4.2155,-4.3083,-4.3369,-4.3504,-4.3741,-4.3386,0.0,0.0,0.0,0.0,-4.1318,-4.1099,-4.1056,0.0,-4.0891,0.0,0.0,0.0,0.0,0.0,0.0,0.0,0.0,-4.0849,0.0,-4.1225,-4.1471,-4.1471,-4.1225,-4.1471,-4.1593,-4.1593,-4.1593,-4.1593,-4.1593,-4.1847,-4.1948,-4.1999,-4.276,-4.32,-4.347,-4.3995,-4.4795,-4.549,-4.4863,-4.5015,-4.5473,-5.941,-5.9501,-5.9593,-5.9905,-5.996,-5.9795,-5.93,-5.9208,-5.8914,-5.8107,-5.7997,-5.7997,-5.7997,-5.8896,0.0,-5.8088,-5.8455,-5.8547,-5.8033,-5.7997,-5.7997,-5.7997,-5.7997,-5.785,-5.7556,0.0,0.0,-5.5133,-5.3537,-5.2656,-5.2435,-5.183,-5.1169,-5.0472,-5.0178,-5.005,-4.9994,-4.915,-4.9095,-4.9609,-4.9921,-5.005,-5.016,-5.1279,-5.1438,-5.1071,-5.1211,-5.0223,-4.8875,-4.8937,-4.8429,-4.7756,-4.7756,-4.7062,-4.6305,-4.6682,-4.6336,-4.5915,-4.6288,-4.6383,-4.6383,-4.6383,-4.6571,-4.6543,-4.5562,-4.3476,-4.1853,-4.208,-4.1988,-4.2043,-4.2691,-4.3306,-4.3763,-4.3799,-4.3985,-4.3889,-4.2979,0.0,0.0,0.0,0.0,0.0,0.0,-4.0938,0.0,0.0,0.0,0.0,0.0,0.0,0.0,-4.1204,-4.1474,0.0,-4.2286,-4.2286,-4.2286,-4.2286,-4.2286,-4.2286,-4.2286,-4.2286,-4.2286,-4.2303,-4.2591,-4.2709,-4.2777,-4.3538,-4.3859,-4.391,-4.4384,-4.4981,-4.5456,-4.5111,-4.5365,-4.5828,-5.7997,-5.7997,0.0,0.0,-5.9134,0.0,-5.9134,-5.9134,-5.8859,-5.8107,-5.7997,-5.7997,-5.7997,-5.7997,-5.7997,-5.7997,0.0,0.0,0.0,-5.7997,-5.7997,-5.7997,-5.7997,0.0,-5.6914,-5.6785,-5.5941,-5.4326,-5.2821,-5.2472,-5.3188,-5.1683,-5.1316,-5.1867,-5.1132,-5.0747,-5.0582,-4.9811,-4.9499,-4.9572,-5.0453,-5.0802,-5.0986,-5.2601,-5.3206,-5.3096,-5.2289,-5.1481,-5.0674,-4.9848,-4.9022,-4.8306,-4.8306,-4.7897,-4.747,-4.747,-4.6999,-4.6478,-4.6524,-4.6524,-4.6524,-4.6524,-4.6928,-4.7052,-4.6103,-4.3833,-4.2021,-4.2655,-4.2775,-4.2669,-4.2241,-4.3311,-4.4316,-4.4401,-4.5008,-4.519,-4.4279,0.0,0.0,0.0,0.0,0.0,0.0,-4.0611,-4.032,0.0,0.0,0.0,0.0,0.0,-4.2243,-4.1373,-4.2016,-4.2388,-4.2455,-4.2455,-4.2455,-4.2455,-4.2455,-4.2455,-4.2455,-4.2455,-4.2455,-4.2489,-4.32,-4.3504,-4.3555,-4.4282,-4.4587,-4.4587,-4.4587,-4.4587,-4.4654,-4.5365,-4.5618,-4.5635,0.0,0.0,-5.8052,-5.8253,-5.829,-5.829,-5.829,-5.829,-5.8217,-5.8015,-5.7997,-5.7997,-5.7997,-5.7997,-5.7997,-5.7997,-5.7997,-5.7997,-5.7997,-5.7997,-5.7997,-5.7997,-5.7997,-5.7905,-5.7721,-5.651,-5.5097,-5.3482,-5.3115,-5.3023,-5.3206,-5.2821,-5.2087,-5.1077,-5.0875,-5.0086,-4.8893,-4.8691,-4.8618,-4.8746,-5.0215,-5.0802,-5.0986,-5.2601,-5.3206,-5.3096,-5.2289,-5.1481,-5.0674,-4.9848,-4.9022,-4.8306,-4.8306,-4.821,-4.8075,-4.8075,-4.7656,-4.7281,-4.7738,-4.7838,-4.7838,-4.7838,-4.7065,-4.6193,-4.5938,-4.4102,-4.2637,-4.3214,-4.2627,-4.221,-4.2634,-4.3487,-4.4173,-4.4347,-4.4918,-4.5163,-4.4839,-4.4235,0.0,0.0,-4.2619,-4.2462,-4.2865,-4.2422,-4.2329,0.0,0.0,0.0,0.0,0.0,-4.3649,-4.2895,-4.3064,-4.3436,-4.4028,-4.4045,-4.4045,-4.4045,-4.4045,-4.4045,-4.4045,-4.4045,-4.4045,-4.4045,-4.4231,-4.4316,-4.4316,-4.4502,-4.4587,-4.4587,-4.4587,-4.4587,-4.4604,-4.4773,-4.484,-4.5021,-5.7997,-5.7997,-5.7997,-5.7997,-5.7997,-5.7997,-5.7997,-5.7997,-5.7997,-5.7997,-5.7997,-5.785,-5.7483,-5.7446,-5.7446,-5.7446,-5.7795,-5.7997,-5.7997,-5.7997,-5.7997,-5.7997,-5.7648,-5.7446,-5.7446,-5.6235,-5.4987,-5.3757,-5.339,-5.3206,-5.3206,-5.2821,-5.1995,-5.0784,-5.0417,-4.9517,-4.8306,-4.8306,-4.8306,-4.8453,-5.0141,-5.0802,-5.0986,-5.2601,-5.3206,-5.3096,-5.2289,-5.1481,-5.0674,-4.9848,-4.9022,-4.8306,-4.8306,-4.8306,-4.8306,-4.8306,-4.8075,-4.7897,-4.821,-4.8306,-4.8306,-4.8306,-4.737,-4.6361,-4.5975,-4.4693,-4.3579,-4.3536,-4.3014,-4.2717,-4.3263,-4.3989,-4.4581,-4.4696,-4.5231,-4.5466,-4.4956,-4.4467,0.0,-4.405,-4.3559,-4.3351,-4.3633,-4.3502,-4.325,-4.2946,0.0,0.0,-4.4139,-4.4595,-4.455,-4.3888,-4.3905,-4.4147,-4.4587,-4.4587,-4.4587,-4.4587,-4.4587,-4.4587,-4.4587,-4.4587,-4.4587,-4.4587,-4.4587,-4.4587,-4.4587,-4.4587,-4.4587,-4.4587,-4.4587,-4.4776,-4.5032,-4.5374,-4.5917,-4.662,-5.7997,-5.7997,-5.7997,-5.7997,-5.7997,-5.7997,-5.7997,-5.7997,-5.7997,-5.7997,-5.7886,-5.7556,-5.6877,-5.6693,-5.662,-5.662,-5.7244,-5.7685,-5.7813,-5.7813,-5.7758,-5.7629,-5.6987,-5.662,-5.662,-5.5831,-5.5023,-5.4216,-5.3537,-5.3151,-5.3004,-5.2307,-5.1499,-5.0582,-4.9884,-4.9114,-4.8306,-4.8306,-4.8306,-4.8453,-4.9994,-5.0692,-5.0949,-5.2325,-5.3004,-5.3096,-5.2142,-5.1463,-5.0857,-5.005,-4.9279,-4.8673,-4.8526,-4.8508,-4.8471,-4.8343,-4.8306,-4.8306,-4.8306,-4.8306,-4.8306,-4.8306,-4.7719,-4.6929,-4.625,-4.5461,-4.469,-4.3993,-4.3846,-4.3906,-4.4038,-4.4758,-4.5337,-4.5463,-4.5843,-4.5878,-4.5169,0.0,-4.4709,-4.4709,-4.4398,-4.4129,-4.3924,-4.4247,-4.3843,-4.2423,-4.3586,-4.4484,0.0,-4.5143,-4.5129,-4.4707,-4.471,-4.4665,-4.4587,-4.4587,-4.4587,-4.4587,-4.4587,-4.4587,-4.457,-4.4665,-4.4682,-4.4626,-4.4814,-4.4814,-4.472,-4.4814,-4.4852,-4.4852,-4.4852,-4.5178,-4.5717,-4.6361,-4.7348,-4.8498,-5.7997,-5.7997,-5.7997,-5.7997,-5.7997,-5.7997,-5.7997,-5.7997,-5.7997,-5.7997,-5.7409,-5.695,-5.6822,-5.6198,-5.5776,-5.5776,-5.5886,-5.6253,-5.695,-5.6987,-5.6675,-5.5996,-5.5849,-5.5776,-5.5776,-5.4987,-5.4197,-5.339,-5.328,-5.2858,-5.2179,-5.205,-5.1206,-4.9774,-4.9646,-4.9114,-4.8306,-4.8306,-4.8306,-4.8398,-4.9389,-5.0178,-5.0839,-5.1077,-5.2032,-5.3023,-5.1518,-5.1334,-5.1683,-5.0875,-5.0527,-5.0288,-4.9609,-4.9389,-4.9242,-4.8526,-4.8306,-4.8306,-4.8306,-4.8306,-4.8306,-4.8306,-4.7719,-4.7095,-4.6948,-4.6305,-4.5681,-4.5553,-4.5535,-4.5388,-4.5001,-4.5945,-4.6846,-4.7102,-4.6455,-4.6121,-4.6635,0.0,-4.4709,-4.4709,-4.5224,-4.5148,-4.4017,-4.496,-4.5344,-4.4638,-4.5231,-4.6209,-4.7579,-4.6644,-4.6052,-4.6094,-4.5629,-4.5142,-4.457,-4.4587,-4.4587,-4.4587,-4.4587,-4.4587,-4.4626,-4.5142,-4.5089,-4.4682,-4.5681,-4.5815,-4.5407,-4.5915,-4.6094,-4.6094,-4.6094,-4.6192,-4.6257,-4.6363,-4.6601,-4.6938,-5.7997,-5.7997,-5.7997,-5.7997,-5.7648,-5.7354,-5.7354,-5.6987,-5.6712,-5.6712,-5.6381,-5.5996,-5.5556,-5.517,-5.495,-5.495,-5.495,-5.5115,-5.5482,-5.5904,-5.5978,-5.5611,-5.517,-5.4748,-5.4326,-5.4363,-5.4014,-5.3206,-5.3206,-5.2803,-5.1995,-5.1995,-5.1132,-4.9591,-4.9591,-4.9114,-4.8306,-4.8306,-4.8306,-4.8379,-4.9242,-4.9811,-5.0251,-5.1114,-5.1903,-5.2454,-5.1701,-5.1665,-5.1867,-5.1077,-5.0802,-5.0747,-5.0362,-5.0251,-5.0068,-4.9242,-4.8673,-4.8306,-4.8306,-4.8306,-4.8306,-4.8306,-4.8031,-4.7645,-4.7223,-4.6819,-4.6434,-4.5993,-4.5902,-4.5957,-4.6114,-4.6687,-4.7148,-4.7244,-4.6504,0.0,0.0,-4.5443,-4.5039,-4.5902,-4.6024,-4.5845,-4.5206,-4.5773,-4.5695,-4.4578,-4.5459,-4.6397,-4.7124,-4.6553,-4.6255,-4.6413,-4.5815,-4.5232,-4.4643,-4.4906,-4.4906,-4.4587,-4.4587,-4.4587,-4.4626,-4.5232,-4.5372,-4.5125,-4.6014,-4.624,-4.6014,-4.6288,-4.6383,-4.6383,-4.6383,-4.6618,-4.6955,-4.6955,-4.7419,-4.8236,-5.7721,-5.7721,-5.7721,-5.7721,-5.706,-5.6528,-5.6528,-5.5996,-5.5592,-5.5592,-5.5427,-5.5078,-5.4473,-5.4234,-5.4124,-5.4124,-5.4124,-5.4124,-5.4124,-5.4693,-5.5042,-5.5042,-5.4454,-5.383,-5.3225,-5.3812,-5.383,-5.3206,-5.3023,-5.2509,-5.172,-5.1518,-5.0655,-4.9297,-4.9297,-4.893,-4.8306,-4.8306,-4.8306,-4.8379,-4.9242,-4.9701,-4.9994,-5.1242,-5.194,-5.2252,-5.2068,-5.2105,-5.2179,-5.1573,-5.1371,-5.1334,-5.1151,-5.1077,-5.0912,-5.0105,-4.926,-4.8563,-4.8361,-4.8306,-4.8306,-4.8306,-4.8306,-4.8141,-4.7535,-4.7388,-4.7205,-4.6599,-4.6452,-4.6654,-4.7278,-4.7388,-4.7462,-4.7664,0.0,0.0,0.0,-4.5773,-4.5736,-4.6966,-4.6877,-4.6512,-4.6043,-4.64,-4.5911,-4.4208,-4.5437,-4.6252,-4.6252,-4.6252,-4.6284,-4.6413,-4.5815,-4.5267,-4.4814,-4.5267,-4.5178,-4.4587,-4.472,-4.4814,-4.4814,-4.5614,-4.5833,-4.5732,-4.6524,-4.6756,-4.6664,-4.6801,-4.6847,-4.6847,-4.6847,-4.715,-4.7614,-4.7614,-4.8356,-4.9297,-5.6895,-5.6895,-5.6895,-5.6895,-5.6216,-5.5684,-5.5684,-5.5629,-5.5592,-5.5592,-5.495,-5.4473,-5.4418,-5.3739,-5.3298,-5.3298,-5.3298,-5.3298,-5.3298,-5.3353,-5.339,-5.339,-5.3335,-5.328,-5.3206,-5.328,-5.328,-5.3206,-5.2454,-5.1683,-5.0875,-5.0123,-4.9279,-4.8398,-4.8398,-4.8361,-4.8306,-4.8306,-4.8306,-4.8379,-4.9242,-5.005,-5.0729,-5.0839,-5.1811,-5.3023,-5.227,-5.2472,-5.3115,-5.3059,-5.3023,-5.2894,-5.2142,-5.1903,-5.1738,-5.0949,-5.0141,-4.9315,-4.8526,-4.8306,-4.8306,-4.8306,-4.8306,-4.8288,-4.8233,-4.8214,-4.8196,-4.8141,-4.8122,-4.8141,-4.8214,-4.8214,-4.8489,-4.926,0.0,0.0,-4.8031,-4.7443,-4.6985,-4.7113,-4.7736,-4.7415,-4.5561,-4.6534,-4.6507,-4.4515,-4.5633,-4.6389,-4.6389,-4.6389,-4.6407,-4.6383,-4.5815,-4.5459,-4.5407,-4.5459,-4.5178,-4.4643,-4.5196,-4.5407,-4.5459,-4.6682,-4.691,-4.6383,-4.7638,-4.7838,-4.7385,-4.7937,-4.8172,-4.8172,-4.8172,-4.8172,-4.821,-4.821,-4.8304,-4.8398,-5.6051,-5.6051,-5.6051,-5.6051,-5.539,-5.4858,-5.4858,-5.4436,-5.4106,-5.4106,-5.3849,-5.3665,-5.3665,-5.339,-5.3206,-5.3206,-5.3206,-5.3206,-5.3206,-5.3206,-5.3206,-5.3206,-5.3206,-5.3206,-5.3206,-5.3206,-5.2968,-5.2454,-5.2142,-5.1316,-5.005,-4.9719,-4.9132,-4.8306,-4.8306,-4.8306,-4.8306,-4.8306,-4.8306,-4.8343,-4.8655,-4.9297,-5.005,-5.005,-5.1041,-5.2417,-5.2105,-5.2527,-5.3206,-5.3206,-5.3206,-5.317,-5.2839,-5.2747,-5.2601,-5.1775,-5.0967,-5.016,-4.9315,-4.871,-4.8306,-4.8306,-4.8306,-4.8306,-4.8306,-4.8306,-4.8306,-4.8306,-4.8306,-4.8172,-4.7797,-4.8035,-4.8281,-4.8234,0.0,-4.7388,-4.8196,-4.7627,-4.7297,-4.7792,-4.7795,-4.7301,-4.6099,-4.6129,-4.576,-4.4588,-4.5338,-4.5815,-4.5815,-4.5815,-4.5815,-4.5815,-4.5965,-4.6063,-4.6063,-4.6063,-4.5915,-4.5732,-4.5965,-4.6063,-4.6112,-4.6999,-4.7237,-4.7044,-4.7937,-4.8172,-4.7995,-4.821,-4.8306,-4.8306,-4.8306,-4.8306,-4.8306,-4.8306,-4.8306,-4.8306,-5.5391,-5.5319,-5.5207,-5.5207,-5.4564,-5.4014,-5.4014,-5.3555,-5.3206,-5.3206,-5.3206,-5.3206,-5.3206,-5.3206,-5.3206,-5.3206,-5.3206,-5.3206,-5.3206,-5.3206,-5.3206,-5.3206,-5.3206,-5.3206,-5.3206,-5.3206,-5.2931,-5.238,-5.2105,-5.1298,-4.9958,-4.9701,-4.9132,-4.8306,-4.8306,-4.8306,-4.8306,-4.8306,-4.8306,-4.8324,-4.86,-4.9058,-4.9609,-4.9866,-5.0655,-5.1665,-5.1903,-5.2197,-5.2491,-5.2747,-5.2821,-5.2821,-5.2821,-5.3004,-5.3041,-5.2234,-5.161,-5.1004,-5.0196,-4.9352,-4.8636,-4.8379,-4.8306,-4.8379,-4.8655,-4.8508,-4.8379,-4.8655,-4.8489,-4.8172,-4.7756,-4.7856,-4.7937,-4.7715,-4.7401,-4.7453,-4.8194,-4.7829,-4.77,-4.8233,-4.7756,-4.715,-4.6478,-4.5865,-4.5232,-4.4626,-4.4998,-4.5232,-4.5232,-4.5232,-4.5407,-4.5783,-4.6014,-4.6383,-4.6981,-4.6801,-4.6618,-4.6413,-4.6618,-4.671,-4.6728,-4.7655,-4.7951,-4.7715,-4.8407,-4.8545,-4.8306,-4.8306,-4.8306,-4.8306,-4.8306,-4.8306,-4.8306,-4.8306,-4.8306,-4.8306,-5.5006,-5.4667,-5.4399,-5.4399,-5.3739,-5.3206,-5.3206,-5.3206,-5.3206,-5.3206,-5.3206,-5.3206,-5.3206,-5.3206,-5.3206,-5.3206,-5.3206,-5.3206,-5.3206,-5.3206,-5.3206,-5.3206,-5.3206,-5.3206,-5.3206,-5.3206,-5.3206,-5.3206,-5.238,-5.1573,-5.0765,-4.9958,-4.9114,-4.8306,-4.8306,-4.8306,-4.8306,-4.8306,-4.8306,-4.8379,-4.9224,-4.9572,-4.9682,-5.0472,-5.0802,-5.0894,-5.1701,-5.1463,-5.093,-5.172,-5.1977,-5.1995,-5.1995,-5.2564,-5.3041,-5.2234,-5.1995,-5.183,-5.1041,-5.0215,-4.9389,-4.8545,-4.8324,-4.8545,-4.9389,-4.893,-4.8563,-4.9426,-4.8912,-4.8324,-4.8306,-4.7797,-4.7614,-4.821,-4.7797,-4.7614,-4.8229,-4.8306,-4.8306,-4.8306,-4.7756,-4.715,-4.6478,-4.5883,-4.5267,-4.4682,-4.4626,-4.4626,-4.4626,-4.4643,-4.5196,-4.6383,-4.585,-4.6401,-4.8267,-4.7715,-4.7062,-4.6413,-4.7088,-4.7385,-4.7464,-4.8912,-4.9114,-4.8361,-4.9205,-4.9095,-4.8306,-4.8306,-4.8306,-4.8306,-4.8306,-4.8306,-4.8306,-4.8306,-4.8306,-4.8306,-5.4578,-5.4297,-5.3995,-5.3995,-5.3547,-5.3206,-5.3206,-5.3206,-5.3206,-5.3206,-5.3206,-5.3206,-5.3206,-5.3206,-5.3206,-5.3206,-5.3206,-5.3206,-5.3206,-5.3206,-5.3206,-5.3206,-5.3206,-5.3206,-5.3206,-5.3206,-5.2931,-5.2362,-5.1555,-5.0747,-4.9921,-4.9077,-4.8545,-4.8306,-4.8306,-4.8306,-4.8306,-4.8306,-4.8306,-4.8324,-4.8581,-4.904,-4.9536,-4.9187,-4.9793,-5.0765,-5.0417,-5.0508,-5.0839,-5.1077,-5.1518,-5.2087,-5.2656,-5.3023,-5.317,-5.2913,-5.2839,-5.2674,-5.1867,-5.1463,-5.1077,-5.027,-4.9627,-4.9426,-5.0251,-5.0233,-5.0123,-5.038,-4.9774,-4.905,-4.8611,-4.8239,-4.7937,-4.7715,-4.7897,-4.8075,-4.8267,-4.8306,-4.8306,-4.8306,-4.8132,-4.7797,-4.715,-4.6955,-4.6589,-4.5915,-4.5865,-4.5865,-4.5865,-4.6458,-4.6956,-4.728,-4.8081,-4.8533,-4.8508,-4.7759,-4.7512,-4.7738,-4.7937,-4.8035,-4.8072,-4.9148,-4.9114,-4.8361,-4.9205,-4.9095,-4.8306,-4.8306,-4.8306,-4.8306,-4.8306,-4.8306,-4.8306,-4.8306,-4.8306,-4.8306,-5.4471,-5.4255,-5.4013,-5.3851,-5.3604,-5.3462,-5.3462,-5.3295,-5.3206,-5.3206,-5.3206,-5.3206,-5.3206,-5.3206,-5.3206,-5.3206,-5.3206,-5.3206,-5.3206,-5.3206,-5.3206,-5.3206,-5.3206,-5.3206,-5.3206,-5.2894,-5.2491,-5.1995,-5.1187,-5.038,-4.9572,-4.9058,-4.8636,-4.8306,-4.8306,-4.8306,-4.8306,-4.8306,-4.8306,-4.8306,-4.8306,-4.8618,-4.9022,-4.8508,-4.893,-4.9793,-4.9646,-4.9682,-4.9866,-5.0215,-5.0857,-5.1665,-5.2472,-5.2949,-5.3206,-5.3206,-5.3206,-5.3096,-5.2619,-5.2013,-5.1481,-5.1316,-5.0674,-5.0196,-5.0692,-5.0802,-5.0894,-5.1206,-5.0618,-4.997,-4.9549,-4.9131,-4.8753,-4.8343,-4.833,-4.84,-4.8304,-4.8306,-4.8306,-4.8306,-4.8075,-4.7797,-4.7446,-4.7481,-4.7347,-4.6956,-4.6607,-4.6383,-4.6383,-4.7257,-4.7796,-4.8079,-4.9199,-4.9521,-4.8992,-4.881,-4.8593,-4.8306,-4.8306,-4.8489,-4.882,-4.9352,-4.9297,-4.8838,-4.9352,-4.9095,-4.8306,-4.8306,-4.8306,-4.8306,-4.8306,-4.8306,-4.8306,-4.8306,-4.8306,-4.8306,-5.4671,-5.4597,-5.442,-5.3977,-5.3869,-5.3851,-5.3851,-5.3524,-5.3272,-5.3295,-5.3272,-5.323,-5.323,-5.323,-5.323,-5.3206,-5.3206,-5.3206,-5.3206,-5.3206,-5.3206,-5.3206,-5.3206,-5.3206,-5.3206,-5.2472,-5.2068,-5.1995,-5.1187,-5.038,-4.9591,-4.9499,-4.9058,-4.8306,-4.8306,-4.8306,-4.8306,-4.8306,-4.8306,-4.8306,-4.8306,-4.8306,-4.8306,-4.8306,-4.8306,-4.8398,-4.9187,-4.8967,-4.8434,-4.9297,-5.0123,-5.0949,-5.1738,-5.2546,-5.3206,-5.3206,-5.3206,-5.3206,-5.3206,-5.2087,-5.1077,-5.1811,-5.1444,-5.0912,-5.0912,-5.0967,-5.1224,-5.1958,-5.1463,-5.0894,-5.082,-5.0277,-4.9858,-4.9603,-4.9149,-4.8726,-4.854,-4.8471,-4.8416,-4.8416,-4.7852,-4.7506,-4.7578,-4.7796,-4.7998,-4.7998,-4.724,-4.6784,-4.6784,-4.7595,-4.834,-4.8898,-4.9702,-4.9992,-4.9811,-5.0527,-5.0031,-4.8306,-4.8379,-4.8783,-4.9481,-4.9536,-4.9536,-4.9481,-4.9554,-4.9095,-4.8306,-4.8306,-4.8306,-4.8306,-4.8306,-4.8306,-4.8306,-4.8306,-4.8306,-4.8306,-5.5399,-5.5186,-5.4952,-5.4848,-5.4579,-5.4355,-5.4355,-5.396,-5.3796,-5.4171,-5.3906,-5.3663,-5.3663,-5.3663,-5.3545,-5.3248,-5.3206,-5.3206,-5.3206,-5.3206,-5.3206,-5.3206,-5.3206,-5.3206,-5.3206,-5.3041,-5.2637,-5.1995,-5.1187,-5.038,-4.9572,-4.8893,-4.8489,-4.8306,-4.8306,-4.8306,-4.8306,-4.8306,-4.8306,-4.8306,-4.8306,-4.8306,-4.8306,-4.8306,-4.8306,-4.8324,-4.8508,-4.8471,-4.8434,-4.9297,-5.0123,-5.0949,-5.1738,-5.2546,-5.3206,-5.3206,-5.3206,-5.3206,-5.3206,-5.2491,-5.1775,-5.1958,-5.1867,-5.1738,-5.1738,-5.2234,-5.2747,-5.2913,-5.2307,-5.1555,-5.093,-5.0703,-5.0369,-4.9719,-5.0025,-5.0314,-5.0248,-4.9719,-4.9315,-4.9315,-4.8614,-4.837,-4.8992,-4.9693,-5.0143,-5.0143,-4.9961,-4.987,-4.987,-5.0617,-5.1116,-5.1261,-5.2047,-5.2145,-5.1481,-5.1646,-5.0582,-4.8324,-4.8985,-4.9058,-4.86,-4.9279,-4.9224,-4.8618,-4.9297,-4.9095,-4.8306,-4.8306,-4.8306,-4.8306,-4.8306,-4.8306,-4.8306,-4.8306,-4.8306,-4.8306,-5.5246,-5.5092,-5.4872,-5.5057,-5.4924,-5.4701,-5.4535,-5.4083,-5.3814,-5.3888,-5.3682,-5.3505,-5.3505,-5.3505,-5.3422,-5.3206,-5.3206,-5.3206,-5.3206,-5.3206,-5.3206,-5.3206,-5.3206,-5.3206,-5.3206,-5.2821,-5.2234,-5.1426,-5.1004,-5.0178,-4.8967,-4.893,-4.8691,-4.8306,-4.8306,-4.8306,-4.8306,-4.8306,-4.8306,-4.8306,-4.8306,-4.8306,-4.8306,-4.8306,-4.8306,-4.8306,-4.8306,-4.8306,-4.8379,-4.882,-4.9536,-5.0362,-5.1169,-5.1977,-5.2711,-5.3096,-5.2931,-5.2711,-5.3115,-5.2325,-5.1518,-5.1885,-5.1995,-5.1995,-5.1995,-5.2619,-5.3206,-5.3206,-5.2876,-5.2435,-5.2032,-5.194,-5.1683,-5.0875,-5.1096,-5.1242,-5.0857,-5.0435,-5.016,-5.016,-4.9426,-4.9242,-5.0031,-5.0178,-5.0545,-5.1316,-5.1022,-5.0802,-5.0802,-5.1555,-5.1995,-5.1995,-5.2784,-5.2821,-5.1995,-5.238,-5.1536,-4.9499,-4.9939,-5.0123,-5.005,-4.9738,-4.9554,-4.9481,-4.9132,-4.8728,-4.8306,-4.8306,-4.8306,-4.8306,-4.8306,-4.8306,-4.8306,-4.8306,-4.8306,-4.8306,-5.4568,-5.4507,-5.4425,-5.4893,-5.4861,-5.4764,-5.4722,-5.4123,-5.3665,-5.3545,-5.34,-5.3295,-5.3295,-5.323,-5.3206,-5.3206,-5.3206,-5.3206,-5.3206,-5.3206,-5.3206,-5.3206,-5.3206,-5.3206,-5.3206,-5.2546,-5.1811,-5.1004,-5.0875,-5.0013,-4.8545,-4.9242,-4.9132,-4.8306,-4.8306,-4.8306,-4.8306,-4.8306,-4.8306,-4.8306,-4.8306,-4.8306,-4.8306,-4.8306,-4.8306,-4.8306,-4.8306,-4.8306,-4.8306,-4.8306,-4.8875,-4.9719,-5.0545,-5.1353,-5.216,-5.2968,-5.2729,-5.2344,-5.3023,-5.2142,-5.1206,-5.1995,-5.2087,-5.2032,-5.216,-5.2729,-5.3206,-5.3206,-5.3206,-5.317,-5.3023,-5.3115,-5.2949,-5.2123,-5.2105,-5.1977,-5.1298,-5.1096,-5.1004,-5.1004,-5.0417,-5.0251,-5.0949,-5.0527,-5.0765,-5.2087,-5.1591,-5.1206,-5.1206,-5.183,-5.2197,-5.2197,-5.2858,-5.2894,-5.2197,-5.2876,-5.2546,-5.1206,-5.1206,-5.1426,-5.1738,-5.0398,-5.016,-5.0729,-4.9334,-4.8728,-4.8728,-4.8581,-4.8526,-4.8508,-4.8361,-4.8306,-4.8306,-4.8306,-4.8306,-4.8306,-5.3409,-5.3413,-5.3624,-5.4449,-5.3947,-5.3947,-5.5324,-5.4249,-5.3654,-5.4724,-5.4202,-5.372,-5.372,-5.3422,-5.3206,-5.3206,-5.3206,-5.3206,-5.3206,-5.3206,-5.3206,-5.3206,-5.3206,-5.3206,-5.3206,-5.3096,-5.2637,-5.183,-5.1132,-5.0325,-4.9426,-4.9517,-4.9132,-4.8306,-4.8306,-4.8306,-4.8306,-4.8306,-4.8306,-4.8306,-4.8306,-4.8306,-4.8306,-4.8306,-4.8306,-4.8306,-4.8306,-4.8306,-4.8306,-4.8306,-4.8875,-4.9719,-5.0545,-5.1353,-5.216,-5.2968,-5.3133,-5.3078,-5.3188,-5.2527,-5.2032,-5.2839,-5.2509,-5.2179,-5.2894,-5.3133,-5.3206,-5.3206,-5.3206,-5.3004,-5.2289,-5.2729,-5.2949,-5.2123,-5.2582,-5.3004,-5.2894,-5.2289,-5.183,-5.183,-5.1738,-5.172,-5.183,-5.238,-5.2803,-5.3023,-5.2949,-5.2894,-5.2894,-5.2986,-5.3041,-5.3041,-5.3151,-5.317,-5.3041,-5.317,-5.3096,-5.2894,-5.2894,-5.2215,-5.0949,-5.0747,-5.071,-5.0802,-5.0563,-5.0472,-5.0417,-4.9701,-4.9407,-4.9334,-4.86,-4.8306,-4.8306,-4.8306,-4.8306,-4.8306,-5.3029,-5.2818,-5.276,-5.3626,-5.3453,-5.3371,-5.3905,-5.3339,-5.2987,-5.3252,-5.2761,-5.2489,-5.2713,-5.3024,-5.3275,-5.3547,-5.3545,-5.3444,-5.3206,-5.3206,-5.3206,-5.3206,-5.3206,-5.3206,-5.3206,-5.2766,-5.2582,-5.2674,-5.2325,-5.1499,-5.027,-5.027,-4.9829,-4.9003,-4.8526,-4.8306,-4.8306,-4.8306,-4.8306,-4.8306,-4.8306,-4.8306,-4.8306,-4.8306,-4.8306,-4.8361,-4.8838,-4.9022,-4.9077,-4.9536,-4.9958,-5.0398,-5.1224,-5.1701,-5.216,-5.2968,-5.2894,-5.2637,-5.3096,-5.2619,-5.2179,-5.3004,-5.2931,-5.2766,-5.3133,-5.3206,-5.3206,-5.3206,-5.3206,-5.3096,-5.2747,-5.2968,-5.3096,-5.2729,-5.2968,-5.3206,-5.3206,-5.2894,-5.2509,-5.205,-5.1995,-5.1995,-5.1995,-5.2307,-5.2729,-5.3188,-5.3206,-5.3206,-5.3206,-5.3206,-5.3206,-5.3206,-5.3206,-5.3206,-5.3206,-5.3206,-5.3206,-5.3206,-5.3206,-5.2839,-5.2142,-5.1683,-5.1463,-5.1444,-5.1004,-5.0802,-5.0747,-4.9921,-4.9591,-4.9499,-4.8636,-4.8306,-4.8306,-4.8306,-4.8306,-4.8306]}]]